<?xml version="1.0" encoding="UTF-8" standalone="no" ?>
<gpx xmlns="http://www.topografix.com/GPX/1/1" xmlns:xsi="http://www.w3.org/2001/XMLSchema-instance" xsi:schemaLocation="http://www.topografix.com/GPX/1/1 http://www.topografix.com/GPX/1/1/gpx.xsd" version="1.1" creator="VisuGPX - https://www.visugpx.com">
  <metadata>
    <name>Larajasse - Coise - St Sym - Pomeys - Aveize - La Chapelle</name>
    <desc><![CDATA[Magnifique boucle au départ de Larajasse]]></desc>
  </metadata>
  <trk>
    <name><![CDATA[Tour par Coise - St Sym - Pomeys - Aveize - La Chapelle]]></name>
    <trkseg>
      <trkpt lat="45.61679" lon="4.49524">
        <ele>669.21508789062</ele>
        <time>2012-04-09T07:21:09Z</time>
      </trkpt>
      <trkpt lat="45.61678" lon="4.49553">
        <ele>672.09887695312</ele>
        <time>2012-04-09T07:21:17Z</time>
      </trkpt>
      <trkpt lat="45.61674" lon="4.49569">
        <ele>674.021484375</ele>
        <time>2012-04-09T07:21:22Z</time>
      </trkpt>
      <trkpt lat="45.61666" lon="4.49569">
        <ele>674.50219726562</ele>
        <time>2012-04-09T07:21:26Z</time>
      </trkpt>
      <trkpt lat="45.61655" lon="4.49558">
        <ele>675.94409179688</ele>
        <time>2012-04-09T07:21:32Z</time>
      </trkpt>
      <trkpt lat="45.61636" lon="4.49541">
        <ele>678.34741210938</ele>
        <time>2012-04-09T07:21:40Z</time>
      </trkpt>
      <trkpt lat="45.61617" lon="4.49535">
        <ele>679.78930664062</ele>
        <time>2012-04-09T07:21:47Z</time>
      </trkpt>
      <trkpt lat="45.61598" lon="4.49543">
        <ele>681.2314453125</ele>
        <time>2012-04-09T07:21:54Z</time>
      </trkpt>
      <trkpt lat="45.61585" lon="4.49563">
        <ele>681.7119140625</ele>
        <time>2012-04-09T07:22:00Z</time>
      </trkpt>
      <trkpt lat="45.61581" lon="4.49592">
        <ele>682.19262695312</ele>
        <time>2012-04-09T07:22:06Z</time>
      </trkpt>
      <trkpt lat="45.61587" lon="4.49636">
        <ele>683.63452148438</ele>
        <time>2012-04-09T07:22:15Z</time>
      </trkpt>
      <trkpt lat="45.61589" lon="4.49685">
        <ele>685.07690429688</ele>
        <time>2012-04-09T07:22:25Z</time>
      </trkpt>
      <trkpt lat="45.61583" lon="4.49731">
        <ele>686.0380859375</ele>
        <time>2012-04-09T07:22:35Z</time>
      </trkpt>
      <trkpt lat="45.61569" lon="4.49772">
        <ele>686.99926757812</ele>
        <time>2012-04-09T07:22:45Z</time>
      </trkpt>
      <trkpt lat="45.61549" lon="4.49822">
        <ele>689.40258789062</ele>
        <time>2012-04-09T07:22:57Z</time>
      </trkpt>
      <trkpt lat="45.61531" lon="4.49849">
        <ele>690.36401367188</ele>
        <time>2012-04-09T07:23:05Z</time>
      </trkpt>
      <trkpt lat="45.61506" lon="4.49879">
        <ele>692.28662109375</ele>
        <time>2012-04-09T07:23:15Z</time>
      </trkpt>
      <trkpt lat="45.61476" lon="4.49917">
        <ele>692.76733398438</ele>
        <time>2012-04-09T07:23:27Z</time>
      </trkpt>
      <trkpt lat="45.61458" lon="4.4994">
        <ele>693.728515625</ele>
        <time>2012-04-09T07:23:34Z</time>
      </trkpt>
      <trkpt lat="45.61434" lon="4.49974">
        <ele>695.17041015625</ele>
        <time>2012-04-09T07:23:44Z</time>
      </trkpt>
      <trkpt lat="45.61423" lon="4.49996">
        <ele>696.1318359375</ele>
        <time>2012-04-09T07:23:49Z</time>
      </trkpt>
      <trkpt lat="45.61409" lon="4.50016">
        <ele>696.61254882812</ele>
        <time>2012-04-09T07:23:54Z</time>
      </trkpt>
      <trkpt lat="45.61392" lon="4.5002">
        <ele>697.09301757812</ele>
        <time>2012-04-09T07:23:58Z</time>
      </trkpt>
      <trkpt lat="45.61352" lon="4.50033">
        <ele>696.1318359375</ele>
        <time>2012-04-09T07:24:06Z</time>
      </trkpt>
      <trkpt lat="45.61306" lon="4.50049">
        <ele>695.65112304688</ele>
        <time>2012-04-09T07:24:14Z</time>
      </trkpt>
      <trkpt lat="45.61288" lon="4.50052">
        <ele>696.1318359375</ele>
        <time>2012-04-09T07:24:17Z</time>
      </trkpt>
      <trkpt lat="45.61258" lon="4.50041">
        <ele>695.65112304688</ele>
        <time>2012-04-09T07:24:22Z</time>
      </trkpt>
      <trkpt lat="45.61224" lon="4.50008">
        <ele>694.68969726562</ele>
        <time>2012-04-09T07:24:28Z</time>
      </trkpt>
      <trkpt lat="45.61184" lon="4.4996">
        <ele>691.3251953125</ele>
        <time>2012-04-09T07:24:35Z</time>
      </trkpt>
      <trkpt lat="45.61167" lon="4.49939">
        <ele>690.36401367188</ele>
        <time>2012-04-09T07:24:38Z</time>
      </trkpt>
      <trkpt lat="45.61157" lon="4.49901">
        <ele>688.44140625</ele>
        <time>2012-04-09T07:24:42Z</time>
      </trkpt>
      <trkpt lat="45.61161" lon="4.49822">
        <ele>681.7119140625</ele>
        <time>2012-04-09T07:24:50Z</time>
      </trkpt>
      <trkpt lat="45.61157" lon="4.49785">
        <ele>677.86669921875</ele>
        <time>2012-04-09T07:24:55Z</time>
      </trkpt>
      <trkpt lat="45.6115" lon="4.49742">
        <ele>674.50219726562</ele>
        <time>2012-04-09T07:25:00Z</time>
      </trkpt>
      <trkpt lat="45.61147" lon="4.49721">
        <ele>673.541015625</ele>
        <time>2012-04-09T07:25:04Z</time>
      </trkpt>
      <trkpt lat="45.61144" lon="4.49703">
        <ele>671.6181640625</ele>
        <time>2012-04-09T07:25:09Z</time>
      </trkpt>
      <trkpt lat="45.61141" lon="4.49683">
        <ele>671.1376953125</ele>
        <time>2012-04-09T07:25:13Z</time>
      </trkpt>
      <trkpt lat="45.61136" lon="4.49657">
        <ele>670.17626953125</ele>
        <time>2012-04-09T07:25:17Z</time>
      </trkpt>
      <trkpt lat="45.61128" lon="4.49618">
        <ele>667.77270507812</ele>
        <time>2012-04-09T07:25:22Z</time>
      </trkpt>
      <trkpt lat="45.61124" lon="4.49595">
        <ele>666.33081054688</ele>
        <time>2012-04-09T07:25:26Z</time>
      </trkpt>
      <trkpt lat="45.61121" lon="4.49575">
        <ele>664.408203125</ele>
        <time>2012-04-09T07:25:30Z</time>
      </trkpt>
      <trkpt lat="45.61121" lon="4.49562">
        <ele>663.92749023438</ele>
        <time>2012-04-09T07:25:33Z</time>
      </trkpt>
      <trkpt lat="45.61119" lon="4.49543">
        <ele>661.5244140625</ele>
        <time>2012-04-09T07:25:37Z</time>
      </trkpt>
      <trkpt lat="45.61115" lon="4.4952">
        <ele>657.67919921875</ele>
        <time>2012-04-09T07:25:41Z</time>
      </trkpt>
      <trkpt lat="45.61111" lon="4.495">
        <ele>655.27587890625</ele>
        <time>2012-04-09T07:25:44Z</time>
      </trkpt>
      <trkpt lat="45.61102" lon="4.49463">
        <ele>650.94970703125</ele>
        <time>2012-04-09T07:25:49Z</time>
      </trkpt>
      <trkpt lat="45.611" lon="4.49455">
        <ele>649.98852539062</ele>
        <time>2012-04-09T07:25:50Z</time>
      </trkpt>
      <trkpt lat="45.61098" lon="4.4944">
        <ele>647.58520507812</ele>
        <time>2012-04-09T07:25:52Z</time>
      </trkpt>
      <trkpt lat="45.61095" lon="4.49405">
        <ele>640.85595703125</ele>
        <time>2012-04-09T07:25:58Z</time>
      </trkpt>
      <trkpt lat="45.61094" lon="4.49389">
        <ele>637.0107421875</ele>
        <time>2012-04-09T07:26:01Z</time>
      </trkpt>
      <trkpt lat="45.61091" lon="4.49358">
        <ele>632.2041015625</ele>
        <time>2012-04-09T07:26:05Z</time>
      </trkpt>
      <trkpt lat="45.61092" lon="4.4935">
        <ele>630.76220703125</ele>
        <time>2012-04-09T07:26:06Z</time>
      </trkpt>
      <trkpt lat="45.61097" lon="4.49318">
        <ele>624.513671875</ele>
        <time>2012-04-09T07:26:10Z</time>
      </trkpt>
      <trkpt lat="45.611" lon="4.49301">
        <ele>621.62963867188</ele>
        <time>2012-04-09T07:26:12Z</time>
      </trkpt>
      <trkpt lat="45.61114" lon="4.49258">
        <ele>612.97778320312</ele>
        <time>2012-04-09T07:26:18Z</time>
      </trkpt>
      <trkpt lat="45.6111" lon="4.4923">
        <ele>606.24853515625</ele>
        <time>2012-04-09T07:26:23Z</time>
      </trkpt>
      <trkpt lat="45.61097" lon="4.49203">
        <ele>606.24853515625</ele>
        <time>2012-04-09T07:26:26Z</time>
      </trkpt>
      <trkpt lat="45.61089" lon="4.49177">
        <ele>603.84521484375</ele>
        <time>2012-04-09T07:26:29Z</time>
      </trkpt>
      <trkpt lat="45.61087" lon="4.49159">
        <ele>601.44189453125</ele>
        <time>2012-04-09T07:26:33Z</time>
      </trkpt>
      <trkpt lat="45.61096" lon="4.49131">
        <ele>603.84521484375</ele>
        <time>2012-04-09T07:26:40Z</time>
      </trkpt>
      <trkpt lat="45.61103" lon="4.49104">
        <ele>601.92260742188</ele>
        <time>2012-04-09T07:26:44Z</time>
      </trkpt>
      <trkpt lat="45.61095" lon="4.49056">
        <ele>602.8837890625</ele>
        <time>2012-04-09T07:26:50Z</time>
      </trkpt>
      <trkpt lat="45.61089" lon="4.49018">
        <ele>603.84521484375</ele>
        <time>2012-04-09T07:26:55Z</time>
      </trkpt>
      <trkpt lat="45.6109" lon="4.48979">
        <ele>603.36450195312</ele>
        <time>2012-04-09T07:27:01Z</time>
      </trkpt>
      <trkpt lat="45.61091" lon="4.48967">
        <ele>604.806640625</ele>
        <time>2012-04-09T07:27:03Z</time>
      </trkpt>
      <trkpt lat="45.6109" lon="4.48947">
        <ele>607.2099609375</ele>
        <time>2012-04-09T07:27:07Z</time>
      </trkpt>
      <trkpt lat="45.61091" lon="4.48925">
        <ele>610.09375</ele>
        <time>2012-04-09T07:27:13Z</time>
      </trkpt>
      <trkpt lat="45.61092" lon="4.48907">
        <ele>612.0166015625</ele>
        <time>2012-04-09T07:27:19Z</time>
      </trkpt>
      <trkpt lat="45.61091" lon="4.48886">
        <ele>612.97778320312</ele>
        <time>2012-04-09T07:27:25Z</time>
      </trkpt>
      <trkpt lat="45.6109" lon="4.4884">
        <ele>613.93896484375</ele>
        <time>2012-04-09T07:27:36Z</time>
      </trkpt>
      <trkpt lat="45.61085" lon="4.48799">
        <ele>615.38110351562</ele>
        <time>2012-04-09T07:27:47Z</time>
      </trkpt>
      <trkpt lat="45.61085" lon="4.48777">
        <ele>615.86181640625</ele>
        <time>2012-04-09T07:27:53Z</time>
      </trkpt>
      <trkpt lat="45.6109" lon="4.48752">
        <ele>615.86181640625</ele>
        <time>2012-04-09T07:28:01Z</time>
      </trkpt>
      <trkpt lat="45.61095" lon="4.48732">
        <ele>617.3037109375</ele>
        <time>2012-04-09T07:28:08Z</time>
      </trkpt>
      <trkpt lat="45.61102" lon="4.48717">
        <ele>619.70703125</ele>
        <time>2012-04-09T07:28:14Z</time>
      </trkpt>
      <trkpt lat="45.61109" lon="4.48708">
        <ele>622.59106445312</ele>
        <time>2012-04-09T07:28:20Z</time>
      </trkpt>
      <trkpt lat="45.61117" lon="4.48704">
        <ele>624.03295898438</ele>
        <time>2012-04-09T07:28:25Z</time>
      </trkpt>
      <trkpt lat="45.61127" lon="4.48695">
        <ele>625.95556640625</ele>
        <time>2012-04-09T07:28:32Z</time>
      </trkpt>
      <trkpt lat="45.61137" lon="4.48671">
        <ele>628.35888671875</ele>
        <time>2012-04-09T07:28:40Z</time>
      </trkpt>
      <trkpt lat="45.61145" lon="4.48654">
        <ele>630.28149414062</ele>
        <time>2012-04-09T07:28:48Z</time>
      </trkpt>
      <trkpt lat="45.6115" lon="4.48634">
        <ele>631.24291992188</ele>
        <time>2012-04-09T07:28:55Z</time>
      </trkpt>
      <trkpt lat="45.61152" lon="4.48614">
        <ele>631.24291992188</ele>
        <time>2012-04-09T07:29:01Z</time>
      </trkpt>
      <trkpt lat="45.61153" lon="4.4858">
        <ele>630.76220703125</ele>
        <time>2012-04-09T07:29:09Z</time>
      </trkpt>
      <trkpt lat="45.61149" lon="4.48554">
        <ele>630.76220703125</ele>
        <time>2012-04-09T07:29:15Z</time>
      </trkpt>
      <trkpt lat="45.61139" lon="4.48515">
        <ele>631.24291992188</ele>
        <time>2012-04-09T07:29:23Z</time>
      </trkpt>
      <trkpt lat="45.61126" lon="4.48477">
        <ele>630.76220703125</ele>
        <time>2012-04-09T07:29:30Z</time>
      </trkpt>
      <trkpt lat="45.61118" lon="4.48426">
        <ele>629.32006835938</ele>
        <time>2012-04-09T07:29:37Z</time>
      </trkpt>
      <trkpt lat="45.61104" lon="4.48391">
        <ele>628.83959960938</ele>
        <time>2012-04-09T07:29:42Z</time>
      </trkpt>
      <trkpt lat="45.61091" lon="4.48364">
        <ele>629.80078125</ele>
        <time>2012-04-09T07:29:47Z</time>
      </trkpt>
      <trkpt lat="45.61086" lon="4.48346">
        <ele>630.28149414062</ele>
        <time>2012-04-09T07:29:51Z</time>
      </trkpt>
      <trkpt lat="45.61086" lon="4.48328">
        <ele>631.72338867188</ele>
        <time>2012-04-09T07:29:55Z</time>
      </trkpt>
      <trkpt lat="45.6109" lon="4.48299">
        <ele>634.12670898438</ele>
        <time>2012-04-09T07:30:02Z</time>
      </trkpt>
      <trkpt lat="45.61091" lon="4.48266">
        <ele>636.04956054688</ele>
        <time>2012-04-09T07:30:10Z</time>
      </trkpt>
      <trkpt lat="45.61091" lon="4.48259">
        <ele>636.5302734375</ele>
        <time>2012-04-09T07:30:12Z</time>
      </trkpt>
      <trkpt lat="45.61101" lon="4.48251">
        <ele>636.04956054688</ele>
        <time>2012-04-09T07:30:17Z</time>
      </trkpt>
      <trkpt lat="45.61123" lon="4.48246">
        <ele>633.64599609375</ele>
        <time>2012-04-09T07:30:26Z</time>
      </trkpt>
      <trkpt lat="45.6114" lon="4.4823">
        <ele>632.68481445312</ele>
        <time>2012-04-09T07:30:32Z</time>
      </trkpt>
      <trkpt lat="45.61161" lon="4.48206">
        <ele>633.16528320312</ele>
        <time>2012-04-09T07:30:40Z</time>
      </trkpt>
      <trkpt lat="45.61174" lon="4.48193">
        <ele>632.2041015625</ele>
        <time>2012-04-09T07:30:45Z</time>
      </trkpt>
      <trkpt lat="45.61192" lon="4.48173">
        <ele>629.32006835938</ele>
        <time>2012-04-09T07:30:50Z</time>
      </trkpt>
      <trkpt lat="45.61222" lon="4.48138">
        <ele>628.35888671875</ele>
        <time>2012-04-09T07:30:57Z</time>
      </trkpt>
      <trkpt lat="45.6123" lon="4.48131">
        <ele>628.35888671875</ele>
        <time>2012-04-09T07:30:59Z</time>
      </trkpt>
      <trkpt lat="45.61244" lon="4.48114">
        <ele>629.32006835938</ele>
        <time>2012-04-09T07:31:03Z</time>
      </trkpt>
      <trkpt lat="45.61252" lon="4.48096">
        <ele>630.76220703125</ele>
        <time>2012-04-09T07:31:07Z</time>
      </trkpt>
      <trkpt lat="45.61269" lon="4.48078">
        <ele>634.12670898438</ele>
        <time>2012-04-09T07:31:14Z</time>
      </trkpt>
      <trkpt lat="45.61291" lon="4.48069">
        <ele>635.08813476562</ele>
        <time>2012-04-09T07:31:22Z</time>
      </trkpt>
      <trkpt lat="45.61308" lon="4.48069">
        <ele>637.0107421875</ele>
        <time>2012-04-09T07:31:29Z</time>
      </trkpt>
      <trkpt lat="45.61327" lon="4.48067">
        <ele>639.4140625</ele>
        <time>2012-04-09T07:31:37Z</time>
      </trkpt>
      <trkpt lat="45.61334" lon="4.48056">
        <ele>639.89477539062</ele>
        <time>2012-04-09T07:31:41Z</time>
      </trkpt>
      <trkpt lat="45.61337" lon="4.4804">
        <ele>640.85595703125</ele>
        <time>2012-04-09T07:31:46Z</time>
      </trkpt>
      <trkpt lat="45.61336" lon="4.48021">
        <ele>643.25927734375</ele>
        <time>2012-04-09T07:31:53Z</time>
      </trkpt>
      <trkpt lat="45.61335" lon="4.48002">
        <ele>644.701171875</ele>
        <time>2012-04-09T07:32:01Z</time>
      </trkpt>
      <trkpt lat="45.61327" lon="4.47987">
        <ele>645.18188476562</ele>
        <time>2012-04-09T07:32:08Z</time>
      </trkpt>
      <trkpt lat="45.61307" lon="4.47965">
        <ele>648.06591796875</ele>
        <time>2012-04-09T07:32:20Z</time>
      </trkpt>
      <trkpt lat="45.61299" lon="4.47946">
        <ele>649.98852539062</ele>
        <time>2012-04-09T07:32:28Z</time>
      </trkpt>
      <trkpt lat="45.61296" lon="4.47928">
        <ele>652.87255859375</ele>
        <time>2012-04-09T07:32:35Z</time>
      </trkpt>
      <trkpt lat="45.61297" lon="4.47905">
        <ele>654.31469726562</ele>
        <time>2012-04-09T07:32:44Z</time>
      </trkpt>
      <trkpt lat="45.61298" lon="4.47885">
        <ele>655.27587890625</ele>
        <time>2012-04-09T07:32:52Z</time>
      </trkpt>
      <trkpt lat="45.61293" lon="4.47862">
        <ele>656.23706054688</ele>
        <time>2012-04-09T07:33:01Z</time>
      </trkpt>
      <trkpt lat="45.613" lon="4.47847">
        <ele>656.23706054688</ele>
        <time>2012-04-09T07:33:07Z</time>
      </trkpt>
      <trkpt lat="45.61309" lon="4.47834">
        <ele>655.27587890625</ele>
        <time>2012-04-09T07:33:13Z</time>
      </trkpt>
      <trkpt lat="45.61322" lon="4.47822">
        <ele>654.79516601562</ele>
        <time>2012-04-09T07:33:19Z</time>
      </trkpt>
      <trkpt lat="45.6134" lon="4.47805">
        <ele>654.31469726562</ele>
        <time>2012-04-09T07:33:27Z</time>
      </trkpt>
      <trkpt lat="45.61351" lon="4.4778">
        <ele>654.31469726562</ele>
        <time>2012-04-09T07:33:33Z</time>
      </trkpt>
      <trkpt lat="45.61354" lon="4.47751">
        <ele>654.31469726562</ele>
        <time>2012-04-09T07:33:39Z</time>
      </trkpt>
      <trkpt lat="45.61354" lon="4.47722">
        <ele>652.87255859375</ele>
        <time>2012-04-09T07:33:43Z</time>
      </trkpt>
      <trkpt lat="45.61346" lon="4.47671">
        <ele>652.39184570312</ele>
        <time>2012-04-09T07:33:49Z</time>
      </trkpt>
      <trkpt lat="45.61333" lon="4.4764">
        <ele>652.87255859375</ele>
        <time>2012-04-09T07:33:54Z</time>
      </trkpt>
      <trkpt lat="45.61319" lon="4.47623">
        <ele>653.35327148438</ele>
        <time>2012-04-09T07:33:58Z</time>
      </trkpt>
      <trkpt lat="45.61308" lon="4.47614">
        <ele>653.833984375</ele>
        <time>2012-04-09T07:34:01Z</time>
      </trkpt>
      <trkpt lat="45.61299" lon="4.47598">
        <ele>653.833984375</ele>
        <time>2012-04-09T07:34:05Z</time>
      </trkpt>
      <trkpt lat="45.61305" lon="4.47578">
        <ele>653.35327148438</ele>
        <time>2012-04-09T07:34:09Z</time>
      </trkpt>
      <trkpt lat="45.61308" lon="4.47572">
        <ele>652.87255859375</ele>
        <time>2012-04-09T07:34:10Z</time>
      </trkpt>
      <trkpt lat="45.61337" lon="4.4753">
        <ele>649.5078125</ele>
        <time>2012-04-09T07:34:18Z</time>
      </trkpt>
      <trkpt lat="45.61345" lon="4.47519">
        <ele>649.02709960938</ele>
        <time>2012-04-09T07:34:20Z</time>
      </trkpt>
      <trkpt lat="45.61365" lon="4.47475">
        <ele>647.1044921875</ele>
        <time>2012-04-09T07:34:26Z</time>
      </trkpt>
      <trkpt lat="45.61383" lon="4.47411">
        <ele>646.6240234375</ele>
        <time>2012-04-09T07:34:34Z</time>
      </trkpt>
      <trkpt lat="45.61396" lon="4.47397">
        <ele>645.18188476562</ele>
        <time>2012-04-09T07:34:37Z</time>
      </trkpt>
      <trkpt lat="45.61407" lon="4.47401">
        <ele>644.701171875</ele>
        <time>2012-04-09T07:34:39Z</time>
      </trkpt>
      <trkpt lat="45.61452" lon="4.47441">
        <ele>641.8173828125</ele>
        <time>2012-04-09T07:34:47Z</time>
      </trkpt>
      <trkpt lat="45.61492" lon="4.47492">
        <ele>639.4140625</ele>
        <time>2012-04-09T07:34:55Z</time>
      </trkpt>
      <trkpt lat="45.61516" lon="4.4753">
        <ele>637.97216796875</ele>
        <time>2012-04-09T07:35:00Z</time>
      </trkpt>
      <trkpt lat="45.61552" lon="4.47592">
        <ele>635.56860351562</ele>
        <time>2012-04-09T07:35:07Z</time>
      </trkpt>
      <trkpt lat="45.61574" lon="4.47634">
        <ele>631.72338867188</ele>
        <time>2012-04-09T07:35:11Z</time>
      </trkpt>
      <trkpt lat="45.61589" lon="4.47648">
        <ele>629.32006835938</ele>
        <time>2012-04-09T07:35:14Z</time>
      </trkpt>
      <trkpt lat="45.61598" lon="4.47639">
        <ele>627.39770507812</ele>
        <time>2012-04-09T07:35:16Z</time>
      </trkpt>
      <trkpt lat="45.61602" lon="4.47632">
        <ele>626.9169921875</ele>
        <time>2012-04-09T07:35:17Z</time>
      </trkpt>
      <trkpt lat="45.61616" lon="4.47607">
        <ele>624.513671875</ele>
        <time>2012-04-09T07:35:20Z</time>
      </trkpt>
      <trkpt lat="45.61639" lon="4.47551">
        <ele>620.66845703125</ele>
        <time>2012-04-09T07:35:25Z</time>
      </trkpt>
      <trkpt lat="45.61676" lon="4.47478">
        <ele>612.97778320312</ele>
        <time>2012-04-09T07:35:31Z</time>
      </trkpt>
      <trkpt lat="45.6168" lon="4.47467">
        <ele>612.0166015625</ele>
        <time>2012-04-09T07:35:32Z</time>
      </trkpt>
      <trkpt lat="45.61689" lon="4.47421">
        <ele>610.09375</ele>
        <time>2012-04-09T07:35:36Z</time>
      </trkpt>
      <trkpt lat="45.61693" lon="4.47411">
        <ele>609.61328125</ele>
        <time>2012-04-09T07:35:37Z</time>
      </trkpt>
      <trkpt lat="45.61713" lon="4.47378">
        <ele>608.65185546875</ele>
        <time>2012-04-09T07:35:41Z</time>
      </trkpt>
      <trkpt lat="45.61744" lon="4.47352">
        <ele>605.76806640625</ele>
        <time>2012-04-09T07:35:46Z</time>
      </trkpt>
      <trkpt lat="45.61803" lon="4.47318">
        <ele>602.8837890625</ele>
        <time>2012-04-09T07:35:55Z</time>
      </trkpt>
      <trkpt lat="45.61809" lon="4.47313">
        <ele>602.8837890625</ele>
        <time>2012-04-09T07:35:56Z</time>
      </trkpt>
      <trkpt lat="45.61838" lon="4.47277">
        <ele>600.96118164062</ele>
        <time>2012-04-09T07:36:02Z</time>
      </trkpt>
      <trkpt lat="45.61881" lon="4.47261">
        <ele>595.67407226562</ele>
        <time>2012-04-09T07:36:08Z</time>
      </trkpt>
      <trkpt lat="45.61913" lon="4.47243">
        <ele>592.3095703125</ele>
        <time>2012-04-09T07:36:12Z</time>
      </trkpt>
      <trkpt lat="45.61921" lon="4.47236">
        <ele>591.82885742188</ele>
        <time>2012-04-09T07:36:13Z</time>
      </trkpt>
      <trkpt lat="45.61959" lon="4.47185">
        <ele>591.34814453125</ele>
        <time>2012-04-09T07:36:19Z</time>
      </trkpt>
      <trkpt lat="45.61979" lon="4.47158">
        <ele>592.3095703125</ele>
        <time>2012-04-09T07:36:23Z</time>
      </trkpt>
      <trkpt lat="45.61997" lon="4.47121">
        <ele>591.34814453125</ele>
        <time>2012-04-09T07:36:27Z</time>
      </trkpt>
      <trkpt lat="45.62023" lon="4.47104">
        <ele>589.42553710938</ele>
        <time>2012-04-09T07:36:31Z</time>
      </trkpt>
      <trkpt lat="45.62042" lon="4.47112">
        <ele>587.50268554688</ele>
        <time>2012-04-09T07:36:34Z</time>
      </trkpt>
      <trkpt lat="45.62059" lon="4.47124">
        <ele>588.46435546875</ele>
        <time>2012-04-09T07:36:38Z</time>
      </trkpt>
      <trkpt lat="45.62079" lon="4.4714">
        <ele>590.86743164062</ele>
        <time>2012-04-09T07:36:43Z</time>
      </trkpt>
      <trkpt lat="45.62105" lon="4.47141">
        <ele>589.42553710938</ele>
        <time>2012-04-09T07:36:47Z</time>
      </trkpt>
      <trkpt lat="45.62132" lon="4.47128">
        <ele>586.06079101562</ele>
        <time>2012-04-09T07:36:51Z</time>
      </trkpt>
      <trkpt lat="45.62148" lon="4.47116">
        <ele>584.61889648438</ele>
        <time>2012-04-09T07:36:54Z</time>
      </trkpt>
      <trkpt lat="45.62161" lon="4.471">
        <ele>582.6962890625</ele>
        <time>2012-04-09T07:36:57Z</time>
      </trkpt>
      <trkpt lat="45.62194" lon="4.47057">
        <ele>577.8896484375</ele>
        <time>2012-04-09T07:37:03Z</time>
      </trkpt>
      <trkpt lat="45.62229" lon="4.47017">
        <ele>572.6025390625</ele>
        <time>2012-04-09T07:37:08Z</time>
      </trkpt>
      <trkpt lat="45.62242" lon="4.47002">
        <ele>570.6796875</ele>
        <time>2012-04-09T07:37:10Z</time>
      </trkpt>
      <trkpt lat="45.62272" lon="4.46972">
        <ele>566.35375976562</ele>
        <time>2012-04-09T07:37:15Z</time>
      </trkpt>
      <trkpt lat="45.62314" lon="4.4694">
        <ele>565.87329101562</ele>
        <time>2012-04-09T07:37:22Z</time>
      </trkpt>
      <trkpt lat="45.62346" lon="4.4691">
        <ele>564.91186523438</ele>
        <time>2012-04-09T07:37:28Z</time>
      </trkpt>
      <trkpt lat="45.62367" lon="4.46883">
        <ele>564.43115234375</ele>
        <time>2012-04-09T07:37:33Z</time>
      </trkpt>
      <trkpt lat="45.62392" lon="4.46842">
        <ele>562.9892578125</ele>
        <time>2012-04-09T07:37:40Z</time>
      </trkpt>
      <trkpt lat="45.62421" lon="4.46794">
        <ele>560.5859375</ele>
        <time>2012-04-09T07:37:48Z</time>
      </trkpt>
      <trkpt lat="45.62439" lon="4.46762">
        <ele>559.14404296875</ele>
        <time>2012-04-09T07:37:53Z</time>
      </trkpt>
      <trkpt lat="45.62446" lon="4.46739">
        <ele>557.22143554688</ele>
        <time>2012-04-09T07:37:57Z</time>
      </trkpt>
      <trkpt lat="45.62447" lon="4.46734">
        <ele>556.26000976562</ele>
        <time>2012-04-09T07:37:58Z</time>
      </trkpt>
      <trkpt lat="45.62452" lon="4.46717">
        <ele>554.33740234375</ele>
        <time>2012-04-09T07:38:02Z</time>
      </trkpt>
      <trkpt lat="45.62457" lon="4.46687">
        <ele>550.97265625</ele>
        <time>2012-04-09T07:38:09Z</time>
      </trkpt>
      <trkpt lat="45.62462" lon="4.46665">
        <ele>547.60815429688</ele>
        <time>2012-04-09T07:38:14Z</time>
      </trkpt>
      <trkpt lat="45.62466" lon="4.46648">
        <ele>545.685546875</ele>
        <time>2012-04-09T07:38:18Z</time>
      </trkpt>
      <trkpt lat="45.62469" lon="4.46628">
        <ele>541.84020996094</ele>
        <time>2012-04-09T07:38:22Z</time>
      </trkpt>
      <trkpt lat="45.62473" lon="4.46603">
        <ele>537.51428222656</ele>
        <time>2012-04-09T07:38:28Z</time>
      </trkpt>
      <trkpt lat="45.62476" lon="4.46588">
        <ele>535.11096191406</ele>
        <time>2012-04-09T07:38:31Z</time>
      </trkpt>
      <trkpt lat="45.62487" lon="4.46559">
        <ele>537.51428222656</ele>
        <time>2012-04-09T07:38:37Z</time>
      </trkpt>
      <trkpt lat="45.62496" lon="4.4654">
        <ele>533.18835449219</ele>
        <time>2012-04-09T07:38:41Z</time>
      </trkpt>
      <trkpt lat="45.62508" lon="4.46524">
        <ele>529.34313964844</ele>
        <time>2012-04-09T07:38:46Z</time>
      </trkpt>
      <trkpt lat="45.62518" lon="4.4651">
        <ele>525.01721191406</ele>
        <time>2012-04-09T07:38:51Z</time>
      </trkpt>
      <trkpt lat="45.62519" lon="4.46507">
        <ele>524.53649902344</ele>
        <time>2012-04-09T07:38:52Z</time>
      </trkpt>
      <trkpt lat="45.62539" lon="4.46496">
        <ele>523.09460449219</ele>
        <time>2012-04-09T07:38:58Z</time>
      </trkpt>
      <trkpt lat="45.62565" lon="4.4649">
        <ele>517.32666015625</ele>
        <time>2012-04-09T07:39:04Z</time>
      </trkpt>
      <trkpt lat="45.6258" lon="4.46485">
        <ele>515.88464355469</ele>
        <time>2012-04-09T07:39:08Z</time>
      </trkpt>
      <trkpt lat="45.62602" lon="4.46488">
        <ele>513.4814453125</ele>
        <time>2012-04-09T07:39:14Z</time>
      </trkpt>
      <trkpt lat="45.62606" lon="4.46485">
        <ele>513.96203613281</ele>
        <time>2012-04-09T07:39:22Z</time>
      </trkpt>
      <trkpt lat="45.62607" lon="4.46484">
        <ele>512.52001953125</ele>
        <time>2012-04-09T07:39:28Z</time>
      </trkpt>
      <trkpt lat="45.62607" lon="4.46484">
        <ele>511.55871582031</ele>
        <time>2012-04-09T07:39:36Z</time>
      </trkpt>
      <trkpt lat="45.62609" lon="4.46484">
        <ele>513.96203613281</ele>
        <time>2012-04-09T07:39:44Z</time>
      </trkpt>
      <trkpt lat="45.62611" lon="4.46484">
        <ele>513.96203613281</ele>
        <time>2012-04-09T07:39:46Z</time>
      </trkpt>
      <trkpt lat="45.62627" lon="4.46481">
        <ele>513.4814453125</ele>
        <time>2012-04-09T07:39:52Z</time>
      </trkpt>
      <trkpt lat="45.62656" lon="4.46473">
        <ele>514.44262695312</ele>
        <time>2012-04-09T07:39:59Z</time>
      </trkpt>
      <trkpt lat="45.62671" lon="4.46464">
        <ele>515.40405273438</ele>
        <time>2012-04-09T07:40:04Z</time>
      </trkpt>
      <trkpt lat="45.62673" lon="4.4646">
        <ele>515.40405273438</ele>
        <time>2012-04-09T07:40:06Z</time>
      </trkpt>
      <trkpt lat="45.62675" lon="4.4644">
        <ele>515.88464355469</ele>
        <time>2012-04-09T07:40:11Z</time>
      </trkpt>
      <trkpt lat="45.62677" lon="4.46431">
        <ele>515.88464355469</ele>
        <time>2012-04-09T07:40:13Z</time>
      </trkpt>
      <trkpt lat="45.62687" lon="4.46394">
        <ele>515.40405273438</ele>
        <time>2012-04-09T07:40:19Z</time>
      </trkpt>
      <trkpt lat="45.62707" lon="4.46345">
        <ele>515.40405273438</ele>
        <time>2012-04-09T07:40:26Z</time>
      </trkpt>
      <trkpt lat="45.62712" lon="4.46332">
        <ele>515.40405273438</ele>
        <time>2012-04-09T07:40:28Z</time>
      </trkpt>
      <trkpt lat="45.62723" lon="4.46299">
        <ele>516.365234375</ele>
        <time>2012-04-09T07:40:33Z</time>
      </trkpt>
      <trkpt lat="45.62726" lon="4.46287">
        <ele>516.84594726562</ele>
        <time>2012-04-09T07:40:35Z</time>
      </trkpt>
      <trkpt lat="45.62728" lon="4.46254">
        <ele>517.32666015625</ele>
        <time>2012-04-09T07:40:40Z</time>
      </trkpt>
      <trkpt lat="45.6272" lon="4.46232">
        <ele>517.32666015625</ele>
        <time>2012-04-09T07:40:44Z</time>
      </trkpt>
      <trkpt lat="45.62692" lon="4.46189">
        <ele>513.96203613281</ele>
        <time>2012-04-09T07:40:51Z</time>
      </trkpt>
      <trkpt lat="45.62666" lon="4.46149">
        <ele>511.07800292969</ele>
        <time>2012-04-09T07:40:56Z</time>
      </trkpt>
      <trkpt lat="45.6264" lon="4.46094">
        <ele>507.71350097656</ele>
        <time>2012-04-09T07:41:02Z</time>
      </trkpt>
      <trkpt lat="45.62627" lon="4.4603">
        <ele>507.23278808594</ele>
        <time>2012-04-09T07:41:08Z</time>
      </trkpt>
      <trkpt lat="45.62623" lon="4.4601">
        <ele>507.71350097656</ele>
        <time>2012-04-09T07:41:10Z</time>
      </trkpt>
      <trkpt lat="45.62603" lon="4.45962">
        <ele>508.19409179688</ele>
        <time>2012-04-09T07:41:16Z</time>
      </trkpt>
      <trkpt lat="45.62593" lon="4.4594">
        <ele>508.19409179688</ele>
        <time>2012-04-09T07:41:19Z</time>
      </trkpt>
      <trkpt lat="45.62582" lon="4.45867">
        <ele>507.71350097656</ele>
        <time>2012-04-09T07:41:28Z</time>
      </trkpt>
      <trkpt lat="45.62582" lon="4.4585">
        <ele>507.23278808594</ele>
        <time>2012-04-09T07:41:30Z</time>
      </trkpt>
      <trkpt lat="45.62589" lon="4.45811">
        <ele>506.271484375</ele>
        <time>2012-04-09T07:41:35Z</time>
      </trkpt>
      <trkpt lat="45.62592" lon="4.45804">
        <ele>506.271484375</ele>
        <time>2012-04-09T07:41:36Z</time>
      </trkpt>
      <trkpt lat="45.62604" lon="4.45779">
        <ele>505.31018066406</ele>
        <time>2012-04-09T07:41:40Z</time>
      </trkpt>
      <trkpt lat="45.62605" lon="4.45752">
        <ele>505.31018066406</ele>
        <time>2012-04-09T07:41:44Z</time>
      </trkpt>
      <trkpt lat="45.62597" lon="4.45735">
        <ele>505.31018066406</ele>
        <time>2012-04-09T07:41:47Z</time>
      </trkpt>
      <trkpt lat="45.62599" lon="4.45722">
        <ele>505.31018066406</ele>
        <time>2012-04-09T07:41:49Z</time>
      </trkpt>
      <trkpt lat="45.62609" lon="4.45697">
        <ele>504.34887695312</ele>
        <time>2012-04-09T07:41:53Z</time>
      </trkpt>
      <trkpt lat="45.62629" lon="4.45635">
        <ele>503.38745117188</ele>
        <time>2012-04-09T07:42:02Z</time>
      </trkpt>
      <trkpt lat="45.62642" lon="4.45587">
        <ele>503.8681640625</ele>
        <time>2012-04-09T07:42:09Z</time>
      </trkpt>
      <trkpt lat="45.62647" lon="4.45554">
        <ele>503.38745117188</ele>
        <time>2012-04-09T07:42:14Z</time>
      </trkpt>
      <trkpt lat="45.62647" lon="4.4554">
        <ele>502.90673828125</ele>
        <time>2012-04-09T07:42:16Z</time>
      </trkpt>
      <trkpt lat="45.62638" lon="4.45494">
        <ele>503.38745117188</ele>
        <time>2012-04-09T07:42:23Z</time>
      </trkpt>
      <trkpt lat="45.62627" lon="4.45476">
        <ele>501.94555664062</ele>
        <time>2012-04-09T07:42:27Z</time>
      </trkpt>
      <trkpt lat="45.62617" lon="4.45454">
        <ele>501.94555664062</ele>
        <time>2012-04-09T07:42:31Z</time>
      </trkpt>
      <trkpt lat="45.6261" lon="4.45445">
        <ele>501.94555664062</ele>
        <time>2012-04-09T07:42:33Z</time>
      </trkpt>
      <trkpt lat="45.62585" lon="4.45412">
        <ele>502.42614746094</ele>
        <time>2012-04-09T07:42:40Z</time>
      </trkpt>
      <trkpt lat="45.62579" lon="4.45402">
        <ele>502.90673828125</ele>
        <time>2012-04-09T07:42:42Z</time>
      </trkpt>
      <trkpt lat="45.62568" lon="4.4537">
        <ele>503.8681640625</ele>
        <time>2012-04-09T07:42:48Z</time>
      </trkpt>
      <trkpt lat="45.62547" lon="4.45322">
        <ele>504.82946777344</ele>
        <time>2012-04-09T07:42:57Z</time>
      </trkpt>
      <trkpt lat="45.62545" lon="4.45317">
        <ele>504.34887695312</ele>
        <time>2012-04-09T07:42:58Z</time>
      </trkpt>
      <trkpt lat="45.62534" lon="4.45298">
        <ele>502.90673828125</ele>
        <time>2012-04-09T07:43:03Z</time>
      </trkpt>
      <trkpt lat="45.62528" lon="4.45268">
        <ele>501.46484375</ele>
        <time>2012-04-09T07:43:09Z</time>
      </trkpt>
      <trkpt lat="45.6253" lon="4.45236">
        <ele>500.50354003906</ele>
        <time>2012-04-09T07:43:15Z</time>
      </trkpt>
      <trkpt lat="45.6254" lon="4.4522">
        <ele>499.54223632812</ele>
        <time>2012-04-09T07:43:19Z</time>
      </trkpt>
      <trkpt lat="45.62545" lon="4.45211">
        <ele>500.98413085938</ele>
        <time>2012-04-09T07:43:23Z</time>
      </trkpt>
      <trkpt lat="45.62548" lon="4.45208">
        <ele>500.98413085938</ele>
        <time>2012-04-09T07:43:30Z</time>
      </trkpt>
      <trkpt lat="45.6255" lon="4.45205">
        <ele>501.46484375</ele>
        <time>2012-04-09T07:43:32Z</time>
      </trkpt>
      <trkpt lat="45.62551" lon="4.45196">
        <ele>501.46484375</ele>
        <time>2012-04-09T07:43:36Z</time>
      </trkpt>
      <trkpt lat="45.62554" lon="4.45186">
        <ele>502.42614746094</ele>
        <time>2012-04-09T07:43:41Z</time>
      </trkpt>
      <trkpt lat="45.62554" lon="4.45166">
        <ele>501.94555664062</ele>
        <time>2012-04-09T07:43:48Z</time>
      </trkpt>
      <trkpt lat="45.62551" lon="4.45144">
        <ele>500.02294921875</ele>
        <time>2012-04-09T07:43:54Z</time>
      </trkpt>
      <trkpt lat="45.62545" lon="4.45115">
        <ele>497.13891601562</ele>
        <time>2012-04-09T07:44:01Z</time>
      </trkpt>
      <trkpt lat="45.62534" lon="4.4509">
        <ele>496.177734375</ele>
        <time>2012-04-09T07:44:07Z</time>
      </trkpt>
      <trkpt lat="45.6252" lon="4.45059">
        <ele>494.73559570312</ele>
        <time>2012-04-09T07:44:14Z</time>
      </trkpt>
      <trkpt lat="45.62508" lon="4.45023">
        <ele>494.25500488281</ele>
        <time>2012-04-09T07:44:22Z</time>
      </trkpt>
      <trkpt lat="45.625" lon="4.44992">
        <ele>497.13891601562</ele>
        <time>2012-04-09T07:44:30Z</time>
      </trkpt>
      <trkpt lat="45.62489" lon="4.44977">
        <ele>497.61962890625</ele>
        <time>2012-04-09T07:44:36Z</time>
      </trkpt>
      <trkpt lat="45.62476" lon="4.44959">
        <ele>499.0615234375</ele>
        <time>2012-04-09T07:44:43Z</time>
      </trkpt>
      <trkpt lat="45.62455" lon="4.4494">
        <ele>503.38745117188</ele>
        <time>2012-04-09T07:44:51Z</time>
      </trkpt>
      <trkpt lat="45.62438" lon="4.44927">
        <ele>507.71350097656</ele>
        <time>2012-04-09T07:44:58Z</time>
      </trkpt>
      <trkpt lat="45.62424" lon="4.44915">
        <ele>507.23278808594</ele>
        <time>2012-04-09T07:45:04Z</time>
      </trkpt>
      <trkpt lat="45.62407" lon="4.44901">
        <ele>508.19409179688</ele>
        <time>2012-04-09T07:45:11Z</time>
      </trkpt>
      <trkpt lat="45.62392" lon="4.44888">
        <ele>509.63610839844</ele>
        <time>2012-04-09T07:45:18Z</time>
      </trkpt>
      <trkpt lat="45.62378" lon="4.44876">
        <ele>510.11669921875</ele>
        <time>2012-04-09T07:45:25Z</time>
      </trkpt>
      <trkpt lat="45.62364" lon="4.44865">
        <ele>514.92333984375</ele>
        <time>2012-04-09T07:45:32Z</time>
      </trkpt>
      <trkpt lat="45.62357" lon="4.44848">
        <ele>517.80725097656</ele>
        <time>2012-04-09T07:45:38Z</time>
      </trkpt>
      <trkpt lat="45.62361" lon="4.44832">
        <ele>519.24926757812</ele>
        <time>2012-04-09T07:45:44Z</time>
      </trkpt>
      <trkpt lat="45.62361" lon="4.44811">
        <ele>517.80725097656</ele>
        <time>2012-04-09T07:45:49Z</time>
      </trkpt>
      <trkpt lat="45.62364" lon="4.44776">
        <ele>515.40405273438</ele>
        <time>2012-04-09T07:45:54Z</time>
      </trkpt>
      <trkpt lat="45.62379" lon="4.44727">
        <ele>513.00073242188</ele>
        <time>2012-04-09T07:46:00Z</time>
      </trkpt>
      <trkpt lat="45.62399" lon="4.44659">
        <ele>509.63610839844</ele>
        <time>2012-04-09T07:46:07Z</time>
      </trkpt>
      <trkpt lat="45.62413" lon="4.44646">
        <ele>508.19409179688</ele>
        <time>2012-04-09T07:46:11Z</time>
      </trkpt>
      <trkpt lat="45.62448" lon="4.44648">
        <ele>506.271484375</ele>
        <time>2012-04-09T07:46:22Z</time>
      </trkpt>
      <trkpt lat="45.6247" lon="4.44652">
        <ele>507.23278808594</ele>
        <time>2012-04-09T07:46:30Z</time>
      </trkpt>
      <trkpt lat="45.62491" lon="4.44652">
        <ele>509.15539550781</ele>
        <time>2012-04-09T07:46:38Z</time>
      </trkpt>
      <trkpt lat="45.62513" lon="4.44646">
        <ele>510.59729003906</ele>
        <time>2012-04-09T07:46:46Z</time>
      </trkpt>
      <trkpt lat="45.62535" lon="4.44645">
        <ele>513.00073242188</ele>
        <time>2012-04-09T07:46:54Z</time>
      </trkpt>
      <trkpt lat="45.62552" lon="4.44649">
        <ele>514.92333984375</ele>
        <time>2012-04-09T07:47:00Z</time>
      </trkpt>
      <trkpt lat="45.62569" lon="4.4466">
        <ele>516.84594726562</ele>
        <time>2012-04-09T07:47:07Z</time>
      </trkpt>
      <trkpt lat="45.62582" lon="4.44671">
        <ele>516.84594726562</ele>
        <time>2012-04-09T07:47:13Z</time>
      </trkpt>
      <trkpt lat="45.62595" lon="4.44686">
        <ele>515.88464355469</ele>
        <time>2012-04-09T07:47:19Z</time>
      </trkpt>
      <trkpt lat="45.62612" lon="4.44711">
        <ele>518.7685546875</ele>
        <time>2012-04-09T07:47:28Z</time>
      </trkpt>
      <trkpt lat="45.62623" lon="4.44725">
        <ele>520.69128417969</ele>
        <time>2012-04-09T07:47:34Z</time>
      </trkpt>
      <trkpt lat="45.62635" lon="4.44737">
        <ele>521.17199707031</ele>
        <time>2012-04-09T07:47:40Z</time>
      </trkpt>
      <trkpt lat="45.62648" lon="4.44758">
        <ele>521.65258789062</ele>
        <time>2012-04-09T07:47:48Z</time>
      </trkpt>
      <trkpt lat="45.62662" lon="4.44777">
        <ele>524.05578613281</ele>
        <time>2012-04-09T07:47:56Z</time>
      </trkpt>
      <trkpt lat="45.62676" lon="4.44795">
        <ele>525.49780273438</ele>
        <time>2012-04-09T07:48:03Z</time>
      </trkpt>
      <trkpt lat="45.62688" lon="4.44809">
        <ele>525.49780273438</ele>
        <time>2012-04-09T07:48:09Z</time>
      </trkpt>
      <trkpt lat="45.627" lon="4.44821">
        <ele>527.42041015625</ele>
        <time>2012-04-09T07:48:15Z</time>
      </trkpt>
      <trkpt lat="45.62714" lon="4.4483">
        <ele>529.34313964844</ele>
        <time>2012-04-09T07:48:21Z</time>
      </trkpt>
      <trkpt lat="45.62725" lon="4.44839">
        <ele>528.3818359375</ele>
        <time>2012-04-09T07:48:27Z</time>
      </trkpt>
      <trkpt lat="45.6274" lon="4.44841">
        <ele>532.70776367188</ele>
        <time>2012-04-09T07:48:33Z</time>
      </trkpt>
      <trkpt lat="45.62745" lon="4.44843">
        <ele>533.18835449219</ele>
        <time>2012-04-09T07:48:35Z</time>
      </trkpt>
      <trkpt lat="45.62754" lon="4.44843">
        <ele>535.11096191406</ele>
        <time>2012-04-09T07:48:39Z</time>
      </trkpt>
      <trkpt lat="45.62771" lon="4.44839">
        <ele>534.14965820312</ele>
        <time>2012-04-09T07:48:46Z</time>
      </trkpt>
      <trkpt lat="45.62785" lon="4.44832">
        <ele>536.55310058594</ele>
        <time>2012-04-09T07:48:52Z</time>
      </trkpt>
      <trkpt lat="45.62801" lon="4.44819">
        <ele>536.55310058594</ele>
        <time>2012-04-09T07:48:59Z</time>
      </trkpt>
      <trkpt lat="45.62818" lon="4.44807">
        <ele>536.07238769531</ele>
        <time>2012-04-09T07:49:06Z</time>
      </trkpt>
      <trkpt lat="45.62831" lon="4.44809">
        <ele>534.63037109375</ele>
        <time>2012-04-09T07:49:11Z</time>
      </trkpt>
      <trkpt lat="45.62848" lon="4.44827">
        <ele>532.22705078125</ele>
        <time>2012-04-09T07:49:20Z</time>
      </trkpt>
      <trkpt lat="45.62857" lon="4.4485">
        <ele>531.74633789062</ele>
        <time>2012-04-09T07:49:29Z</time>
      </trkpt>
      <trkpt lat="45.62861" lon="4.44867">
        <ele>532.70776367188</ele>
        <time>2012-04-09T07:49:35Z</time>
      </trkpt>
      <trkpt lat="45.62864" lon="4.44889">
        <ele>533.18835449219</ele>
        <time>2012-04-09T07:49:42Z</time>
      </trkpt>
      <trkpt lat="45.62867" lon="4.4491">
        <ele>534.14965820312</ele>
        <time>2012-04-09T07:49:49Z</time>
      </trkpt>
      <trkpt lat="45.62867" lon="4.44931">
        <ele>534.63037109375</ele>
        <time>2012-04-09T07:49:56Z</time>
      </trkpt>
      <trkpt lat="45.62868" lon="4.44954">
        <ele>537.03369140625</ele>
        <time>2012-04-09T07:50:03Z</time>
      </trkpt>
      <trkpt lat="45.62872" lon="4.44982">
        <ele>538.47570800781</ele>
        <time>2012-04-09T07:50:12Z</time>
      </trkpt>
      <trkpt lat="45.6288" lon="4.45005">
        <ele>538.47570800781</ele>
        <time>2012-04-09T07:50:20Z</time>
      </trkpt>
      <trkpt lat="45.62886" lon="4.45019">
        <ele>540.39831542969</ele>
        <time>2012-04-09T07:50:25Z</time>
      </trkpt>
      <trkpt lat="45.62894" lon="4.45032">
        <ele>541.84020996094</ele>
        <time>2012-04-09T07:50:30Z</time>
      </trkpt>
      <trkpt lat="45.62911" lon="4.45049">
        <ele>542.80151367188</ele>
        <time>2012-04-09T07:50:37Z</time>
      </trkpt>
      <trkpt lat="45.62926" lon="4.45063">
        <ele>543.28210449219</ele>
        <time>2012-04-09T07:50:43Z</time>
      </trkpt>
      <trkpt lat="45.62946" lon="4.45078">
        <ele>546.16625976562</ele>
        <time>2012-04-09T07:50:52Z</time>
      </trkpt>
      <trkpt lat="45.62959" lon="4.45085">
        <ele>547.12744140625</ele>
        <time>2012-04-09T07:50:58Z</time>
      </trkpt>
      <trkpt lat="45.62968" lon="4.45098">
        <ele>545.685546875</ele>
        <time>2012-04-09T07:51:04Z</time>
      </trkpt>
      <trkpt lat="45.62977" lon="4.4512">
        <ele>543.76281738281</ele>
        <time>2012-04-09T07:51:12Z</time>
      </trkpt>
      <trkpt lat="45.62983" lon="4.45139">
        <ele>543.28210449219</ele>
        <time>2012-04-09T07:51:19Z</time>
      </trkpt>
      <trkpt lat="45.6299" lon="4.4516">
        <ele>542.80151367188</ele>
        <time>2012-04-09T07:51:26Z</time>
      </trkpt>
      <trkpt lat="45.62998" lon="4.45177">
        <ele>544.24365234375</ele>
        <time>2012-04-09T07:51:32Z</time>
      </trkpt>
      <trkpt lat="45.63005" lon="4.45187">
        <ele>544.72424316406</ele>
        <time>2012-04-09T07:51:37Z</time>
      </trkpt>
      <trkpt lat="45.63015" lon="4.452">
        <ele>546.16625976562</ele>
        <time>2012-04-09T07:51:44Z</time>
      </trkpt>
      <trkpt lat="45.63028" lon="4.45215">
        <ele>545.20483398438</ele>
        <time>2012-04-09T07:51:51Z</time>
      </trkpt>
      <trkpt lat="45.63037" lon="4.45228">
        <ele>545.20483398438</ele>
        <time>2012-04-09T07:51:57Z</time>
      </trkpt>
      <trkpt lat="45.6305" lon="4.45242">
        <ele>549.05004882812</ele>
        <time>2012-04-09T07:52:05Z</time>
      </trkpt>
      <trkpt lat="45.63066" lon="4.45251">
        <ele>552.89526367188</ele>
        <time>2012-04-09T07:52:14Z</time>
      </trkpt>
      <trkpt lat="45.63079" lon="4.45256">
        <ele>554.33740234375</ele>
        <time>2012-04-09T07:52:22Z</time>
      </trkpt>
      <trkpt lat="45.6309" lon="4.45263">
        <ele>555.29858398438</ele>
        <time>2012-04-09T07:52:29Z</time>
      </trkpt>
      <trkpt lat="45.63102" lon="4.45272">
        <ele>556.26000976562</ele>
        <time>2012-04-09T07:52:37Z</time>
      </trkpt>
      <trkpt lat="45.63112" lon="4.45281">
        <ele>560.10522460938</ele>
        <time>2012-04-09T07:52:45Z</time>
      </trkpt>
      <trkpt lat="45.63111" lon="4.45286">
        <ele>561.06665039062</ele>
        <time>2012-04-09T07:52:50Z</time>
      </trkpt>
      <trkpt lat="45.6311" lon="4.45284">
        <ele>561.06665039062</ele>
        <time>2012-04-09T07:52:54Z</time>
      </trkpt>
      <trkpt lat="45.63111" lon="4.45282">
        <ele>561.06665039062</ele>
        <time>2012-04-09T07:52:55Z</time>
      </trkpt>
      <trkpt lat="45.63117" lon="4.45275">
        <ele>559.62475585938</ele>
        <time>2012-04-09T07:53:01Z</time>
      </trkpt>
      <trkpt lat="45.63119" lon="4.45275">
        <ele>560.10522460938</ele>
        <time>2012-04-09T07:53:08Z</time>
      </trkpt>
      <trkpt lat="45.6312" lon="4.45277">
        <ele>563.95043945312</ele>
        <time>2012-04-09T07:53:27Z</time>
      </trkpt>
      <trkpt lat="45.6312" lon="4.45277">
        <ele>567.79565429688</ele>
        <time>2012-04-09T07:54:34Z</time>
      </trkpt>
      <trkpt lat="45.63122" lon="4.45273">
        <ele>570.19897460938</ele>
        <time>2012-04-09T07:54:54Z</time>
      </trkpt>
      <trkpt lat="45.63133" lon="4.45259">
        <ele>567.79565429688</ele>
        <time>2012-04-09T07:54:58Z</time>
      </trkpt>
      <trkpt lat="45.63153" lon="4.45243">
        <ele>563.46997070312</ele>
        <time>2012-04-09T07:55:02Z</time>
      </trkpt>
      <trkpt lat="45.63173" lon="4.45217">
        <ele>559.62475585938</ele>
        <time>2012-04-09T07:55:06Z</time>
      </trkpt>
      <trkpt lat="45.63183" lon="4.45183">
        <ele>557.7021484375</ele>
        <time>2012-04-09T07:55:10Z</time>
      </trkpt>
      <trkpt lat="45.63187" lon="4.45128">
        <ele>554.33740234375</ele>
        <time>2012-04-09T07:55:16Z</time>
      </trkpt>
      <trkpt lat="45.63187" lon="4.45119">
        <ele>553.3759765625</ele>
        <time>2012-04-09T07:55:18Z</time>
      </trkpt>
      <trkpt lat="45.63186" lon="4.45104">
        <ele>552.41455078125</ele>
        <time>2012-04-09T07:55:22Z</time>
      </trkpt>
      <trkpt lat="45.63189" lon="4.45092">
        <ele>552.89526367188</ele>
        <time>2012-04-09T07:55:28Z</time>
      </trkpt>
      <trkpt lat="45.63192" lon="4.4509">
        <ele>553.3759765625</ele>
        <time>2012-04-09T07:55:30Z</time>
      </trkpt>
      <trkpt lat="45.63205" lon="4.4508">
        <ele>557.22143554688</ele>
        <time>2012-04-09T07:55:37Z</time>
      </trkpt>
      <trkpt lat="45.63214" lon="4.45069">
        <ele>562.02807617188</ele>
        <time>2012-04-09T07:55:44Z</time>
      </trkpt>
      <trkpt lat="45.63224" lon="4.45062">
        <ele>567.31518554688</ele>
        <time>2012-04-09T07:55:51Z</time>
      </trkpt>
      <trkpt lat="45.63235" lon="4.45063">
        <ele>568.75708007812</ele>
        <time>2012-04-09T07:55:57Z</time>
      </trkpt>
      <trkpt lat="45.6324" lon="4.45063">
        <ele>568.75708007812</ele>
        <time>2012-04-09T07:56:02Z</time>
      </trkpt>
      <trkpt lat="45.63243" lon="4.45065">
        <ele>567.79565429688</ele>
        <time>2012-04-09T07:56:08Z</time>
      </trkpt>
      <trkpt lat="45.6325" lon="4.45067">
        <ele>569.23779296875</ele>
        <time>2012-04-09T07:56:15Z</time>
      </trkpt>
      <trkpt lat="45.63256" lon="4.4507">
        <ele>570.6796875</ele>
        <time>2012-04-09T07:56:22Z</time>
      </trkpt>
      <trkpt lat="45.63261" lon="4.45068">
        <ele>570.6796875</ele>
        <time>2012-04-09T07:56:29Z</time>
      </trkpt>
      <trkpt lat="45.63262" lon="4.45066">
        <ele>570.19897460938</ele>
        <time>2012-04-09T07:56:35Z</time>
      </trkpt>
      <trkpt lat="45.63262" lon="4.45066">
        <ele>570.19897460938</ele>
        <time>2012-04-09T07:56:37Z</time>
      </trkpt>
      <trkpt lat="45.63265" lon="4.45057">
        <ele>569.71850585938</ele>
        <time>2012-04-09T07:56:42Z</time>
      </trkpt>
      <trkpt lat="45.63261" lon="4.45024">
        <ele>571.64086914062</ele>
        <time>2012-04-09T07:56:51Z</time>
      </trkpt>
      <trkpt lat="45.63262" lon="4.44999">
        <ele>574.52514648438</ele>
        <time>2012-04-09T07:56:58Z</time>
      </trkpt>
      <trkpt lat="45.63266" lon="4.44964">
        <ele>576.44775390625</ele>
        <time>2012-04-09T07:57:08Z</time>
      </trkpt>
      <trkpt lat="45.63269" lon="4.44934">
        <ele>577.8896484375</ele>
        <time>2012-04-09T07:57:17Z</time>
      </trkpt>
      <trkpt lat="45.63273" lon="4.44903">
        <ele>580.77368164062</ele>
        <time>2012-04-09T07:57:27Z</time>
      </trkpt>
      <trkpt lat="45.6328" lon="4.44867">
        <ele>584.13818359375</ele>
        <time>2012-04-09T07:57:40Z</time>
      </trkpt>
      <trkpt lat="45.63288" lon="4.44847">
        <ele>586.06079101562</ele>
        <time>2012-04-09T07:57:48Z</time>
      </trkpt>
      <trkpt lat="45.63297" lon="4.44833">
        <ele>587.9833984375</ele>
        <time>2012-04-09T07:57:54Z</time>
      </trkpt>
      <trkpt lat="45.63311" lon="4.44824">
        <ele>589.90625</ele>
        <time>2012-04-09T07:58:01Z</time>
      </trkpt>
      <trkpt lat="45.63326" lon="4.44821">
        <ele>591.82885742188</ele>
        <time>2012-04-09T07:58:08Z</time>
      </trkpt>
      <trkpt lat="45.63346" lon="4.44815">
        <ele>594.23217773438</ele>
        <time>2012-04-09T07:58:17Z</time>
      </trkpt>
      <trkpt lat="45.63365" lon="4.44806">
        <ele>595.67407226562</ele>
        <time>2012-04-09T07:58:26Z</time>
      </trkpt>
      <trkpt lat="45.63383" lon="4.44796">
        <ele>597.5966796875</ele>
        <time>2012-04-09T07:58:35Z</time>
      </trkpt>
      <trkpt lat="45.63407" lon="4.44784">
        <ele>600</ele>
        <time>2012-04-09T07:58:46Z</time>
      </trkpt>
      <trkpt lat="45.63427" lon="4.44773">
        <ele>601.92260742188</ele>
        <time>2012-04-09T07:58:56Z</time>
      </trkpt>
      <trkpt lat="45.63445" lon="4.44765">
        <ele>603.84521484375</ele>
        <time>2012-04-09T07:59:05Z</time>
      </trkpt>
      <trkpt lat="45.63465" lon="4.44752">
        <ele>606.24853515625</ele>
        <time>2012-04-09T07:59:15Z</time>
      </trkpt>
      <trkpt lat="45.63484" lon="4.44741">
        <ele>608.65185546875</ele>
        <time>2012-04-09T07:59:24Z</time>
      </trkpt>
      <trkpt lat="45.63509" lon="4.44729">
        <ele>611.53588867188</ele>
        <time>2012-04-09T07:59:36Z</time>
      </trkpt>
      <trkpt lat="45.63526" lon="4.44719">
        <ele>613.45849609375</ele>
        <time>2012-04-09T07:59:44Z</time>
      </trkpt>
      <trkpt lat="45.63541" lon="4.44712">
        <ele>615.86181640625</ele>
        <time>2012-04-09T07:59:51Z</time>
      </trkpt>
      <trkpt lat="45.63562" lon="4.44702">
        <ele>617.7841796875</ele>
        <time>2012-04-09T08:00:01Z</time>
      </trkpt>
      <trkpt lat="45.63575" lon="4.44694">
        <ele>618.74560546875</ele>
        <time>2012-04-09T08:00:07Z</time>
      </trkpt>
      <trkpt lat="45.63596" lon="4.44682">
        <ele>621.14916992188</ele>
        <time>2012-04-09T08:00:17Z</time>
      </trkpt>
      <trkpt lat="45.63606" lon="4.44689">
        <ele>622.1103515625</ele>
        <time>2012-04-09T08:00:22Z</time>
      </trkpt>
      <trkpt lat="45.63613" lon="4.44708">
        <ele>623.07177734375</ele>
        <time>2012-04-09T08:00:28Z</time>
      </trkpt>
      <trkpt lat="45.63628" lon="4.4472">
        <ele>624.03295898438</ele>
        <time>2012-04-09T08:00:35Z</time>
      </trkpt>
      <trkpt lat="45.63649" lon="4.4472">
        <ele>624.513671875</ele>
        <time>2012-04-09T08:00:44Z</time>
      </trkpt>
      <trkpt lat="45.63672" lon="4.44715">
        <ele>624.99438476562</ele>
        <time>2012-04-09T08:00:54Z</time>
      </trkpt>
      <trkpt lat="45.63687" lon="4.44709">
        <ele>624.99438476562</ele>
        <time>2012-04-09T08:01:02Z</time>
      </trkpt>
      <trkpt lat="45.63696" lon="4.447">
        <ele>624.99438476562</ele>
        <time>2012-04-09T08:01:09Z</time>
      </trkpt>
      <trkpt lat="45.63707" lon="4.4469">
        <ele>624.99438476562</ele>
        <time>2012-04-09T08:01:15Z</time>
      </trkpt>
      <trkpt lat="45.63724" lon="4.44673">
        <ele>624.03295898438</ele>
        <time>2012-04-09T08:01:21Z</time>
      </trkpt>
      <trkpt lat="45.63732" lon="4.4465">
        <ele>622.1103515625</ele>
        <time>2012-04-09T08:01:25Z</time>
      </trkpt>
      <trkpt lat="45.63736" lon="4.44643">
        <ele>621.62963867188</ele>
        <time>2012-04-09T08:01:26Z</time>
      </trkpt>
      <trkpt lat="45.63768" lon="4.44602">
        <ele>616.34228515625</ele>
        <time>2012-04-09T08:01:32Z</time>
      </trkpt>
      <trkpt lat="45.63792" lon="4.44572">
        <ele>612.4970703125</ele>
        <time>2012-04-09T08:01:36Z</time>
      </trkpt>
      <trkpt lat="45.63802" lon="4.44553">
        <ele>610.57446289062</ele>
        <time>2012-04-09T08:01:38Z</time>
      </trkpt>
      <trkpt lat="45.63818" lon="4.4453">
        <ele>608.17138671875</ele>
        <time>2012-04-09T08:01:42Z</time>
      </trkpt>
      <trkpt lat="45.63832" lon="4.44522">
        <ele>607.2099609375</ele>
        <time>2012-04-09T08:01:45Z</time>
      </trkpt>
      <trkpt lat="45.6387" lon="4.44508">
        <ele>606.72924804688</ele>
        <time>2012-04-09T08:01:54Z</time>
      </trkpt>
      <trkpt lat="45.63893" lon="4.44499">
        <ele>606.72924804688</ele>
        <time>2012-04-09T08:02:01Z</time>
      </trkpt>
      <trkpt lat="45.63909" lon="4.44483">
        <ele>605.28735351562</ele>
        <time>2012-04-09T08:02:06Z</time>
      </trkpt>
      <trkpt lat="45.63908" lon="4.44453">
        <ele>603.36450195312</ele>
        <time>2012-04-09T08:02:10Z</time>
      </trkpt>
      <trkpt lat="45.63898" lon="4.44393">
        <ele>597.5966796875</ele>
        <time>2012-04-09T08:02:16Z</time>
      </trkpt>
      <trkpt lat="45.63905" lon="4.44353">
        <ele>594.23217773438</ele>
        <time>2012-04-09T08:02:20Z</time>
      </trkpt>
      <trkpt lat="45.63909" lon="4.44344">
        <ele>593.27075195312</ele>
        <time>2012-04-09T08:02:21Z</time>
      </trkpt>
      <trkpt lat="45.63935" lon="4.443">
        <ele>590.38696289062</ele>
        <time>2012-04-09T08:02:26Z</time>
      </trkpt>
      <trkpt lat="45.63942" lon="4.44262">
        <ele>588.94506835938</ele>
        <time>2012-04-09T08:02:30Z</time>
      </trkpt>
      <trkpt lat="45.63941" lon="4.44253">
        <ele>588.94506835938</ele>
        <time>2012-04-09T08:02:31Z</time>
      </trkpt>
      <trkpt lat="45.63936" lon="4.44199">
        <ele>587.50268554688</ele>
        <time>2012-04-09T08:02:38Z</time>
      </trkpt>
      <trkpt lat="45.63935" lon="4.44186">
        <ele>587.02197265625</ele>
        <time>2012-04-09T08:02:40Z</time>
      </trkpt>
      <trkpt lat="45.63936" lon="4.44173">
        <ele>587.02197265625</ele>
        <time>2012-04-09T08:02:42Z</time>
      </trkpt>
      <trkpt lat="45.63941" lon="4.44157">
        <ele>587.50268554688</ele>
        <time>2012-04-09T08:02:45Z</time>
      </trkpt>
      <trkpt lat="45.63954" lon="4.44119">
        <ele>589.42553710938</ele>
        <time>2012-04-09T08:02:54Z</time>
      </trkpt>
      <trkpt lat="45.63971" lon="4.44081">
        <ele>591.82885742188</ele>
        <time>2012-04-09T08:03:04Z</time>
      </trkpt>
      <trkpt lat="45.63979" lon="4.44064">
        <ele>592.79028320312</ele>
        <time>2012-04-09T08:03:10Z</time>
      </trkpt>
      <trkpt lat="45.63987" lon="4.44036">
        <ele>594.71264648438</ele>
        <time>2012-04-09T08:03:18Z</time>
      </trkpt>
      <trkpt lat="45.63991" lon="4.4401">
        <ele>597.11596679688</ele>
        <time>2012-04-09T08:03:26Z</time>
      </trkpt>
      <trkpt lat="45.63993" lon="4.43994">
        <ele>598.55786132812</ele>
        <time>2012-04-09T08:03:31Z</time>
      </trkpt>
      <trkpt lat="45.63995" lon="4.4397">
        <ele>600.96118164062</ele>
        <time>2012-04-09T08:03:39Z</time>
      </trkpt>
      <trkpt lat="45.63993" lon="4.43935">
        <ele>602.40307617188</ele>
        <time>2012-04-09T08:03:50Z</time>
      </trkpt>
      <trkpt lat="45.63989" lon="4.43906">
        <ele>603.84521484375</ele>
        <time>2012-04-09T08:03:59Z</time>
      </trkpt>
      <trkpt lat="45.63988" lon="4.43879">
        <ele>603.84521484375</ele>
        <time>2012-04-09T08:04:07Z</time>
      </trkpt>
      <trkpt lat="45.63993" lon="4.43849">
        <ele>604.806640625</ele>
        <time>2012-04-09T08:04:16Z</time>
      </trkpt>
      <trkpt lat="45.63998" lon="4.43819">
        <ele>605.76806640625</ele>
        <time>2012-04-09T08:04:26Z</time>
      </trkpt>
      <trkpt lat="45.64006" lon="4.43782">
        <ele>607.2099609375</ele>
        <time>2012-04-09T08:04:38Z</time>
      </trkpt>
      <trkpt lat="45.64016" lon="4.43745">
        <ele>608.65185546875</ele>
        <time>2012-04-09T08:04:49Z</time>
      </trkpt>
      <trkpt lat="45.64026" lon="4.43718">
        <ele>609.13256835938</ele>
        <time>2012-04-09T08:04:57Z</time>
      </trkpt>
      <trkpt lat="45.64043" lon="4.43685">
        <ele>609.13256835938</ele>
        <time>2012-04-09T08:05:06Z</time>
      </trkpt>
      <trkpt lat="45.64059" lon="4.43652">
        <ele>608.17138671875</ele>
        <time>2012-04-09T08:05:14Z</time>
      </trkpt>
      <trkpt lat="45.64076" lon="4.43615">
        <ele>607.69067382812</ele>
        <time>2012-04-09T08:05:23Z</time>
      </trkpt>
      <trkpt lat="45.6409" lon="4.43581">
        <ele>606.72924804688</ele>
        <time>2012-04-09T08:05:31Z</time>
      </trkpt>
      <trkpt lat="45.64103" lon="4.43552">
        <ele>604.806640625</ele>
        <time>2012-04-09T08:05:37Z</time>
      </trkpt>
      <trkpt lat="45.64125" lon="4.43523">
        <ele>601.44189453125</ele>
        <time>2012-04-09T08:05:42Z</time>
      </trkpt>
      <trkpt lat="45.64148" lon="4.43497">
        <ele>598.55786132812</ele>
        <time>2012-04-09T08:05:46Z</time>
      </trkpt>
      <trkpt lat="45.6416" lon="4.43463">
        <ele>596.15478515625</ele>
        <time>2012-04-09T08:05:50Z</time>
      </trkpt>
      <trkpt lat="45.64163" lon="4.43442">
        <ele>595.193359375</ele>
        <time>2012-04-09T08:05:52Z</time>
      </trkpt>
      <trkpt lat="45.64163" lon="4.43408">
        <ele>594.71264648438</ele>
        <time>2012-04-09T08:05:56Z</time>
      </trkpt>
      <trkpt lat="45.6417" lon="4.43396">
        <ele>595.193359375</ele>
        <time>2012-04-09T08:05:59Z</time>
      </trkpt>
      <trkpt lat="45.64185" lon="4.43371">
        <ele>598.07739257812</ele>
        <time>2012-04-09T08:06:07Z</time>
      </trkpt>
      <trkpt lat="45.6419" lon="4.43342">
        <ele>599.51928710938</ele>
        <time>2012-04-09T08:06:14Z</time>
      </trkpt>
      <trkpt lat="45.64198" lon="4.43305">
        <ele>601.44189453125</ele>
        <time>2012-04-09T08:06:24Z</time>
      </trkpt>
      <trkpt lat="45.64207" lon="4.43276">
        <ele>604.326171875</ele>
        <time>2012-04-09T08:06:33Z</time>
      </trkpt>
      <trkpt lat="45.64217" lon="4.43255">
        <ele>606.24853515625</ele>
        <time>2012-04-09T08:06:41Z</time>
      </trkpt>
      <trkpt lat="45.64228" lon="4.4324">
        <ele>608.17138671875</ele>
        <time>2012-04-09T08:06:49Z</time>
      </trkpt>
      <trkpt lat="45.64244" lon="4.43224">
        <ele>611.05517578125</ele>
        <time>2012-04-09T08:07:00Z</time>
      </trkpt>
      <trkpt lat="45.64254" lon="4.4321">
        <ele>612.97778320312</ele>
        <time>2012-04-09T08:07:09Z</time>
      </trkpt>
      <trkpt lat="45.6426" lon="4.43194">
        <ele>615.38110351562</ele>
        <time>2012-04-09T08:07:17Z</time>
      </trkpt>
      <trkpt lat="45.64264" lon="4.43177">
        <ele>617.7841796875</ele>
        <time>2012-04-09T08:07:25Z</time>
      </trkpt>
      <trkpt lat="45.64267" lon="4.43164">
        <ele>620.18774414062</ele>
        <time>2012-04-09T08:07:32Z</time>
      </trkpt>
      <trkpt lat="45.64269" lon="4.43152">
        <ele>622.1103515625</ele>
        <time>2012-04-09T08:07:39Z</time>
      </trkpt>
      <trkpt lat="45.64272" lon="4.43144">
        <ele>623.55249023438</ele>
        <time>2012-04-09T08:07:44Z</time>
      </trkpt>
      <trkpt lat="45.64277" lon="4.43124">
        <ele>626.43627929688</ele>
        <time>2012-04-09T08:07:54Z</time>
      </trkpt>
      <trkpt lat="45.64282" lon="4.43106">
        <ele>628.35888671875</ele>
        <time>2012-04-09T08:08:04Z</time>
      </trkpt>
      <trkpt lat="45.64286" lon="4.43089">
        <ele>630.28149414062</ele>
        <time>2012-04-09T08:08:13Z</time>
      </trkpt>
      <trkpt lat="45.64289" lon="4.43079">
        <ele>630.76220703125</ele>
        <time>2012-04-09T08:08:19Z</time>
      </trkpt>
      <trkpt lat="45.64294" lon="4.43067">
        <ele>632.2041015625</ele>
        <time>2012-04-09T08:08:26Z</time>
      </trkpt>
      <trkpt lat="45.64297" lon="4.43054">
        <ele>634.12670898438</ele>
        <time>2012-04-09T08:08:33Z</time>
      </trkpt>
      <trkpt lat="45.64302" lon="4.4304">
        <ele>635.56860351562</ele>
        <time>2012-04-09T08:08:41Z</time>
      </trkpt>
      <trkpt lat="45.64308" lon="4.43018">
        <ele>637.97216796875</ele>
        <time>2012-04-09T08:08:53Z</time>
      </trkpt>
      <trkpt lat="45.64313" lon="4.43009">
        <ele>638.93359375</ele>
        <time>2012-04-09T08:08:59Z</time>
      </trkpt>
      <trkpt lat="45.64318" lon="4.42991">
        <ele>641.33666992188</ele>
        <time>2012-04-09T08:09:09Z</time>
      </trkpt>
      <trkpt lat="45.64324" lon="4.42974">
        <ele>642.77880859375</ele>
        <time>2012-04-09T08:09:19Z</time>
      </trkpt>
      <trkpt lat="45.6433" lon="4.42956">
        <ele>644.220703125</ele>
        <time>2012-04-09T08:09:29Z</time>
      </trkpt>
      <trkpt lat="45.64334" lon="4.42944">
        <ele>645.18188476562</ele>
        <time>2012-04-09T08:09:36Z</time>
      </trkpt>
      <trkpt lat="45.64338" lon="4.42929">
        <ele>646.14331054688</ele>
        <time>2012-04-09T08:09:43Z</time>
      </trkpt>
      <trkpt lat="45.64342" lon="4.42911">
        <ele>647.58520507812</ele>
        <time>2012-04-09T08:09:52Z</time>
      </trkpt>
      <trkpt lat="45.64349" lon="4.42889">
        <ele>649.5078125</ele>
        <time>2012-04-09T08:10:03Z</time>
      </trkpt>
      <trkpt lat="45.64355" lon="4.42869">
        <ele>650.94970703125</ele>
        <time>2012-04-09T08:10:14Z</time>
      </trkpt>
      <trkpt lat="45.64361" lon="4.42853">
        <ele>651.9111328125</ele>
        <time>2012-04-09T08:10:23Z</time>
      </trkpt>
      <trkpt lat="45.64365" lon="4.42839">
        <ele>652.87255859375</ele>
        <time>2012-04-09T08:10:30Z</time>
      </trkpt>
      <trkpt lat="45.64372" lon="4.42825">
        <ele>653.833984375</ele>
        <time>2012-04-09T08:10:39Z</time>
      </trkpt>
      <trkpt lat="45.64384" lon="4.42821">
        <ele>655.27587890625</ele>
        <time>2012-04-09T08:10:47Z</time>
      </trkpt>
      <trkpt lat="45.64397" lon="4.42821">
        <ele>656.23706054688</ele>
        <time>2012-04-09T08:10:56Z</time>
      </trkpt>
      <trkpt lat="45.64407" lon="4.42819">
        <ele>657.19848632812</ele>
        <time>2012-04-09T08:11:02Z</time>
      </trkpt>
      <trkpt lat="45.64422" lon="4.42814">
        <ele>658.15991210938</ele>
        <time>2012-04-09T08:11:11Z</time>
      </trkpt>
      <trkpt lat="45.6444" lon="4.42807">
        <ele>659.60180664062</ele>
        <time>2012-04-09T08:11:20Z</time>
      </trkpt>
      <trkpt lat="45.64442" lon="4.42806">
        <ele>659.60180664062</ele>
        <time>2012-04-09T08:11:21Z</time>
      </trkpt>
      <trkpt lat="45.64442" lon="4.42798">
        <ele>660.56298828125</ele>
        <time>2012-04-09T08:11:25Z</time>
      </trkpt>
      <trkpt lat="45.64441" lon="4.42798">
        <ele>661.04370117188</ele>
        <time>2012-04-09T08:11:26Z</time>
      </trkpt>
      <trkpt lat="45.6443" lon="4.42792">
        <ele>662.48559570312</ele>
        <time>2012-04-09T08:11:32Z</time>
      </trkpt>
      <trkpt lat="45.6442" lon="4.42773">
        <ele>665.85034179688</ele>
        <time>2012-04-09T08:11:41Z</time>
      </trkpt>
      <trkpt lat="45.64423" lon="4.42757">
        <ele>668.25366210938</ele>
        <time>2012-04-09T08:11:47Z</time>
      </trkpt>
      <trkpt lat="45.64431" lon="4.42742">
        <ele>669.21508789062</ele>
        <time>2012-04-09T08:11:53Z</time>
      </trkpt>
      <trkpt lat="45.64445" lon="4.4272">
        <ele>672.09887695312</ele>
        <time>2012-04-09T08:12:04Z</time>
      </trkpt>
      <trkpt lat="45.64457" lon="4.42702">
        <ele>674.50219726562</ele>
        <time>2012-04-09T08:12:14Z</time>
      </trkpt>
      <trkpt lat="45.64467" lon="4.42687">
        <ele>676.4248046875</ele>
        <time>2012-04-09T08:12:23Z</time>
      </trkpt>
      <trkpt lat="45.64468" lon="4.42686">
        <ele>676.4248046875</ele>
        <time>2012-04-09T08:12:24Z</time>
      </trkpt>
      <trkpt lat="45.64468" lon="4.42685">
        <ele>676.90551757812</ele>
        <time>2012-04-09T08:12:31Z</time>
      </trkpt>
      <trkpt lat="45.64466" lon="4.42684">
        <ele>677.38623046875</ele>
        <time>2012-04-09T08:12:39Z</time>
      </trkpt>
      <trkpt lat="45.64467" lon="4.42684">
        <ele>678.34741210938</ele>
        <time>2012-04-09T08:12:45Z</time>
      </trkpt>
      <trkpt lat="45.64466" lon="4.42684">
        <ele>678.828125</ele>
        <time>2012-04-09T08:12:53Z</time>
      </trkpt>
      <trkpt lat="45.64467" lon="4.42683">
        <ele>679.30859375</ele>
        <time>2012-04-09T08:13:06Z</time>
      </trkpt>
      <trkpt lat="45.64468" lon="4.42683">
        <ele>679.78930664062</ele>
        <time>2012-04-09T08:13:16Z</time>
      </trkpt>
      <trkpt lat="45.64468" lon="4.42683">
        <ele>679.30859375</ele>
        <time>2012-04-09T08:13:28Z</time>
      </trkpt>
      <trkpt lat="45.64468" lon="4.42683">
        <ele>679.78930664062</ele>
        <time>2012-04-09T08:13:36Z</time>
      </trkpt>
      <trkpt lat="45.64468" lon="4.42683">
        <ele>680.27001953125</ele>
        <time>2012-04-09T08:13:49Z</time>
      </trkpt>
      <trkpt lat="45.64468" lon="4.42683">
        <ele>681.2314453125</ele>
        <time>2012-04-09T08:13:55Z</time>
      </trkpt>
      <trkpt lat="45.64468" lon="4.42682">
        <ele>681.7119140625</ele>
        <time>2012-04-09T08:14:16Z</time>
      </trkpt>
      <trkpt lat="45.64467" lon="4.42682">
        <ele>681.2314453125</ele>
        <time>2012-04-09T08:14:24Z</time>
      </trkpt>
      <trkpt lat="45.64467" lon="4.42682">
        <ele>681.2314453125</ele>
        <time>2012-04-09T08:14:29Z</time>
      </trkpt>
      <trkpt lat="45.64467" lon="4.42682">
        <ele>680.27001953125</ele>
        <time>2012-04-09T08:14:35Z</time>
      </trkpt>
      <trkpt lat="45.64467" lon="4.42682">
        <ele>681.2314453125</ele>
        <time>2012-04-09T08:14:50Z</time>
      </trkpt>
      <trkpt lat="45.64467" lon="4.42683">
        <ele>682.67333984375</ele>
        <time>2012-04-09T08:15:00Z</time>
      </trkpt>
      <trkpt lat="45.64466" lon="4.42681">
        <ele>682.67333984375</ele>
        <time>2012-04-09T08:15:08Z</time>
      </trkpt>
      <trkpt lat="45.64466" lon="4.42682">
        <ele>681.7119140625</ele>
        <time>2012-04-09T08:15:13Z</time>
      </trkpt>
      <trkpt lat="45.64467" lon="4.42682">
        <ele>681.2314453125</ele>
        <time>2012-04-09T08:15:19Z</time>
      </trkpt>
      <trkpt lat="45.64467" lon="4.42682">
        <ele>679.78930664062</ele>
        <time>2012-04-09T08:15:30Z</time>
      </trkpt>
      <trkpt lat="45.64466" lon="4.42682">
        <ele>679.78930664062</ele>
        <time>2012-04-09T08:15:47Z</time>
      </trkpt>
      <trkpt lat="45.64466" lon="4.42683">
        <ele>680.75073242188</ele>
        <time>2012-04-09T08:15:54Z</time>
      </trkpt>
      <trkpt lat="45.64466" lon="4.42681">
        <ele>682.19262695312</ele>
        <time>2012-04-09T08:16:01Z</time>
      </trkpt>
      <trkpt lat="45.64465" lon="4.42681">
        <ele>684.11547851562</ele>
        <time>2012-04-09T08:16:16Z</time>
      </trkpt>
      <trkpt lat="45.64466" lon="4.4268">
        <ele>684.11547851562</ele>
        <time>2012-04-09T08:16:21Z</time>
      </trkpt>
      <trkpt lat="45.64466" lon="4.42681">
        <ele>684.11547851562</ele>
        <time>2012-04-09T08:16:32Z</time>
      </trkpt>
      <trkpt lat="45.64466" lon="4.42681">
        <ele>685.07690429688</ele>
        <time>2012-04-09T08:16:41Z</time>
      </trkpt>
      <trkpt lat="45.64467" lon="4.42682">
        <ele>685.07690429688</ele>
        <time>2012-04-09T08:17:04Z</time>
      </trkpt>
      <trkpt lat="45.64468" lon="4.42683">
        <ele>685.07690429688</ele>
        <time>2012-04-09T08:17:14Z</time>
      </trkpt>
      <trkpt lat="45.64467" lon="4.42684">
        <ele>685.55737304688</ele>
        <time>2012-04-09T08:17:28Z</time>
      </trkpt>
      <trkpt lat="45.64467" lon="4.42687">
        <ele>683.15380859375</ele>
        <time>2012-04-09T08:17:52Z</time>
      </trkpt>
      <trkpt lat="45.64468" lon="4.42683">
        <ele>681.2314453125</ele>
        <time>2012-04-09T08:18:20Z</time>
      </trkpt>
      <trkpt lat="45.6447" lon="4.42683">
        <ele>684.11547851562</ele>
        <time>2012-04-09T08:18:29Z</time>
      </trkpt>
      <trkpt lat="45.6447" lon="4.42683">
        <ele>685.07690429688</ele>
        <time>2012-04-09T08:18:38Z</time>
      </trkpt>
      <trkpt lat="45.64471" lon="4.42681">
        <ele>686.51879882812</ele>
        <time>2012-04-09T08:18:53Z</time>
      </trkpt>
      <trkpt lat="45.64473" lon="4.42673">
        <ele>686.51879882812</ele>
        <time>2012-04-09T08:18:59Z</time>
      </trkpt>
      <trkpt lat="45.64479" lon="4.4266">
        <ele>686.0380859375</ele>
        <time>2012-04-09T08:19:05Z</time>
      </trkpt>
      <trkpt lat="45.64486" lon="4.42643">
        <ele>686.51879882812</ele>
        <time>2012-04-09T08:19:13Z</time>
      </trkpt>
      <trkpt lat="45.64487" lon="4.42632">
        <ele>686.51879882812</ele>
        <time>2012-04-09T08:19:18Z</time>
      </trkpt>
      <trkpt lat="45.64489" lon="4.42612">
        <ele>683.63452148438</ele>
        <time>2012-04-09T08:19:26Z</time>
      </trkpt>
      <trkpt lat="45.6449" lon="4.42599">
        <ele>682.67333984375</ele>
        <time>2012-04-09T08:19:31Z</time>
      </trkpt>
      <trkpt lat="45.64492" lon="4.42581">
        <ele>682.67333984375</ele>
        <time>2012-04-09T08:19:39Z</time>
      </trkpt>
      <trkpt lat="45.64494" lon="4.42564">
        <ele>683.15380859375</ele>
        <time>2012-04-09T08:19:46Z</time>
      </trkpt>
      <trkpt lat="45.64489" lon="4.42542">
        <ele>684.11547851562</ele>
        <time>2012-04-09T08:19:52Z</time>
      </trkpt>
      <trkpt lat="45.64478" lon="4.42515">
        <ele>687.96069335938</ele>
        <time>2012-04-09T08:20:00Z</time>
      </trkpt>
      <trkpt lat="45.64467" lon="4.42492">
        <ele>689.40258789062</ele>
        <time>2012-04-09T08:20:07Z</time>
      </trkpt>
      <trkpt lat="45.64459" lon="4.42468">
        <ele>689.40258789062</ele>
        <time>2012-04-09T08:20:13Z</time>
      </trkpt>
      <trkpt lat="45.64447" lon="4.42449">
        <ele>690.36401367188</ele>
        <time>2012-04-09T08:20:20Z</time>
      </trkpt>
      <trkpt lat="45.64437" lon="4.42427">
        <ele>692.28662109375</ele>
        <time>2012-04-09T08:20:24Z</time>
      </trkpt>
      <trkpt lat="45.64435" lon="4.42407">
        <ele>693.24780273438</ele>
        <time>2012-04-09T08:20:28Z</time>
      </trkpt>
      <trkpt lat="45.64439" lon="4.42393">
        <ele>694.68969726562</ele>
        <time>2012-04-09T08:20:32Z</time>
      </trkpt>
      <trkpt lat="45.64444" lon="4.42375">
        <ele>695.17041015625</ele>
        <time>2012-04-09T08:20:38Z</time>
      </trkpt>
      <trkpt lat="45.64447" lon="4.42359">
        <ele>695.65112304688</ele>
        <time>2012-04-09T08:20:44Z</time>
      </trkpt>
      <trkpt lat="45.64449" lon="4.42342">
        <ele>698.05444335938</ele>
        <time>2012-04-09T08:20:51Z</time>
      </trkpt>
      <trkpt lat="45.64447" lon="4.42325">
        <ele>701.41918945312</ele>
        <time>2012-04-09T08:20:57Z</time>
      </trkpt>
      <trkpt lat="45.64445" lon="4.42304">
        <ele>700.4580078125</ele>
        <time>2012-04-09T08:21:02Z</time>
      </trkpt>
      <trkpt lat="45.64449" lon="4.42278">
        <ele>699.015625</ele>
        <time>2012-04-09T08:21:08Z</time>
      </trkpt>
      <trkpt lat="45.64451" lon="4.42252">
        <ele>697.57373046875</ele>
        <time>2012-04-09T08:21:13Z</time>
      </trkpt>
      <trkpt lat="45.64458" lon="4.42218">
        <ele>696.61254882812</ele>
        <time>2012-04-09T08:21:19Z</time>
      </trkpt>
      <trkpt lat="45.64465" lon="4.42199">
        <ele>696.61254882812</ele>
        <time>2012-04-09T08:21:23Z</time>
      </trkpt>
      <trkpt lat="45.64483" lon="4.42174">
        <ele>696.61254882812</ele>
        <time>2012-04-09T08:21:29Z</time>
      </trkpt>
      <trkpt lat="45.64494" lon="4.42174">
        <ele>698.53491210938</ele>
        <time>2012-04-09T08:21:32Z</time>
      </trkpt>
      <trkpt lat="45.64497" lon="4.42175">
        <ele>698.05444335938</ele>
        <time>2012-04-09T08:21:33Z</time>
      </trkpt>
      <trkpt lat="45.64499" lon="4.42187">
        <ele>698.53491210938</ele>
        <time>2012-04-09T08:21:37Z</time>
      </trkpt>
      <trkpt lat="45.64502" lon="4.42203">
        <ele>701.89990234375</ele>
        <time>2012-04-09T08:21:43Z</time>
      </trkpt>
      <trkpt lat="45.64503" lon="4.42219">
        <ele>703.82250976562</ele>
        <time>2012-04-09T08:21:49Z</time>
      </trkpt>
      <trkpt lat="45.6451" lon="4.42239">
        <ele>704.78369140625</ele>
        <time>2012-04-09T08:21:56Z</time>
      </trkpt>
      <trkpt lat="45.64517" lon="4.42262">
        <ele>706.2255859375</ele>
        <time>2012-04-09T08:22:03Z</time>
      </trkpt>
      <trkpt lat="45.64526" lon="4.42289">
        <ele>707.18701171875</ele>
        <time>2012-04-09T08:22:10Z</time>
      </trkpt>
      <trkpt lat="45.64535" lon="4.42312">
        <ele>707.66772460938</ele>
        <time>2012-04-09T08:22:16Z</time>
      </trkpt>
      <trkpt lat="45.64545" lon="4.42337">
        <ele>707.66772460938</ele>
        <time>2012-04-09T08:22:22Z</time>
      </trkpt>
      <trkpt lat="45.64556" lon="4.42365">
        <ele>704.78369140625</ele>
        <time>2012-04-09T08:22:27Z</time>
      </trkpt>
      <trkpt lat="45.64557" lon="4.42379">
        <ele>703.82250976562</ele>
        <time>2012-04-09T08:22:29Z</time>
      </trkpt>
      <trkpt lat="45.64559" lon="4.42405">
        <ele>701.41918945312</ele>
        <time>2012-04-09T08:22:33Z</time>
      </trkpt>
      <trkpt lat="45.64568" lon="4.42437">
        <ele>699.49633789062</ele>
        <time>2012-04-09T08:22:37Z</time>
      </trkpt>
      <trkpt lat="45.64594" lon="4.42485">
        <ele>694.20922851562</ele>
        <time>2012-04-09T08:22:42Z</time>
      </trkpt>
      <trkpt lat="45.6461" lon="4.42514">
        <ele>691.3251953125</ele>
        <time>2012-04-09T08:22:45Z</time>
      </trkpt>
      <trkpt lat="45.64616" lon="4.42524">
        <ele>690.36401367188</ele>
        <time>2012-04-09T08:22:46Z</time>
      </trkpt>
      <trkpt lat="45.64661" lon="4.42584">
        <ele>686.51879882812</ele>
        <time>2012-04-09T08:22:53Z</time>
      </trkpt>
      <trkpt lat="45.64676" lon="4.42597">
        <ele>685.55737304688</ele>
        <time>2012-04-09T08:22:55Z</time>
      </trkpt>
      <trkpt lat="45.64702" lon="4.4263">
        <ele>685.07690429688</ele>
        <time>2012-04-09T08:23:00Z</time>
      </trkpt>
      <trkpt lat="45.6473" lon="4.42668">
        <ele>685.55737304688</ele>
        <time>2012-04-09T08:23:07Z</time>
      </trkpt>
      <trkpt lat="45.64745" lon="4.42694">
        <ele>686.0380859375</ele>
        <time>2012-04-09T08:23:12Z</time>
      </trkpt>
      <trkpt lat="45.64751" lon="4.42707">
        <ele>686.51879882812</ele>
        <time>2012-04-09T08:23:15Z</time>
      </trkpt>
      <trkpt lat="45.64768" lon="4.42739">
        <ele>686.51879882812</ele>
        <time>2012-04-09T08:23:23Z</time>
      </trkpt>
      <trkpt lat="45.64779" lon="4.42768">
        <ele>686.51879882812</ele>
        <time>2012-04-09T08:23:29Z</time>
      </trkpt>
      <trkpt lat="45.6479" lon="4.42813">
        <ele>686.99926757812</ele>
        <time>2012-04-09T08:23:37Z</time>
      </trkpt>
      <trkpt lat="45.64792" lon="4.42818">
        <ele>686.99926757812</ele>
        <time>2012-04-09T08:23:38Z</time>
      </trkpt>
      <trkpt lat="45.64798" lon="4.42858">
        <ele>686.0380859375</ele>
        <time>2012-04-09T08:23:45Z</time>
      </trkpt>
      <trkpt lat="45.64799" lon="4.42864">
        <ele>685.55737304688</ele>
        <time>2012-04-09T08:23:46Z</time>
      </trkpt>
      <trkpt lat="45.64803" lon="4.42887">
        <ele>684.11547851562</ele>
        <time>2012-04-09T08:23:49Z</time>
      </trkpt>
      <trkpt lat="45.64805" lon="4.42904">
        <ele>682.67333984375</ele>
        <time>2012-04-09T08:23:51Z</time>
      </trkpt>
      <trkpt lat="45.64817" lon="4.42939">
        <ele>681.2314453125</ele>
        <time>2012-04-09T08:23:55Z</time>
      </trkpt>
      <trkpt lat="45.64825" lon="4.42956">
        <ele>680.75073242188</ele>
        <time>2012-04-09T08:23:57Z</time>
      </trkpt>
      <trkpt lat="45.64843" lon="4.42974">
        <ele>680.75073242188</ele>
        <time>2012-04-09T08:24:01Z</time>
      </trkpt>
      <trkpt lat="45.64863" lon="4.42982">
        <ele>681.2314453125</ele>
        <time>2012-04-09T08:24:06Z</time>
      </trkpt>
      <trkpt lat="45.64881" lon="4.42988">
        <ele>682.67333984375</ele>
        <time>2012-04-09T08:24:13Z</time>
      </trkpt>
      <trkpt lat="45.64896" lon="4.42997">
        <ele>684.11547851562</ele>
        <time>2012-04-09T08:24:20Z</time>
      </trkpt>
      <trkpt lat="45.64913" lon="4.43006">
        <ele>685.07690429688</ele>
        <time>2012-04-09T08:24:27Z</time>
      </trkpt>
      <trkpt lat="45.64935" lon="4.43019">
        <ele>685.07690429688</ele>
        <time>2012-04-09T08:24:35Z</time>
      </trkpt>
      <trkpt lat="45.64959" lon="4.43034">
        <ele>685.55737304688</ele>
        <time>2012-04-09T08:24:43Z</time>
      </trkpt>
      <trkpt lat="45.64981" lon="4.43046">
        <ele>685.07690429688</ele>
        <time>2012-04-09T08:24:50Z</time>
      </trkpt>
      <trkpt lat="45.6501" lon="4.43064">
        <ele>684.11547851562</ele>
        <time>2012-04-09T08:24:57Z</time>
      </trkpt>
      <trkpt lat="45.65026" lon="4.43074">
        <ele>683.63452148438</ele>
        <time>2012-04-09T08:25:01Z</time>
      </trkpt>
      <trkpt lat="45.65038" lon="4.4309">
        <ele>683.63452148438</ele>
        <time>2012-04-09T08:25:05Z</time>
      </trkpt>
      <trkpt lat="45.65068" lon="4.43122">
        <ele>683.63452148438</ele>
        <time>2012-04-09T08:25:14Z</time>
      </trkpt>
      <trkpt lat="45.65083" lon="4.43142">
        <ele>684.11547851562</ele>
        <time>2012-04-09T08:25:19Z</time>
      </trkpt>
      <trkpt lat="45.65088" lon="4.43163">
        <ele>684.59619140625</ele>
        <time>2012-04-09T08:25:23Z</time>
      </trkpt>
      <trkpt lat="45.65086" lon="4.43197">
        <ele>686.51879882812</ele>
        <time>2012-04-09T08:25:31Z</time>
      </trkpt>
      <trkpt lat="45.65083" lon="4.43224">
        <ele>689.40258789062</ele>
        <time>2012-04-09T08:25:39Z</time>
      </trkpt>
      <trkpt lat="45.65079" lon="4.43249">
        <ele>693.24780273438</ele>
        <time>2012-04-09T08:25:47Z</time>
      </trkpt>
      <trkpt lat="45.6508" lon="4.43269">
        <ele>695.65112304688</ele>
        <time>2012-04-09T08:25:54Z</time>
      </trkpt>
      <trkpt lat="45.65081" lon="4.43271">
        <ele>696.1318359375</ele>
        <time>2012-04-09T08:25:55Z</time>
      </trkpt>
      <trkpt lat="45.65091" lon="4.43273">
        <ele>696.1318359375</ele>
        <time>2012-04-09T08:25:59Z</time>
      </trkpt>
      <trkpt lat="45.65117" lon="4.43273">
        <ele>695.17041015625</ele>
        <time>2012-04-09T08:26:05Z</time>
      </trkpt>
      <trkpt lat="45.65141" lon="4.43271">
        <ele>693.728515625</ele>
        <time>2012-04-09T08:26:10Z</time>
      </trkpt>
      <trkpt lat="45.65175" lon="4.43254">
        <ele>690.84448242188</ele>
        <time>2012-04-09T08:26:16Z</time>
      </trkpt>
      <trkpt lat="45.65182" lon="4.43251">
        <ele>690.36401367188</ele>
        <time>2012-04-09T08:26:17Z</time>
      </trkpt>
      <trkpt lat="45.65206" lon="4.43253">
        <ele>689.88330078125</ele>
        <time>2012-04-09T08:26:21Z</time>
      </trkpt>
      <trkpt lat="45.6521" lon="4.4326">
        <ele>689.40258789062</ele>
        <time>2012-04-09T08:26:23Z</time>
      </trkpt>
      <trkpt lat="45.65218" lon="4.43283">
        <ele>691.3251953125</ele>
        <time>2012-04-09T08:26:31Z</time>
      </trkpt>
      <trkpt lat="45.65221" lon="4.43297">
        <ele>693.24780273438</ele>
        <time>2012-04-09T08:26:37Z</time>
      </trkpt>
      <trkpt lat="45.65229" lon="4.43315">
        <ele>695.17041015625</ele>
        <time>2012-04-09T08:26:45Z</time>
      </trkpt>
      <trkpt lat="45.65237" lon="4.43336">
        <ele>697.57373046875</ele>
        <time>2012-04-09T08:26:56Z</time>
      </trkpt>
      <trkpt lat="45.65242" lon="4.43355">
        <ele>699.49633789062</ele>
        <time>2012-04-09T08:27:05Z</time>
      </trkpt>
      <trkpt lat="45.65244" lon="4.43373">
        <ele>700.9384765625</ele>
        <time>2012-04-09T08:27:13Z</time>
      </trkpt>
      <trkpt lat="45.65245" lon="4.4339">
        <ele>701.89990234375</ele>
        <time>2012-04-09T08:27:21Z</time>
      </trkpt>
      <trkpt lat="45.65245" lon="4.43412">
        <ele>704.30322265625</ele>
        <time>2012-04-09T08:27:31Z</time>
      </trkpt>
      <trkpt lat="45.65242" lon="4.43426">
        <ele>705.7451171875</ele>
        <time>2012-04-09T08:27:37Z</time>
      </trkpt>
      <trkpt lat="45.65241" lon="4.43444">
        <ele>706.2255859375</ele>
        <time>2012-04-09T08:27:45Z</time>
      </trkpt>
      <trkpt lat="45.65238" lon="4.43461">
        <ele>707.66772460938</ele>
        <time>2012-04-09T08:27:53Z</time>
      </trkpt>
      <trkpt lat="45.65237" lon="4.43477">
        <ele>709.10961914062</ele>
        <time>2012-04-09T08:28:00Z</time>
      </trkpt>
      <trkpt lat="45.65239" lon="4.43504">
        <ele>712.47412109375</ele>
        <time>2012-04-09T08:28:11Z</time>
      </trkpt>
      <trkpt lat="45.65236" lon="4.43531">
        <ele>715.35815429688</ele>
        <time>2012-04-09T08:28:23Z</time>
      </trkpt>
      <trkpt lat="45.65233" lon="4.43552">
        <ele>717.28100585938</ele>
        <time>2012-04-09T08:28:32Z</time>
      </trkpt>
      <trkpt lat="45.65228" lon="4.43572">
        <ele>719.20361328125</ele>
        <time>2012-04-09T08:28:41Z</time>
      </trkpt>
      <trkpt lat="45.65223" lon="4.43589">
        <ele>721.60668945312</ele>
        <time>2012-04-09T08:28:50Z</time>
      </trkpt>
      <trkpt lat="45.65221" lon="4.43593">
        <ele>722.56811523438</ele>
        <time>2012-04-09T08:28:52Z</time>
      </trkpt>
      <trkpt lat="45.65213" lon="4.43612">
        <ele>724.97143554688</ele>
        <time>2012-04-09T08:29:02Z</time>
      </trkpt>
      <trkpt lat="45.65203" lon="4.4363">
        <ele>727.85522460938</ele>
        <time>2012-04-09T08:29:12Z</time>
      </trkpt>
      <trkpt lat="45.65195" lon="4.43647">
        <ele>729.77783203125</ele>
        <time>2012-04-09T08:29:21Z</time>
      </trkpt>
      <trkpt lat="45.65181" lon="4.43667">
        <ele>731.70043945312</ele>
        <time>2012-04-09T08:29:32Z</time>
      </trkpt>
      <trkpt lat="45.65176" lon="4.43679">
        <ele>732.18139648438</ele>
        <time>2012-04-09T08:29:38Z</time>
      </trkpt>
      <trkpt lat="45.65181" lon="4.43685">
        <ele>732.18139648438</ele>
        <time>2012-04-09T08:29:42Z</time>
      </trkpt>
      <trkpt lat="45.65184" lon="4.43685">
        <ele>732.18139648438</ele>
        <time>2012-04-09T08:29:44Z</time>
      </trkpt>
      <trkpt lat="45.65185" lon="4.43686">
        <ele>733.142578125</ele>
        <time>2012-04-09T08:29:51Z</time>
      </trkpt>
      <trkpt lat="45.65185" lon="4.43686">
        <ele>732.662109375</ele>
        <time>2012-04-09T08:30:00Z</time>
      </trkpt>
      <trkpt lat="45.65185" lon="4.43686">
        <ele>731.70043945312</ele>
        <time>2012-04-09T08:30:18Z</time>
      </trkpt>
      <trkpt lat="45.65184" lon="4.43686">
        <ele>731.70043945312</ele>
        <time>2012-04-09T08:30:31Z</time>
      </trkpt>
      <trkpt lat="45.65184" lon="4.43686">
        <ele>731.70043945312</ele>
        <time>2012-04-09T08:30:37Z</time>
      </trkpt>
      <trkpt lat="45.65184" lon="4.43687">
        <ele>731.70043945312</ele>
        <time>2012-04-09T08:31:10Z</time>
      </trkpt>
      <trkpt lat="45.65185" lon="4.43686">
        <ele>732.662109375</ele>
        <time>2012-04-09T08:31:24Z</time>
      </trkpt>
      <trkpt lat="45.65185" lon="4.43686">
        <ele>732.662109375</ele>
        <time>2012-04-09T08:31:30Z</time>
      </trkpt>
      <trkpt lat="45.65186" lon="4.43686">
        <ele>733.142578125</ele>
        <time>2012-04-09T08:31:38Z</time>
      </trkpt>
      <trkpt lat="45.65186" lon="4.43687">
        <ele>736.02661132812</ele>
        <time>2012-04-09T08:32:00Z</time>
      </trkpt>
      <trkpt lat="45.65186" lon="4.43686">
        <ele>736.02661132812</ele>
        <time>2012-04-09T08:32:06Z</time>
      </trkpt>
      <trkpt lat="45.65185" lon="4.43686">
        <ele>735.5458984375</ele>
        <time>2012-04-09T08:32:18Z</time>
      </trkpt>
      <trkpt lat="45.65186" lon="4.43686">
        <ele>735.0654296875</ele>
        <time>2012-04-09T08:32:28Z</time>
      </trkpt>
      <trkpt lat="45.65201" lon="4.43687">
        <ele>734.10400390625</ele>
        <time>2012-04-09T08:32:34Z</time>
      </trkpt>
      <trkpt lat="45.65225" lon="4.43689">
        <ele>732.18139648438</ele>
        <time>2012-04-09T08:32:39Z</time>
      </trkpt>
      <trkpt lat="45.65257" lon="4.437">
        <ele>729.29711914062</ele>
        <time>2012-04-09T08:32:44Z</time>
      </trkpt>
      <trkpt lat="45.65301" lon="4.43727">
        <ele>724.97143554688</ele>
        <time>2012-04-09T08:32:50Z</time>
      </trkpt>
      <trkpt lat="45.65342" lon="4.4377">
        <ele>721.60668945312</ele>
        <time>2012-04-09T08:32:56Z</time>
      </trkpt>
      <trkpt lat="45.65376" lon="4.43794">
        <ele>719.20361328125</ele>
        <time>2012-04-09T08:33:01Z</time>
      </trkpt>
      <trkpt lat="45.654" lon="4.43816">
        <ele>717.76147460938</ele>
        <time>2012-04-09T08:33:05Z</time>
      </trkpt>
      <trkpt lat="45.65427" lon="4.4384">
        <ele>717.76147460938</ele>
        <time>2012-04-09T08:33:10Z</time>
      </trkpt>
      <trkpt lat="45.6545" lon="4.43854">
        <ele>718.2421875</ele>
        <time>2012-04-09T08:33:14Z</time>
      </trkpt>
      <trkpt lat="45.65474" lon="4.43871">
        <ele>713.916015625</ele>
        <time>2012-04-09T08:33:18Z</time>
      </trkpt>
      <trkpt lat="45.65491" lon="4.43887">
        <ele>711.51293945312</ele>
        <time>2012-04-09T08:33:21Z</time>
      </trkpt>
      <trkpt lat="45.65512" lon="4.43926">
        <ele>710.55151367188</ele>
        <time>2012-04-09T08:33:26Z</time>
      </trkpt>
      <trkpt lat="45.65523" lon="4.43971">
        <ele>709.10961914062</ele>
        <time>2012-04-09T08:33:31Z</time>
      </trkpt>
      <trkpt lat="45.6553" lon="4.43988">
        <ele>705.7451171875</ele>
        <time>2012-04-09T08:33:33Z</time>
      </trkpt>
      <trkpt lat="45.65551" lon="4.44023">
        <ele>702.86108398438</ele>
        <time>2012-04-09T08:33:38Z</time>
      </trkpt>
      <trkpt lat="45.65563" lon="4.4404">
        <ele>702.86108398438</ele>
        <time>2012-04-09T08:33:41Z</time>
      </trkpt>
      <trkpt lat="45.6558" lon="4.44055">
        <ele>705.26440429688</ele>
        <time>2012-04-09T08:33:45Z</time>
      </trkpt>
      <trkpt lat="45.65598" lon="4.44067">
        <ele>706.2255859375</ele>
        <time>2012-04-09T08:33:49Z</time>
      </trkpt>
      <trkpt lat="45.65612" lon="4.44074">
        <ele>706.70629882812</ele>
        <time>2012-04-09T08:33:52Z</time>
      </trkpt>
      <trkpt lat="45.65629" lon="4.44085">
        <ele>704.30322265625</ele>
        <time>2012-04-09T08:33:56Z</time>
      </trkpt>
      <trkpt lat="45.65646" lon="4.44108">
        <ele>704.78369140625</ele>
        <time>2012-04-09T08:34:01Z</time>
      </trkpt>
      <trkpt lat="45.65649" lon="4.44113">
        <ele>703.341796875</ele>
        <time>2012-04-09T08:34:02Z</time>
      </trkpt>
      <trkpt lat="45.65669" lon="4.44149">
        <ele>701.89990234375</ele>
        <time>2012-04-09T08:34:08Z</time>
      </trkpt>
      <trkpt lat="45.65674" lon="4.44155">
        <ele>701.41918945312</ele>
        <time>2012-04-09T08:34:09Z</time>
      </trkpt>
      <trkpt lat="45.65696" lon="4.44175">
        <ele>701.89990234375</ele>
        <time>2012-04-09T08:34:13Z</time>
      </trkpt>
      <trkpt lat="45.65717" lon="4.4417">
        <ele>699.97705078125</ele>
        <time>2012-04-09T08:34:17Z</time>
      </trkpt>
      <trkpt lat="45.65747" lon="4.44166">
        <ele>698.05444335938</ele>
        <time>2012-04-09T08:34:22Z</time>
      </trkpt>
      <trkpt lat="45.65767" lon="4.4417">
        <ele>696.1318359375</ele>
        <time>2012-04-09T08:34:25Z</time>
      </trkpt>
      <trkpt lat="45.65794" lon="4.4417">
        <ele>692.28662109375</ele>
        <time>2012-04-09T08:34:29Z</time>
      </trkpt>
      <trkpt lat="45.65831" lon="4.44181">
        <ele>682.67333984375</ele>
        <time>2012-04-09T08:34:34Z</time>
      </trkpt>
      <trkpt lat="45.65837" lon="4.44188">
        <ele>681.2314453125</ele>
        <time>2012-04-09T08:34:35Z</time>
      </trkpt>
      <trkpt lat="45.65846" lon="4.44201">
        <ele>677.86669921875</ele>
        <time>2012-04-09T08:34:37Z</time>
      </trkpt>
      <trkpt lat="45.6586" lon="4.44223">
        <ele>674.98291015625</ele>
        <time>2012-04-09T08:34:40Z</time>
      </trkpt>
      <trkpt lat="45.65869" lon="4.44248">
        <ele>674.021484375</ele>
        <time>2012-04-09T08:34:43Z</time>
      </trkpt>
      <trkpt lat="45.65874" lon="4.44256">
        <ele>672.09887695312</ele>
        <time>2012-04-09T08:34:45Z</time>
      </trkpt>
      <trkpt lat="45.65896" lon="4.44266">
        <ele>672.09887695312</ele>
        <time>2012-04-09T08:34:50Z</time>
      </trkpt>
      <trkpt lat="45.65907" lon="4.44268">
        <ele>672.57958984375</ele>
        <time>2012-04-09T08:34:52Z</time>
      </trkpt>
      <trkpt lat="45.6593" lon="4.44275">
        <ele>674.021484375</ele>
        <time>2012-04-09T08:34:56Z</time>
      </trkpt>
      <trkpt lat="45.65946" lon="4.4428">
        <ele>674.021484375</ele>
        <time>2012-04-09T08:34:59Z</time>
      </trkpt>
      <trkpt lat="45.65966" lon="4.44286">
        <ele>675.46337890625</ele>
        <time>2012-04-09T08:35:03Z</time>
      </trkpt>
      <trkpt lat="45.6601" lon="4.4429">
        <ele>678.34741210938</ele>
        <time>2012-04-09T08:35:09Z</time>
      </trkpt>
      <trkpt lat="45.66035" lon="4.4429">
        <ele>678.34741210938</ele>
        <time>2012-04-09T08:35:13Z</time>
      </trkpt>
      <trkpt lat="45.66051" lon="4.44309">
        <ele>671.1376953125</ele>
        <time>2012-04-09T08:35:17Z</time>
      </trkpt>
      <trkpt lat="45.6606" lon="4.4432">
        <ele>666.8115234375</ele>
        <time>2012-04-09T08:35:20Z</time>
      </trkpt>
      <trkpt lat="45.66081" lon="4.44343">
        <ele>662.96630859375</ele>
        <time>2012-04-09T08:35:26Z</time>
      </trkpt>
      <trkpt lat="45.661" lon="4.44366">
        <ele>662.96630859375</ele>
        <time>2012-04-09T08:35:32Z</time>
      </trkpt>
      <trkpt lat="45.66103" lon="4.44369">
        <ele>662.96630859375</ele>
        <time>2012-04-09T08:35:34Z</time>
      </trkpt>
      <trkpt lat="45.66108" lon="4.44377">
        <ele>662.96630859375</ele>
        <time>2012-04-09T08:35:38Z</time>
      </trkpt>
      <trkpt lat="45.66126" lon="4.44401">
        <ele>663.44702148438</ele>
        <time>2012-04-09T08:35:45Z</time>
      </trkpt>
      <trkpt lat="45.66141" lon="4.44431">
        <ele>665.36962890625</ele>
        <time>2012-04-09T08:35:52Z</time>
      </trkpt>
      <trkpt lat="45.66158" lon="4.44463">
        <ele>666.8115234375</ele>
        <time>2012-04-09T08:35:58Z</time>
      </trkpt>
      <trkpt lat="45.66175" lon="4.4449">
        <ele>666.33081054688</ele>
        <time>2012-04-09T08:36:03Z</time>
      </trkpt>
      <trkpt lat="45.66183" lon="4.44501">
        <ele>664.88891601562</ele>
        <time>2012-04-09T08:36:05Z</time>
      </trkpt>
      <trkpt lat="45.66194" lon="4.44514">
        <ele>663.92749023438</ele>
        <time>2012-04-09T08:36:08Z</time>
      </trkpt>
      <trkpt lat="45.66222" lon="4.44532">
        <ele>664.408203125</ele>
        <time>2012-04-09T08:36:15Z</time>
      </trkpt>
      <trkpt lat="45.66249" lon="4.44548">
        <ele>663.92749023438</ele>
        <time>2012-04-09T08:36:22Z</time>
      </trkpt>
      <trkpt lat="45.66265" lon="4.44557">
        <ele>663.92749023438</ele>
        <time>2012-04-09T08:36:26Z</time>
      </trkpt>
      <trkpt lat="45.66292" lon="4.44571">
        <ele>663.92749023438</ele>
        <time>2012-04-09T08:36:32Z</time>
      </trkpt>
      <trkpt lat="45.66301" lon="4.4458">
        <ele>663.92749023438</ele>
        <time>2012-04-09T08:36:34Z</time>
      </trkpt>
      <trkpt lat="45.66316" lon="4.446">
        <ele>663.44702148438</ele>
        <time>2012-04-09T08:36:38Z</time>
      </trkpt>
      <trkpt lat="45.66331" lon="4.44635">
        <ele>663.44702148438</ele>
        <time>2012-04-09T08:36:44Z</time>
      </trkpt>
      <trkpt lat="45.66347" lon="4.44673">
        <ele>663.44702148438</ele>
        <time>2012-04-09T08:36:51Z</time>
      </trkpt>
      <trkpt lat="45.66356" lon="4.4471">
        <ele>663.92749023438</ele>
        <time>2012-04-09T08:36:58Z</time>
      </trkpt>
      <trkpt lat="45.6636" lon="4.4473">
        <ele>662.48559570312</ele>
        <time>2012-04-09T08:37:03Z</time>
      </trkpt>
      <trkpt lat="45.66369" lon="4.44759">
        <ele>661.04370117188</ele>
        <time>2012-04-09T08:37:08Z</time>
      </trkpt>
      <trkpt lat="45.66376" lon="4.44776">
        <ele>661.04370117188</ele>
        <time>2012-04-09T08:37:11Z</time>
      </trkpt>
      <trkpt lat="45.66395" lon="4.44784">
        <ele>662.48559570312</ele>
        <time>2012-04-09T08:37:16Z</time>
      </trkpt>
      <trkpt lat="45.66401" lon="4.44778">
        <ele>662.48559570312</ele>
        <time>2012-04-09T08:37:18Z</time>
      </trkpt>
      <trkpt lat="45.66411" lon="4.44759">
        <ele>662.48559570312</ele>
        <time>2012-04-09T08:37:22Z</time>
      </trkpt>
      <trkpt lat="45.66426" lon="4.44762">
        <ele>661.5244140625</ele>
        <time>2012-04-09T08:37:26Z</time>
      </trkpt>
      <trkpt lat="45.66433" lon="4.44786">
        <ele>661.5244140625</ele>
        <time>2012-04-09T08:37:30Z</time>
      </trkpt>
      <trkpt lat="45.66434" lon="4.44792">
        <ele>661.5244140625</ele>
        <time>2012-04-09T08:37:31Z</time>
      </trkpt>
      <trkpt lat="45.66435" lon="4.44805">
        <ele>661.04370117188</ele>
        <time>2012-04-09T08:37:33Z</time>
      </trkpt>
      <trkpt lat="45.66441" lon="4.44824">
        <ele>661.04370117188</ele>
        <time>2012-04-09T08:37:36Z</time>
      </trkpt>
      <trkpt lat="45.66459" lon="4.44865">
        <ele>661.04370117188</ele>
        <time>2012-04-09T08:37:43Z</time>
      </trkpt>
      <trkpt lat="45.66478" lon="4.44892">
        <ele>662.96630859375</ele>
        <time>2012-04-09T08:37:50Z</time>
      </trkpt>
      <trkpt lat="45.66497" lon="4.4492">
        <ele>664.88891601562</ele>
        <time>2012-04-09T08:37:57Z</time>
      </trkpt>
      <trkpt lat="45.66512" lon="4.44943">
        <ele>666.33081054688</ele>
        <time>2012-04-09T08:38:04Z</time>
      </trkpt>
      <trkpt lat="45.66518" lon="4.44967">
        <ele>667.29223632812</ele>
        <time>2012-04-09T08:38:11Z</time>
      </trkpt>
      <trkpt lat="45.66519" lon="4.44996">
        <ele>668.25366210938</ele>
        <time>2012-04-09T08:38:18Z</time>
      </trkpt>
      <trkpt lat="45.66517" lon="4.45035">
        <ele>669.21508789062</ele>
        <time>2012-04-09T08:38:27Z</time>
      </trkpt>
      <trkpt lat="45.66517" lon="4.45064">
        <ele>669.69580078125</ele>
        <time>2012-04-09T08:38:34Z</time>
      </trkpt>
      <trkpt lat="45.66525" lon="4.45092">
        <ele>669.69580078125</ele>
        <time>2012-04-09T08:38:40Z</time>
      </trkpt>
      <trkpt lat="45.66537" lon="4.45132">
        <ele>670.17626953125</ele>
        <time>2012-04-09T08:38:48Z</time>
      </trkpt>
      <trkpt lat="45.66541" lon="4.45165">
        <ele>669.69580078125</ele>
        <time>2012-04-09T08:38:54Z</time>
      </trkpt>
      <trkpt lat="45.66551" lon="4.45217">
        <ele>671.1376953125</ele>
        <time>2012-04-09T08:39:04Z</time>
      </trkpt>
      <trkpt lat="45.66555" lon="4.45239">
        <ele>671.6181640625</ele>
        <time>2012-04-09T08:39:09Z</time>
      </trkpt>
      <trkpt lat="45.66555" lon="4.45244">
        <ele>671.6181640625</ele>
        <time>2012-04-09T08:39:10Z</time>
      </trkpt>
      <trkpt lat="45.66547" lon="4.45267">
        <ele>673.06030273438</ele>
        <time>2012-04-09T08:39:16Z</time>
      </trkpt>
      <trkpt lat="45.66539" lon="4.45286">
        <ele>674.021484375</ele>
        <time>2012-04-09T08:39:21Z</time>
      </trkpt>
      <trkpt lat="45.66539" lon="4.45289">
        <ele>674.021484375</ele>
        <time>2012-04-09T08:39:22Z</time>
      </trkpt>
      <trkpt lat="45.66547" lon="4.45298">
        <ele>675.94409179688</ele>
        <time>2012-04-09T08:39:27Z</time>
      </trkpt>
      <trkpt lat="45.66563" lon="4.45308">
        <ele>680.27001953125</ele>
        <time>2012-04-09T08:39:35Z</time>
      </trkpt>
      <trkpt lat="45.66578" lon="4.45324">
        <ele>683.15380859375</ele>
        <time>2012-04-09T08:39:44Z</time>
      </trkpt>
      <trkpt lat="45.66585" lon="4.45344">
        <ele>684.11547851562</ele>
        <time>2012-04-09T08:39:52Z</time>
      </trkpt>
      <trkpt lat="45.6659" lon="4.45362">
        <ele>685.07690429688</ele>
        <time>2012-04-09T08:39:59Z</time>
      </trkpt>
      <trkpt lat="45.66595" lon="4.45382">
        <ele>687.47998046875</ele>
        <time>2012-04-09T08:40:07Z</time>
      </trkpt>
      <trkpt lat="45.66604" lon="4.45401">
        <ele>691.3251953125</ele>
        <time>2012-04-09T08:40:16Z</time>
      </trkpt>
      <trkpt lat="45.66611" lon="4.45414">
        <ele>693.728515625</ele>
        <time>2012-04-09T08:40:22Z</time>
      </trkpt>
      <trkpt lat="45.66622" lon="4.45435">
        <ele>694.68969726562</ele>
        <time>2012-04-09T08:40:30Z</time>
      </trkpt>
      <trkpt lat="45.66626" lon="4.45458">
        <ele>694.20922851562</ele>
        <time>2012-04-09T08:40:37Z</time>
      </trkpt>
      <trkpt lat="45.66626" lon="4.45477">
        <ele>693.728515625</ele>
        <time>2012-04-09T08:40:43Z</time>
      </trkpt>
      <trkpt lat="45.66619" lon="4.455">
        <ele>694.20922851562</ele>
        <time>2012-04-09T08:40:50Z</time>
      </trkpt>
      <trkpt lat="45.6661" lon="4.45526">
        <ele>694.20922851562</ele>
        <time>2012-04-09T08:40:57Z</time>
      </trkpt>
      <trkpt lat="45.66599" lon="4.45545">
        <ele>695.17041015625</ele>
        <time>2012-04-09T08:41:03Z</time>
      </trkpt>
      <trkpt lat="45.66589" lon="4.45558">
        <ele>696.1318359375</ele>
        <time>2012-04-09T08:41:08Z</time>
      </trkpt>
      <trkpt lat="45.66587" lon="4.45559">
        <ele>696.1318359375</ele>
        <time>2012-04-09T08:41:09Z</time>
      </trkpt>
      <trkpt lat="45.66587" lon="4.45559">
        <ele>696.61254882812</ele>
        <time>2012-04-09T08:41:14Z</time>
      </trkpt>
      <trkpt lat="45.66586" lon="4.4556">
        <ele>697.57373046875</ele>
        <time>2012-04-09T08:41:21Z</time>
      </trkpt>
      <trkpt lat="45.66585" lon="4.45561">
        <ele>699.015625</ele>
        <time>2012-04-09T08:41:29Z</time>
      </trkpt>
      <trkpt lat="45.66585" lon="4.45562">
        <ele>699.49633789062</ele>
        <time>2012-04-09T08:41:35Z</time>
      </trkpt>
      <trkpt lat="45.66586" lon="4.45561">
        <ele>700.9384765625</ele>
        <time>2012-04-09T08:41:40Z</time>
      </trkpt>
      <trkpt lat="45.66586" lon="4.45561">
        <ele>700.4580078125</ele>
        <time>2012-04-09T08:41:44Z</time>
      </trkpt>
      <trkpt lat="45.66586" lon="4.45561">
        <ele>700.4580078125</ele>
        <time>2012-04-09T08:41:51Z</time>
      </trkpt>
      <trkpt lat="45.66585" lon="4.45561">
        <ele>700.4580078125</ele>
        <time>2012-04-09T08:42:01Z</time>
      </trkpt>
      <trkpt lat="45.66586" lon="4.45559">
        <ele>700.9384765625</ele>
        <time>2012-04-09T08:42:07Z</time>
      </trkpt>
      <trkpt lat="45.66587" lon="4.45559">
        <ele>700.4580078125</ele>
        <time>2012-04-09T08:42:12Z</time>
      </trkpt>
      <trkpt lat="45.66586" lon="4.45558">
        <ele>699.49633789062</ele>
        <time>2012-04-09T08:42:20Z</time>
      </trkpt>
      <trkpt lat="45.66586" lon="4.4556">
        <ele>699.015625</ele>
        <time>2012-04-09T08:42:25Z</time>
      </trkpt>
      <trkpt lat="45.66586" lon="4.45562">
        <ele>699.015625</ele>
        <time>2012-04-09T08:42:34Z</time>
      </trkpt>
      <trkpt lat="45.66582" lon="4.45566">
        <ele>699.015625</ele>
        <time>2012-04-09T08:42:38Z</time>
      </trkpt>
      <trkpt lat="45.66577" lon="4.45576">
        <ele>699.015625</ele>
        <time>2012-04-09T08:42:43Z</time>
      </trkpt>
      <trkpt lat="45.66568" lon="4.45591">
        <ele>700.4580078125</ele>
        <time>2012-04-09T08:42:50Z</time>
      </trkpt>
      <trkpt lat="45.66558" lon="4.4561">
        <ele>702.86108398438</ele>
        <time>2012-04-09T08:42:59Z</time>
      </trkpt>
      <trkpt lat="45.66552" lon="4.45626">
        <ele>703.82250976562</ele>
        <time>2012-04-09T08:43:05Z</time>
      </trkpt>
      <trkpt lat="45.66544" lon="4.45653">
        <ele>705.26440429688</ele>
        <time>2012-04-09T08:43:14Z</time>
      </trkpt>
      <trkpt lat="45.66533" lon="4.45676">
        <ele>706.2255859375</ele>
        <time>2012-04-09T08:43:22Z</time>
      </trkpt>
      <trkpt lat="45.66513" lon="4.45694">
        <ele>707.18701171875</ele>
        <time>2012-04-09T08:43:31Z</time>
      </trkpt>
      <trkpt lat="45.66496" lon="4.45693">
        <ele>708.1484375</ele>
        <time>2012-04-09T08:43:38Z</time>
      </trkpt>
      <trkpt lat="45.66474" lon="4.45689">
        <ele>709.59033203125</ele>
        <time>2012-04-09T08:43:47Z</time>
      </trkpt>
      <trkpt lat="45.66451" lon="4.45686">
        <ele>711.0322265625</ele>
        <time>2012-04-09T08:43:56Z</time>
      </trkpt>
      <trkpt lat="45.66424" lon="4.45683">
        <ele>714.39672851562</ele>
        <time>2012-04-09T08:44:06Z</time>
      </trkpt>
      <trkpt lat="45.66404" lon="4.45684">
        <ele>716.31958007812</ele>
        <time>2012-04-09T08:44:14Z</time>
      </trkpt>
      <trkpt lat="45.6638" lon="4.45688">
        <ele>717.76147460938</ele>
        <time>2012-04-09T08:44:23Z</time>
      </trkpt>
      <trkpt lat="45.66359" lon="4.45692">
        <ele>718.72290039062</ele>
        <time>2012-04-09T08:44:31Z</time>
      </trkpt>
      <trkpt lat="45.66339" lon="4.45694">
        <ele>720.16479492188</ele>
        <time>2012-04-09T08:44:38Z</time>
      </trkpt>
      <trkpt lat="45.66302" lon="4.45694">
        <ele>723.048828125</ele>
        <time>2012-04-09T08:44:51Z</time>
      </trkpt>
      <trkpt lat="45.66272" lon="4.45697">
        <ele>724.97143554688</ele>
        <time>2012-04-09T08:45:01Z</time>
      </trkpt>
      <trkpt lat="45.6626" lon="4.45699">
        <ele>725.9326171875</ele>
        <time>2012-04-09T08:45:05Z</time>
      </trkpt>
      <trkpt lat="45.66232" lon="4.45709">
        <ele>727.37475585938</ele>
        <time>2012-04-09T08:45:15Z</time>
      </trkpt>
      <trkpt lat="45.66222" lon="4.45724">
        <ele>728.3359375</ele>
        <time>2012-04-09T08:45:20Z</time>
      </trkpt>
      <trkpt lat="45.6622" lon="4.45751">
        <ele>730.25854492188</ele>
        <time>2012-04-09T08:45:26Z</time>
      </trkpt>
      <trkpt lat="45.6622" lon="4.45778">
        <ele>732.18139648438</ele>
        <time>2012-04-09T08:45:33Z</time>
      </trkpt>
      <trkpt lat="45.66219" lon="4.45807">
        <ele>734.10400390625</ele>
        <time>2012-04-09T08:45:41Z</time>
      </trkpt>
      <trkpt lat="45.66217" lon="4.45838">
        <ele>735.5458984375</ele>
        <time>2012-04-09T08:45:50Z</time>
      </trkpt>
      <trkpt lat="45.66218" lon="4.45871">
        <ele>736.50732421875</ele>
        <time>2012-04-09T08:45:59Z</time>
      </trkpt>
      <trkpt lat="45.66217" lon="4.45898">
        <ele>738.42993164062</ele>
        <time>2012-04-09T08:46:07Z</time>
      </trkpt>
      <trkpt lat="45.66214" lon="4.45925">
        <ele>739.87182617188</ele>
        <time>2012-04-09T08:46:16Z</time>
      </trkpt>
      <trkpt lat="45.66211" lon="4.45949">
        <ele>741.79443359375</ele>
        <time>2012-04-09T08:46:25Z</time>
      </trkpt>
      <trkpt lat="45.66211" lon="4.45966">
        <ele>743.236328125</ele>
        <time>2012-04-09T08:46:31Z</time>
      </trkpt>
      <trkpt lat="45.66219" lon="4.45974">
        <ele>744.67822265625</ele>
        <time>2012-04-09T08:46:36Z</time>
      </trkpt>
      <trkpt lat="45.66236" lon="4.45987">
        <ele>746.60107421875</ele>
        <time>2012-04-09T08:46:45Z</time>
      </trkpt>
      <trkpt lat="45.66255" lon="4.46007">
        <ele>747.56225585938</ele>
        <time>2012-04-09T08:46:55Z</time>
      </trkpt>
      <trkpt lat="45.66278" lon="4.46025">
        <ele>748.04321289062</ele>
        <time>2012-04-09T08:47:05Z</time>
      </trkpt>
      <trkpt lat="45.66304" lon="4.46044">
        <ele>749.48510742188</ele>
        <time>2012-04-09T08:47:17Z</time>
      </trkpt>
      <trkpt lat="45.66323" lon="4.46065">
        <ele>750.92700195312</ele>
        <time>2012-04-09T08:47:27Z</time>
      </trkpt>
      <trkpt lat="45.66335" lon="4.46083">
        <ele>751.88842773438</ele>
        <time>2012-04-09T08:47:35Z</time>
      </trkpt>
      <trkpt lat="45.66345" lon="4.46097">
        <ele>752.36889648438</ele>
        <time>2012-04-09T08:47:41Z</time>
      </trkpt>
      <trkpt lat="45.66359" lon="4.46122">
        <ele>752.849609375</ele>
        <time>2012-04-09T08:47:50Z</time>
      </trkpt>
      <trkpt lat="45.66377" lon="4.46152">
        <ele>753.81103515625</ele>
        <time>2012-04-09T08:48:01Z</time>
      </trkpt>
      <trkpt lat="45.66396" lon="4.46174">
        <ele>755.73364257812</ele>
        <time>2012-04-09T08:48:11Z</time>
      </trkpt>
      <trkpt lat="45.66407" lon="4.4619">
        <ele>757.65625</ele>
        <time>2012-04-09T08:48:17Z</time>
      </trkpt>
      <trkpt lat="45.66421" lon="4.46201">
        <ele>759.57885742188</ele>
        <time>2012-04-09T08:48:23Z</time>
      </trkpt>
      <trkpt lat="45.66434" lon="4.4621">
        <ele>761.02075195312</ele>
        <time>2012-04-09T08:48:30Z</time>
      </trkpt>
      <trkpt lat="45.66451" lon="4.46224">
        <ele>763.42407226562</ele>
        <time>2012-04-09T08:48:39Z</time>
      </trkpt>
      <trkpt lat="45.66463" lon="4.46237">
        <ele>763.42407226562</ele>
        <time>2012-04-09T08:48:47Z</time>
      </trkpt>
      <trkpt lat="45.66474" lon="4.46253">
        <ele>763.90454101562</ele>
        <time>2012-04-09T08:48:54Z</time>
      </trkpt>
      <trkpt lat="45.6648" lon="4.46265">
        <ele>764.8662109375</ele>
        <time>2012-04-09T08:48:59Z</time>
      </trkpt>
      <trkpt lat="45.66485" lon="4.4628">
        <ele>768.23071289062</ele>
        <time>2012-04-09T08:49:06Z</time>
      </trkpt>
      <trkpt lat="45.66488" lon="4.46286">
        <ele>769.19213867188</ele>
        <time>2012-04-09T08:49:09Z</time>
      </trkpt>
      <trkpt lat="45.66493" lon="4.46299">
        <ele>770.1533203125</ele>
        <time>2012-04-09T08:49:15Z</time>
      </trkpt>
      <trkpt lat="45.66494" lon="4.46302">
        <ele>771.11474609375</ele>
        <time>2012-04-09T08:49:17Z</time>
      </trkpt>
      <trkpt lat="45.66504" lon="4.46321">
        <ele>774.9599609375</ele>
        <time>2012-04-09T08:49:26Z</time>
      </trkpt>
      <trkpt lat="45.66512" lon="4.46334">
        <ele>774.47924804688</ele>
        <time>2012-04-09T08:49:31Z</time>
      </trkpt>
      <trkpt lat="45.66523" lon="4.46351">
        <ele>774.47924804688</ele>
        <time>2012-04-09T08:49:37Z</time>
      </trkpt>
      <trkpt lat="45.66538" lon="4.46367">
        <ele>773.99853515625</ele>
        <time>2012-04-09T08:49:43Z</time>
      </trkpt>
      <trkpt lat="45.66552" lon="4.46381">
        <ele>773.99853515625</ele>
        <time>2012-04-09T08:49:48Z</time>
      </trkpt>
      <trkpt lat="45.66568" lon="4.46397">
        <ele>772.07592773438</ele>
        <time>2012-04-09T08:49:53Z</time>
      </trkpt>
      <trkpt lat="45.66586" lon="4.46415">
        <ele>773.51806640625</ele>
        <time>2012-04-09T08:49:58Z</time>
      </trkpt>
      <trkpt lat="45.66594" lon="4.46429">
        <ele>772.07592773438</ele>
        <time>2012-04-09T08:50:03Z</time>
      </trkpt>
      <trkpt lat="45.666" lon="4.46453">
        <ele>769.6728515625</ele>
        <time>2012-04-09T08:50:09Z</time>
      </trkpt>
      <trkpt lat="45.666" lon="4.46476">
        <ele>769.6728515625</ele>
        <time>2012-04-09T08:50:15Z</time>
      </trkpt>
      <trkpt lat="45.66595" lon="4.46495">
        <ele>769.6728515625</ele>
        <time>2012-04-09T08:50:21Z</time>
      </trkpt>
      <trkpt lat="45.66584" lon="4.46511">
        <ele>769.6728515625</ele>
        <time>2012-04-09T08:50:28Z</time>
      </trkpt>
      <trkpt lat="45.6658" lon="4.46518">
        <ele>770.1533203125</ele>
        <time>2012-04-09T08:50:31Z</time>
      </trkpt>
      <trkpt lat="45.66585" lon="4.46534">
        <ele>770.1533203125</ele>
        <time>2012-04-09T08:50:36Z</time>
      </trkpt>
      <trkpt lat="45.66602" lon="4.46555">
        <ele>772.07592773438</ele>
        <time>2012-04-09T08:50:44Z</time>
      </trkpt>
      <trkpt lat="45.66616" lon="4.46582">
        <ele>774.47924804688</ele>
        <time>2012-04-09T08:50:54Z</time>
      </trkpt>
      <trkpt lat="45.66628" lon="4.4661">
        <ele>776.88256835938</ele>
        <time>2012-04-09T08:51:04Z</time>
      </trkpt>
      <trkpt lat="45.66635" lon="4.46625">
        <ele>778.80517578125</ele>
        <time>2012-04-09T08:51:10Z</time>
      </trkpt>
      <trkpt lat="45.66649" lon="4.46633">
        <ele>780.72802734375</ele>
        <time>2012-04-09T08:51:18Z</time>
      </trkpt>
      <trkpt lat="45.66666" lon="4.46642">
        <ele>783.13110351562</ele>
        <time>2012-04-09T08:51:28Z</time>
      </trkpt>
      <trkpt lat="45.6668" lon="4.46649">
        <ele>784.5732421875</ele>
        <time>2012-04-09T08:51:36Z</time>
      </trkpt>
      <trkpt lat="45.66688" lon="4.46666">
        <ele>785.53442382812</ele>
        <time>2012-04-09T08:51:43Z</time>
      </trkpt>
      <trkpt lat="45.66695" lon="4.46689">
        <ele>786.01513671875</ele>
        <time>2012-04-09T08:51:52Z</time>
      </trkpt>
      <trkpt lat="45.66703" lon="4.46718">
        <ele>786.49584960938</ele>
        <time>2012-04-09T08:52:02Z</time>
      </trkpt>
      <trkpt lat="45.66711" lon="4.4675">
        <ele>786.01513671875</ele>
        <time>2012-04-09T08:52:10Z</time>
      </trkpt>
      <trkpt lat="45.66724" lon="4.46787">
        <ele>786.97631835938</ele>
        <time>2012-04-09T08:52:18Z</time>
      </trkpt>
      <trkpt lat="45.66727" lon="4.46792">
        <ele>787.93774414062</ele>
        <time>2012-04-09T08:52:20Z</time>
      </trkpt>
      <trkpt lat="45.66731" lon="4.46808">
        <ele>787.93774414062</ele>
        <time>2012-04-09T08:52:25Z</time>
      </trkpt>
      <trkpt lat="45.66735" lon="4.46824">
        <ele>786.97631835938</ele>
        <time>2012-04-09T08:52:29Z</time>
      </trkpt>
      <trkpt lat="45.66743" lon="4.46836">
        <ele>787.93774414062</ele>
        <time>2012-04-09T08:52:34Z</time>
      </trkpt>
      <trkpt lat="45.66758" lon="4.46847">
        <ele>788.41845703125</ele>
        <time>2012-04-09T08:52:41Z</time>
      </trkpt>
      <trkpt lat="45.66774" lon="4.4686">
        <ele>786.97631835938</ele>
        <time>2012-04-09T08:52:47Z</time>
      </trkpt>
      <trkpt lat="45.66788" lon="4.46873">
        <ele>783.61181640625</ele>
        <time>2012-04-09T08:52:52Z</time>
      </trkpt>
      <trkpt lat="45.66803" lon="4.46892">
        <ele>783.13110351562</ele>
        <time>2012-04-09T08:52:57Z</time>
      </trkpt>
      <trkpt lat="45.66826" lon="4.46922">
        <ele>783.13110351562</ele>
        <time>2012-04-09T08:53:03Z</time>
      </trkpt>
      <trkpt lat="45.66854" lon="4.46958">
        <ele>784.09252929688</ele>
        <time>2012-04-09T08:53:11Z</time>
      </trkpt>
      <trkpt lat="45.66872" lon="4.46989">
        <ele>784.5732421875</ele>
        <time>2012-04-09T08:53:17Z</time>
      </trkpt>
      <trkpt lat="45.6689" lon="4.47018">
        <ele>785.05395507812</ele>
        <time>2012-04-09T08:53:23Z</time>
      </trkpt>
      <trkpt lat="45.66914" lon="4.47048">
        <ele>783.61181640625</ele>
        <time>2012-04-09T08:53:30Z</time>
      </trkpt>
      <trkpt lat="45.66924" lon="4.47063">
        <ele>782.169921875</ele>
        <time>2012-04-09T08:53:33Z</time>
      </trkpt>
      <trkpt lat="45.66935" lon="4.47093">
        <ele>780.72802734375</ele>
        <time>2012-04-09T08:53:37Z</time>
      </trkpt>
      <trkpt lat="45.66954" lon="4.4712">
        <ele>777.36328125</ele>
        <time>2012-04-09T08:53:41Z</time>
      </trkpt>
      <trkpt lat="45.66963" lon="4.47123">
        <ele>776.40185546875</ele>
        <time>2012-04-09T08:53:42Z</time>
      </trkpt>
      <trkpt lat="45.67005" lon="4.47141">
        <ele>770.63403320312</ele>
        <time>2012-04-09T08:53:47Z</time>
      </trkpt>
      <trkpt lat="45.67038" lon="4.47169">
        <ele>767.26953125</ele>
        <time>2012-04-09T08:53:51Z</time>
      </trkpt>
      <trkpt lat="45.67052" lon="4.47187">
        <ele>766.30810546875</ele>
        <time>2012-04-09T08:53:53Z</time>
      </trkpt>
      <trkpt lat="45.67077" lon="4.47236">
        <ele>765.34692382812</ele>
        <time>2012-04-09T08:53:59Z</time>
      </trkpt>
      <trkpt lat="45.67086" lon="4.47255">
        <ele>765.34692382812</ele>
        <time>2012-04-09T08:54:02Z</time>
      </trkpt>
      <trkpt lat="45.67105" lon="4.47294">
        <ele>766.30810546875</ele>
        <time>2012-04-09T08:54:10Z</time>
      </trkpt>
      <trkpt lat="45.67108" lon="4.47299">
        <ele>766.30810546875</ele>
        <time>2012-04-09T08:54:11Z</time>
      </trkpt>
      <trkpt lat="45.67128" lon="4.47338">
        <ele>766.78881835938</ele>
        <time>2012-04-09T08:54:20Z</time>
      </trkpt>
      <trkpt lat="45.67148" lon="4.47382">
        <ele>768.71142578125</ele>
        <time>2012-04-09T08:54:30Z</time>
      </trkpt>
      <trkpt lat="45.67162" lon="4.47418">
        <ele>773.03735351562</ele>
        <time>2012-04-09T08:54:39Z</time>
      </trkpt>
      <trkpt lat="45.67171" lon="4.47445">
        <ele>774.9599609375</ele>
        <time>2012-04-09T08:54:47Z</time>
      </trkpt>
      <trkpt lat="45.67183" lon="4.47475">
        <ele>774.47924804688</ele>
        <time>2012-04-09T08:54:54Z</time>
      </trkpt>
      <trkpt lat="45.67192" lon="4.47517">
        <ele>774.47924804688</ele>
        <time>2012-04-09T08:55:02Z</time>
      </trkpt>
      <trkpt lat="45.67204" lon="4.47573">
        <ele>774.47924804688</ele>
        <time>2012-04-09T08:55:12Z</time>
      </trkpt>
      <trkpt lat="45.67218" lon="4.47619">
        <ele>774.9599609375</ele>
        <time>2012-04-09T08:55:21Z</time>
      </trkpt>
      <trkpt lat="45.6723" lon="4.47655">
        <ele>776.88256835938</ele>
        <time>2012-04-09T08:55:29Z</time>
      </trkpt>
      <trkpt lat="45.67241" lon="4.47682">
        <ele>776.88256835938</ele>
        <time>2012-04-09T08:55:36Z</time>
      </trkpt>
      <trkpt lat="45.67248" lon="4.47711">
        <ele>775.92114257812</ele>
        <time>2012-04-09T08:55:42Z</time>
      </trkpt>
      <trkpt lat="45.67255" lon="4.47758">
        <ele>773.99853515625</ele>
        <time>2012-04-09T08:55:49Z</time>
      </trkpt>
      <trkpt lat="45.67266" lon="4.47817">
        <ele>773.03735351562</ele>
        <time>2012-04-09T08:55:57Z</time>
      </trkpt>
      <trkpt lat="45.67274" lon="4.47855">
        <ele>773.03735351562</ele>
        <time>2012-04-09T08:56:03Z</time>
      </trkpt>
      <trkpt lat="45.67279" lon="4.47892">
        <ele>773.99853515625</ele>
        <time>2012-04-09T08:56:10Z</time>
      </trkpt>
      <trkpt lat="45.67278" lon="4.47917">
        <ele>774.47924804688</ele>
        <time>2012-04-09T08:56:15Z</time>
      </trkpt>
      <trkpt lat="45.67275" lon="4.47952">
        <ele>773.99853515625</ele>
        <time>2012-04-09T08:56:23Z</time>
      </trkpt>
      <trkpt lat="45.67276" lon="4.47977">
        <ele>772.556640625</ele>
        <time>2012-04-09T08:56:28Z</time>
      </trkpt>
      <trkpt lat="45.67279" lon="4.48002">
        <ele>772.07592773438</ele>
        <time>2012-04-09T08:56:33Z</time>
      </trkpt>
      <trkpt lat="45.67284" lon="4.48027">
        <ele>772.556640625</ele>
        <time>2012-04-09T08:56:38Z</time>
      </trkpt>
      <trkpt lat="45.67297" lon="4.48043">
        <ele>773.51806640625</ele>
        <time>2012-04-09T08:56:44Z</time>
      </trkpt>
      <trkpt lat="45.67308" lon="4.48048">
        <ele>774.47924804688</ele>
        <time>2012-04-09T08:56:49Z</time>
      </trkpt>
      <trkpt lat="45.67324" lon="4.48054">
        <ele>775.92114257812</ele>
        <time>2012-04-09T08:56:56Z</time>
      </trkpt>
      <trkpt lat="45.67344" lon="4.48061">
        <ele>776.40185546875</ele>
        <time>2012-04-09T08:57:03Z</time>
      </trkpt>
      <trkpt lat="45.67369" lon="4.4807">
        <ele>775.92114257812</ele>
        <time>2012-04-09T08:57:10Z</time>
      </trkpt>
      <trkpt lat="45.67395" lon="4.48087">
        <ele>776.40185546875</ele>
        <time>2012-04-09T08:57:18Z</time>
      </trkpt>
      <trkpt lat="45.67411" lon="4.48101">
        <ele>775.4404296875</ele>
        <time>2012-04-09T08:57:24Z</time>
      </trkpt>
      <trkpt lat="45.67414" lon="4.48105">
        <ele>775.4404296875</ele>
        <time>2012-04-09T08:57:26Z</time>
      </trkpt>
      <trkpt lat="45.67415" lon="4.48106">
        <ele>775.4404296875</ele>
        <time>2012-04-09T08:57:29Z</time>
      </trkpt>
      <trkpt lat="45.67427" lon="4.4811">
        <ele>775.92114257812</ele>
        <time>2012-04-09T08:57:34Z</time>
      </trkpt>
      <trkpt lat="45.67452" lon="4.4811">
        <ele>774.47924804688</ele>
        <time>2012-04-09T08:57:39Z</time>
      </trkpt>
      <trkpt lat="45.67497" lon="4.48107">
        <ele>771.11474609375</ele>
        <time>2012-04-09T08:57:46Z</time>
      </trkpt>
      <trkpt lat="45.6754" lon="4.48105">
        <ele>767.26953125</ele>
        <time>2012-04-09T08:57:51Z</time>
      </trkpt>
      <trkpt lat="45.676" lon="4.48097">
        <ele>762.46264648438</ele>
        <time>2012-04-09T08:57:57Z</time>
      </trkpt>
      <trkpt lat="45.67654" lon="4.48088">
        <ele>758.13696289062</ele>
        <time>2012-04-09T08:58:02Z</time>
      </trkpt>
      <trkpt lat="45.6773" lon="4.48076">
        <ele>754.29174804688</ele>
        <time>2012-04-09T08:58:09Z</time>
      </trkpt>
      <trkpt lat="45.67749" lon="4.4809">
        <ele>754.77221679688</ele>
        <time>2012-04-09T08:58:13Z</time>
      </trkpt>
      <trkpt lat="45.6775" lon="4.48096">
        <ele>754.77221679688</ele>
        <time>2012-04-09T08:58:14Z</time>
      </trkpt>
      <trkpt lat="45.67748" lon="4.48117">
        <ele>755.73364257812</ele>
        <time>2012-04-09T08:58:18Z</time>
      </trkpt>
      <trkpt lat="45.67742" lon="4.48142">
        <ele>756.21411132812</ele>
        <time>2012-04-09T08:58:24Z</time>
      </trkpt>
      <trkpt lat="45.67739" lon="4.48175">
        <ele>756.69482421875</ele>
        <time>2012-04-09T08:58:32Z</time>
      </trkpt>
      <trkpt lat="45.67743" lon="4.48191">
        <ele>757.65625</ele>
        <time>2012-04-09T08:58:37Z</time>
      </trkpt>
      <trkpt lat="45.67753" lon="4.48193">
        <ele>758.61743164062</ele>
        <time>2012-04-09T08:58:42Z</time>
      </trkpt>
      <trkpt lat="45.67765" lon="4.48189">
        <ele>760.05932617188</ele>
        <time>2012-04-09T08:58:48Z</time>
      </trkpt>
      <trkpt lat="45.67782" lon="4.48183">
        <ele>762.46264648438</ele>
        <time>2012-04-09T08:58:56Z</time>
      </trkpt>
      <trkpt lat="45.67802" lon="4.48175">
        <ele>764.8662109375</ele>
        <time>2012-04-09T08:59:06Z</time>
      </trkpt>
      <trkpt lat="45.67816" lon="4.48171">
        <ele>766.30810546875</ele>
        <time>2012-04-09T08:59:13Z</time>
      </trkpt>
      <trkpt lat="45.67837" lon="4.48164">
        <ele>768.71142578125</ele>
        <time>2012-04-09T08:59:24Z</time>
      </trkpt>
      <trkpt lat="45.67854" lon="4.4816">
        <ele>771.11474609375</ele>
        <time>2012-04-09T08:59:34Z</time>
      </trkpt>
      <trkpt lat="45.67867" lon="4.48162">
        <ele>773.51806640625</ele>
        <time>2012-04-09T08:59:41Z</time>
      </trkpt>
      <trkpt lat="45.67882" lon="4.48166">
        <ele>775.92114257812</ele>
        <time>2012-04-09T08:59:50Z</time>
      </trkpt>
      <trkpt lat="45.67891" lon="4.48174">
        <ele>776.88256835938</ele>
        <time>2012-04-09T08:59:56Z</time>
      </trkpt>
      <trkpt lat="45.67891" lon="4.4819">
        <ele>775.92114257812</ele>
        <time>2012-04-09T09:00:01Z</time>
      </trkpt>
      <trkpt lat="45.67886" lon="4.48215">
        <ele>773.03735351562</ele>
        <time>2012-04-09T09:00:05Z</time>
      </trkpt>
      <trkpt lat="45.67879" lon="4.48259">
        <ele>769.6728515625</ele>
        <time>2012-04-09T09:00:10Z</time>
      </trkpt>
      <trkpt lat="45.6787" lon="4.4832">
        <ele>767.75</ele>
        <time>2012-04-09T09:00:16Z</time>
      </trkpt>
      <trkpt lat="45.6787" lon="4.48328">
        <ele>767.75</ele>
        <time>2012-04-09T09:00:17Z</time>
      </trkpt>
      <trkpt lat="45.67878" lon="4.48379">
        <ele>767.26953125</ele>
        <time>2012-04-09T09:00:24Z</time>
      </trkpt>
      <trkpt lat="45.67879" lon="4.48404">
        <ele>767.26953125</ele>
        <time>2012-04-09T09:00:28Z</time>
      </trkpt>
      <trkpt lat="45.67875" lon="4.48428">
        <ele>767.26953125</ele>
        <time>2012-04-09T09:00:33Z</time>
      </trkpt>
      <trkpt lat="45.67854" lon="4.48465">
        <ele>764.38549804688</ele>
        <time>2012-04-09T09:00:41Z</time>
      </trkpt>
      <trkpt lat="45.6783" lon="4.48495">
        <ele>762.943359375</ele>
        <time>2012-04-09T09:00:47Z</time>
      </trkpt>
      <trkpt lat="45.67812" lon="4.4851">
        <ele>763.90454101562</ele>
        <time>2012-04-09T09:00:53Z</time>
      </trkpt>
      <trkpt lat="45.67797" lon="4.48524">
        <ele>765.82763671875</ele>
        <time>2012-04-09T09:01:00Z</time>
      </trkpt>
      <trkpt lat="45.67785" lon="4.48533">
        <ele>768.23071289062</ele>
        <time>2012-04-09T09:01:07Z</time>
      </trkpt>
      <trkpt lat="45.67777" lon="4.48543">
        <ele>770.1533203125</ele>
        <time>2012-04-09T09:01:14Z</time>
      </trkpt>
      <trkpt lat="45.67781" lon="4.4856">
        <ele>772.556640625</ele>
        <time>2012-04-09T09:01:22Z</time>
      </trkpt>
      <trkpt lat="45.67789" lon="4.48576">
        <ele>775.4404296875</ele>
        <time>2012-04-09T09:01:29Z</time>
      </trkpt>
      <trkpt lat="45.67792" lon="4.4859">
        <ele>777.84375</ele>
        <time>2012-04-09T09:01:35Z</time>
      </trkpt>
      <trkpt lat="45.67792" lon="4.48603">
        <ele>779.28564453125</ele>
        <time>2012-04-09T09:01:41Z</time>
      </trkpt>
      <trkpt lat="45.67793" lon="4.48621">
        <ele>780.24731445312</ele>
        <time>2012-04-09T09:01:48Z</time>
      </trkpt>
      <trkpt lat="45.67788" lon="4.48648">
        <ele>782.65063476562</ele>
        <time>2012-04-09T09:02:00Z</time>
      </trkpt>
      <trkpt lat="45.6778" lon="4.48667">
        <ele>785.53442382812</ele>
        <time>2012-04-09T09:02:10Z</time>
      </trkpt>
      <trkpt lat="45.67776" lon="4.48679">
        <ele>787.93774414062</ele>
        <time>2012-04-09T09:02:17Z</time>
      </trkpt>
      <trkpt lat="45.67767" lon="4.4869">
        <ele>789.8603515625</ele>
        <time>2012-04-09T09:02:25Z</time>
      </trkpt>
      <trkpt lat="45.67759" lon="4.48698">
        <ele>791.78295898438</ele>
        <time>2012-04-09T09:02:32Z</time>
      </trkpt>
      <trkpt lat="45.67751" lon="4.48709">
        <ele>793.70556640625</ele>
        <time>2012-04-09T09:02:40Z</time>
      </trkpt>
      <trkpt lat="45.6774" lon="4.48719">
        <ele>795.62817382812</ele>
        <time>2012-04-09T09:02:49Z</time>
      </trkpt>
      <trkpt lat="45.67728" lon="4.48729">
        <ele>797.55102539062</ele>
        <time>2012-04-09T09:02:58Z</time>
      </trkpt>
      <trkpt lat="45.67721" lon="4.48745">
        <ele>798.99291992188</ele>
        <time>2012-04-09T09:03:06Z</time>
      </trkpt>
      <trkpt lat="45.67714" lon="4.48762">
        <ele>800.91552734375</ele>
        <time>2012-04-09T09:03:15Z</time>
      </trkpt>
      <trkpt lat="45.67706" lon="4.48781">
        <ele>802.83813476562</ele>
        <time>2012-04-09T09:03:25Z</time>
      </trkpt>
      <trkpt lat="45.67694" lon="4.48803">
        <ele>804.7607421875</ele>
        <time>2012-04-09T09:03:37Z</time>
      </trkpt>
      <trkpt lat="45.67683" lon="4.48823">
        <ele>806.20263671875</ele>
        <time>2012-04-09T09:03:48Z</time>
      </trkpt>
      <trkpt lat="45.67673" lon="4.4884">
        <ele>807.64477539062</ele>
        <time>2012-04-09T09:03:57Z</time>
      </trkpt>
      <trkpt lat="45.67665" lon="4.48859">
        <ele>808.60595703125</ele>
        <time>2012-04-09T09:04:05Z</time>
      </trkpt>
      <trkpt lat="45.67653" lon="4.48893">
        <ele>809.5673828125</ele>
        <time>2012-04-09T09:04:18Z</time>
      </trkpt>
      <trkpt lat="45.67648" lon="4.48918">
        <ele>810.0478515625</ele>
        <time>2012-04-09T09:04:26Z</time>
      </trkpt>
      <trkpt lat="45.67645" lon="4.48947">
        <ele>811.00927734375</ele>
        <time>2012-04-09T09:04:34Z</time>
      </trkpt>
      <trkpt lat="45.67639" lon="4.4899">
        <ele>811.48999023438</ele>
        <time>2012-04-09T09:04:46Z</time>
      </trkpt>
      <trkpt lat="45.67629" lon="4.49026">
        <ele>811.970703125</ele>
        <time>2012-04-09T09:04:56Z</time>
      </trkpt>
      <trkpt lat="45.67616" lon="4.49053">
        <ele>811.970703125</ele>
        <time>2012-04-09T09:05:04Z</time>
      </trkpt>
      <trkpt lat="45.67601" lon="4.49075">
        <ele>811.48999023438</ele>
        <time>2012-04-09T09:05:11Z</time>
      </trkpt>
      <trkpt lat="45.67585" lon="4.49107">
        <ele>811.00927734375</ele>
        <time>2012-04-09T09:05:20Z</time>
      </trkpt>
      <trkpt lat="45.67572" lon="4.49139">
        <ele>810.52856445312</ele>
        <time>2012-04-09T09:05:29Z</time>
      </trkpt>
      <trkpt lat="45.67563" lon="4.49163">
        <ele>811.00927734375</ele>
        <time>2012-04-09T09:05:36Z</time>
      </trkpt>
      <trkpt lat="45.6755" lon="4.49198">
        <ele>811.48999023438</ele>
        <time>2012-04-09T09:05:47Z</time>
      </trkpt>
      <trkpt lat="45.67543" lon="4.49217">
        <ele>812.93212890625</ele>
        <time>2012-04-09T09:05:54Z</time>
      </trkpt>
      <trkpt lat="45.67534" lon="4.49242">
        <ele>815.33544921875</ele>
        <time>2012-04-09T09:06:04Z</time>
      </trkpt>
      <trkpt lat="45.67528" lon="4.49262">
        <ele>816.29663085938</ele>
        <time>2012-04-09T09:06:12Z</time>
      </trkpt>
      <trkpt lat="45.67528" lon="4.49274">
        <ele>816.77734375</ele>
        <time>2012-04-09T09:06:17Z</time>
      </trkpt>
      <trkpt lat="45.6753" lon="4.49278">
        <ele>817.73852539062</ele>
        <time>2012-04-09T09:06:22Z</time>
      </trkpt>
      <trkpt lat="45.67529" lon="4.4928">
        <ele>819.66137695312</ele>
        <time>2012-04-09T09:06:32Z</time>
      </trkpt>
      <trkpt lat="45.6753" lon="4.49281">
        <ele>820.14184570312</ele>
        <time>2012-04-09T09:06:38Z</time>
      </trkpt>
      <trkpt lat="45.67529" lon="4.49281">
        <ele>820.14184570312</ele>
        <time>2012-04-09T09:06:45Z</time>
      </trkpt>
      <trkpt lat="45.67529" lon="4.4928">
        <ele>820.62255859375</ele>
        <time>2012-04-09T09:07:01Z</time>
      </trkpt>
      <trkpt lat="45.67528" lon="4.4928">
        <ele>821.10327148438</ele>
        <time>2012-04-09T09:07:12Z</time>
      </trkpt>
      <trkpt lat="45.67527" lon="4.4928">
        <ele>820.62255859375</ele>
        <time>2012-04-09T09:07:20Z</time>
      </trkpt>
      <trkpt lat="45.67528" lon="4.4928">
        <ele>821.10327148438</ele>
        <time>2012-04-09T09:07:32Z</time>
      </trkpt>
      <trkpt lat="45.67527" lon="4.4928">
        <ele>821.10327148438</ele>
        <time>2012-04-09T09:07:47Z</time>
      </trkpt>
      <trkpt lat="45.67529" lon="4.49278">
        <ele>820.62255859375</ele>
        <time>2012-04-09T09:07:54Z</time>
      </trkpt>
      <trkpt lat="45.67524" lon="4.49261">
        <ele>820.14184570312</ele>
        <time>2012-04-09T09:08:00Z</time>
      </trkpt>
      <trkpt lat="45.67524" lon="4.49258">
        <ele>819.66137695312</ele>
        <time>2012-04-09T09:08:03Z</time>
      </trkpt>
      <trkpt lat="45.67524" lon="4.49257">
        <ele>819.1806640625</ele>
        <time>2012-04-09T09:08:07Z</time>
      </trkpt>
      <trkpt lat="45.67524" lon="4.49258">
        <ele>819.1806640625</ele>
        <time>2012-04-09T09:08:12Z</time>
      </trkpt>
      <trkpt lat="45.67525" lon="4.49259">
        <ele>819.66137695312</ele>
        <time>2012-04-09T09:08:21Z</time>
      </trkpt>
      <trkpt lat="45.67524" lon="4.4926">
        <ele>819.1806640625</ele>
        <time>2012-04-09T09:08:28Z</time>
      </trkpt>
      <trkpt lat="45.67524" lon="4.49259">
        <ele>818.69995117188</ele>
        <time>2012-04-09T09:08:34Z</time>
      </trkpt>
      <trkpt lat="45.67525" lon="4.4926">
        <ele>818.21923828125</ele>
        <time>2012-04-09T09:08:49Z</time>
      </trkpt>
      <trkpt lat="45.67525" lon="4.49259">
        <ele>818.69995117188</ele>
        <time>2012-04-09T09:09:17Z</time>
      </trkpt>
      <trkpt lat="45.67525" lon="4.49259">
        <ele>819.1806640625</ele>
        <time>2012-04-09T09:09:26Z</time>
      </trkpt>
      <trkpt lat="45.67525" lon="4.49259">
        <ele>818.69995117188</ele>
        <time>2012-04-09T09:09:43Z</time>
      </trkpt>
      <trkpt lat="45.67525" lon="4.49259">
        <ele>818.69995117188</ele>
        <time>2012-04-09T09:09:49Z</time>
      </trkpt>
      <trkpt lat="45.67525" lon="4.49259">
        <ele>819.66137695312</ele>
        <time>2012-04-09T09:09:59Z</time>
      </trkpt>
      <trkpt lat="45.67525" lon="4.49259">
        <ele>819.1806640625</ele>
        <time>2012-04-09T09:10:06Z</time>
      </trkpt>
      <trkpt lat="45.67525" lon="4.49259">
        <ele>819.66137695312</ele>
        <time>2012-04-09T09:10:13Z</time>
      </trkpt>
      <trkpt lat="45.67525" lon="4.4926">
        <ele>819.66137695312</ele>
        <time>2012-04-09T09:10:26Z</time>
      </trkpt>
      <trkpt lat="45.67525" lon="4.4926">
        <ele>818.69995117188</ele>
        <time>2012-04-09T09:10:41Z</time>
      </trkpt>
      <trkpt lat="45.67525" lon="4.4926">
        <ele>817.73852539062</ele>
        <time>2012-04-09T09:10:55Z</time>
      </trkpt>
      <trkpt lat="45.67525" lon="4.4926">
        <ele>817.25805664062</ele>
        <time>2012-04-09T09:11:08Z</time>
      </trkpt>
      <trkpt lat="45.67525" lon="4.49261">
        <ele>817.73852539062</ele>
        <time>2012-04-09T09:11:28Z</time>
      </trkpt>
      <trkpt lat="45.67525" lon="4.49261">
        <ele>818.21923828125</ele>
        <time>2012-04-09T09:11:49Z</time>
      </trkpt>
      <trkpt lat="45.67525" lon="4.49261">
        <ele>818.21923828125</ele>
        <time>2012-04-09T09:11:55Z</time>
      </trkpt>
      <trkpt lat="45.67526" lon="4.49261">
        <ele>817.73852539062</ele>
        <time>2012-04-09T09:12:06Z</time>
      </trkpt>
      <trkpt lat="45.67526" lon="4.49261">
        <ele>818.21923828125</ele>
        <time>2012-04-09T09:12:14Z</time>
      </trkpt>
      <trkpt lat="45.67525" lon="4.4926">
        <ele>819.1806640625</ele>
        <time>2012-04-09T09:12:31Z</time>
      </trkpt>
      <trkpt lat="45.67525" lon="4.49259">
        <ele>819.66137695312</ele>
        <time>2012-04-09T09:12:45Z</time>
      </trkpt>
      <trkpt lat="45.67525" lon="4.49259">
        <ele>819.1806640625</ele>
        <time>2012-04-09T09:12:52Z</time>
      </trkpt>
      <trkpt lat="45.67525" lon="4.49259">
        <ele>820.14184570312</ele>
        <time>2012-04-09T09:13:02Z</time>
      </trkpt>
      <trkpt lat="45.67525" lon="4.49259">
        <ele>820.62255859375</ele>
        <time>2012-04-09T09:13:12Z</time>
      </trkpt>
      <trkpt lat="45.67525" lon="4.49259">
        <ele>820.62255859375</ele>
        <time>2012-04-09T09:13:20Z</time>
      </trkpt>
      <trkpt lat="45.67525" lon="4.49258">
        <ele>820.62255859375</ele>
        <time>2012-04-09T09:13:26Z</time>
      </trkpt>
      <trkpt lat="45.67525" lon="4.4926">
        <ele>821.10327148438</ele>
        <time>2012-04-09T09:13:33Z</time>
      </trkpt>
      <trkpt lat="45.67525" lon="4.49259">
        <ele>822.54516601562</ele>
        <time>2012-04-09T09:13:59Z</time>
      </trkpt>
      <trkpt lat="45.67524" lon="4.49259">
        <ele>822.54516601562</ele>
        <time>2012-04-09T09:14:06Z</time>
      </trkpt>
      <trkpt lat="45.67524" lon="4.49259">
        <ele>822.54516601562</ele>
        <time>2012-04-09T09:14:13Z</time>
      </trkpt>
      <trkpt lat="45.67524" lon="4.49259">
        <ele>822.54516601562</ele>
        <time>2012-04-09T09:14:18Z</time>
      </trkpt>
      <trkpt lat="45.67524" lon="4.49259">
        <ele>822.54516601562</ele>
        <time>2012-04-09T09:14:27Z</time>
      </trkpt>
      <trkpt lat="45.67524" lon="4.4926">
        <ele>822.064453125</ele>
        <time>2012-04-09T09:14:33Z</time>
      </trkpt>
      <trkpt lat="45.67524" lon="4.49259">
        <ele>822.064453125</ele>
        <time>2012-04-09T09:14:38Z</time>
      </trkpt>
      <trkpt lat="45.67524" lon="4.49259">
        <ele>822.54516601562</ele>
        <time>2012-04-09T09:14:46Z</time>
      </trkpt>
      <trkpt lat="45.67525" lon="4.49259">
        <ele>822.54516601562</ele>
        <time>2012-04-09T09:14:52Z</time>
      </trkpt>
      <trkpt lat="45.67525" lon="4.49259">
        <ele>822.064453125</ele>
        <time>2012-04-09T09:14:57Z</time>
      </trkpt>
      <trkpt lat="45.67525" lon="4.49259">
        <ele>821.58374023438</ele>
        <time>2012-04-09T09:15:14Z</time>
      </trkpt>
      <trkpt lat="45.67526" lon="4.49259">
        <ele>821.58374023438</ele>
        <time>2012-04-09T09:15:23Z</time>
      </trkpt>
      <trkpt lat="45.67525" lon="4.49259">
        <ele>820.62255859375</ele>
        <time>2012-04-09T09:15:42Z</time>
      </trkpt>
      <trkpt lat="45.67526" lon="4.4926">
        <ele>820.62255859375</ele>
        <time>2012-04-09T09:15:54Z</time>
      </trkpt>
      <trkpt lat="45.67527" lon="4.4926">
        <ele>820.62255859375</ele>
        <time>2012-04-09T09:16:15Z</time>
      </trkpt>
      <trkpt lat="45.67526" lon="4.49259">
        <ele>820.14184570312</ele>
        <time>2012-04-09T09:16:22Z</time>
      </trkpt>
      <trkpt lat="45.67526" lon="4.49259">
        <ele>819.66137695312</ele>
        <time>2012-04-09T09:16:32Z</time>
      </trkpt>
      <trkpt lat="45.67525" lon="4.49259">
        <ele>819.66137695312</ele>
        <time>2012-04-09T09:16:40Z</time>
      </trkpt>
      <trkpt lat="45.67525" lon="4.49262">
        <ele>820.14184570312</ele>
        <time>2012-04-09T09:16:44Z</time>
      </trkpt>
      <trkpt lat="45.67525" lon="4.4926">
        <ele>820.62255859375</ele>
        <time>2012-04-09T09:16:50Z</time>
      </trkpt>
      <trkpt lat="45.67525" lon="4.49259">
        <ele>820.14184570312</ele>
        <time>2012-04-09T09:17:01Z</time>
      </trkpt>
      <trkpt lat="45.67525" lon="4.49259">
        <ele>820.62255859375</ele>
        <time>2012-04-09T09:17:11Z</time>
      </trkpt>
      <trkpt lat="45.67526" lon="4.49259">
        <ele>820.62255859375</ele>
        <time>2012-04-09T09:17:18Z</time>
      </trkpt>
      <trkpt lat="45.67525" lon="4.49259">
        <ele>820.62255859375</ele>
        <time>2012-04-09T09:17:23Z</time>
      </trkpt>
      <trkpt lat="45.67526" lon="4.49259">
        <ele>820.62255859375</ele>
        <time>2012-04-09T09:17:30Z</time>
      </trkpt>
      <trkpt lat="45.67526" lon="4.4926">
        <ele>820.62255859375</ele>
        <time>2012-04-09T09:17:37Z</time>
      </trkpt>
      <trkpt lat="45.67527" lon="4.49268">
        <ele>820.14184570312</ele>
        <time>2012-04-09T09:17:43Z</time>
      </trkpt>
      <trkpt lat="45.67534" lon="4.49278">
        <ele>820.14184570312</ele>
        <time>2012-04-09T09:17:49Z</time>
      </trkpt>
      <trkpt lat="45.67537" lon="4.49283">
        <ele>820.14184570312</ele>
        <time>2012-04-09T09:17:51Z</time>
      </trkpt>
      <trkpt lat="45.67553" lon="4.49297">
        <ele>819.1806640625</ele>
        <time>2012-04-09T09:17:58Z</time>
      </trkpt>
      <trkpt lat="45.67564" lon="4.49312">
        <ele>819.1806640625</ele>
        <time>2012-04-09T09:18:02Z</time>
      </trkpt>
      <trkpt lat="45.67567" lon="4.49331">
        <ele>820.14184570312</ele>
        <time>2012-04-09T09:18:06Z</time>
      </trkpt>
      <trkpt lat="45.67572" lon="4.49358">
        <ele>821.10327148438</ele>
        <time>2012-04-09T09:18:14Z</time>
      </trkpt>
      <trkpt lat="45.67577" lon="4.49393">
        <ele>823.02587890625</ele>
        <time>2012-04-09T09:18:25Z</time>
      </trkpt>
      <trkpt lat="45.67581" lon="4.49419">
        <ele>824.94848632812</ele>
        <time>2012-04-09T09:18:33Z</time>
      </trkpt>
      <trkpt lat="45.67584" lon="4.4944">
        <ele>825.90966796875</ele>
        <time>2012-04-09T09:18:40Z</time>
      </trkpt>
      <trkpt lat="45.67587" lon="4.49472">
        <ele>827.83227539062</ele>
        <time>2012-04-09T09:18:51Z</time>
      </trkpt>
      <trkpt lat="45.67588" lon="4.49498">
        <ele>830.23583984375</ele>
        <time>2012-04-09T09:19:00Z</time>
      </trkpt>
      <trkpt lat="45.67588" lon="4.49524">
        <ele>832.63916015625</ele>
        <time>2012-04-09T09:19:10Z</time>
      </trkpt>
      <trkpt lat="45.67585" lon="4.49545">
        <ele>834.56176757812</ele>
        <time>2012-04-09T09:19:18Z</time>
      </trkpt>
      <trkpt lat="45.67581" lon="4.49565">
        <ele>836.00366210938</ele>
        <time>2012-04-09T09:19:26Z</time>
      </trkpt>
      <trkpt lat="45.6758" lon="4.49583">
        <ele>836.484375</ele>
        <time>2012-04-09T09:19:33Z</time>
      </trkpt>
      <trkpt lat="45.67578" lon="4.49603">
        <ele>838.40698242188</ele>
        <time>2012-04-09T09:19:41Z</time>
      </trkpt>
      <trkpt lat="45.67576" lon="4.49623">
        <ele>841.29077148438</ele>
        <time>2012-04-09T09:19:49Z</time>
      </trkpt>
      <trkpt lat="45.67573" lon="4.49645">
        <ele>844.17504882812</ele>
        <time>2012-04-09T09:19:58Z</time>
      </trkpt>
      <trkpt lat="45.67567" lon="4.49661">
        <ele>847.53955078125</ele>
        <time>2012-04-09T09:20:05Z</time>
      </trkpt>
      <trkpt lat="45.67565" lon="4.49686">
        <ele>848.9814453125</ele>
        <time>2012-04-09T09:20:15Z</time>
      </trkpt>
      <trkpt lat="45.67562" lon="4.49717">
        <ele>851.384765625</ele>
        <time>2012-04-09T09:20:26Z</time>
      </trkpt>
      <trkpt lat="45.67561" lon="4.49737">
        <ele>850.90405273438</ele>
        <time>2012-04-09T09:20:33Z</time>
      </trkpt>
      <trkpt lat="45.6756" lon="4.49745">
        <ele>852.34594726562</ele>
        <time>2012-04-09T09:20:37Z</time>
      </trkpt>
      <trkpt lat="45.67557" lon="4.49761">
        <ele>854.74926757812</ele>
        <time>2012-04-09T09:20:44Z</time>
      </trkpt>
      <trkpt lat="45.67556" lon="4.49783">
        <ele>854.26879882812</ele>
        <time>2012-04-09T09:20:52Z</time>
      </trkpt>
      <trkpt lat="45.67555" lon="4.49808">
        <ele>853.30737304688</ele>
        <time>2012-04-09T09:21:00Z</time>
      </trkpt>
      <trkpt lat="45.67556" lon="4.49846">
        <ele>852.82666015625</ele>
        <time>2012-04-09T09:21:12Z</time>
      </trkpt>
      <trkpt lat="45.67558" lon="4.49877">
        <ele>854.26879882812</ele>
        <time>2012-04-09T09:21:21Z</time>
      </trkpt>
      <trkpt lat="45.67561" lon="4.49906">
        <ele>856.19116210938</ele>
        <time>2012-04-09T09:21:30Z</time>
      </trkpt>
      <trkpt lat="45.67563" lon="4.49934">
        <ele>858.11401367188</ele>
        <time>2012-04-09T09:21:39Z</time>
      </trkpt>
      <trkpt lat="45.67563" lon="4.49971">
        <ele>861.47875976562</ele>
        <time>2012-04-09T09:21:51Z</time>
      </trkpt>
      <trkpt lat="45.6756" lon="4.49994">
        <ele>863.4013671875</ele>
        <time>2012-04-09T09:21:59Z</time>
      </trkpt>
      <trkpt lat="45.67554" lon="4.50022">
        <ele>865.8046875</ele>
        <time>2012-04-09T09:22:09Z</time>
      </trkpt>
      <trkpt lat="45.67554" lon="4.50049">
        <ele>868.20776367188</ele>
        <time>2012-04-09T09:22:18Z</time>
      </trkpt>
      <trkpt lat="45.67556" lon="4.50086">
        <ele>871.091796875</ele>
        <time>2012-04-09T09:22:30Z</time>
      </trkpt>
      <trkpt lat="45.67557" lon="4.50113">
        <ele>873.01440429688</ele>
        <time>2012-04-09T09:22:39Z</time>
      </trkpt>
      <trkpt lat="45.67558" lon="4.50129">
        <ele>874.45629882812</ele>
        <time>2012-04-09T09:22:45Z</time>
      </trkpt>
      <trkpt lat="45.6756" lon="4.50145">
        <ele>875.41748046875</ele>
        <time>2012-04-09T09:22:51Z</time>
      </trkpt>
      <trkpt lat="45.67564" lon="4.50167">
        <ele>878.78247070312</ele>
        <time>2012-04-09T09:22:59Z</time>
      </trkpt>
      <trkpt lat="45.67567" lon="4.50187">
        <ele>879.26293945312</ele>
        <time>2012-04-09T09:23:06Z</time>
      </trkpt>
      <trkpt lat="45.67571" lon="4.50214">
        <ele>880.705078125</ele>
        <time>2012-04-09T09:23:15Z</time>
      </trkpt>
      <trkpt lat="45.67577" lon="4.5024">
        <ele>882.14697265625</ele>
        <time>2012-04-09T09:23:24Z</time>
      </trkpt>
      <trkpt lat="45.67586" lon="4.50267">
        <ele>885.03100585938</ele>
        <time>2012-04-09T09:23:35Z</time>
      </trkpt>
      <trkpt lat="45.67595" lon="4.50283">
        <ele>886.47290039062</ele>
        <time>2012-04-09T09:23:43Z</time>
      </trkpt>
      <trkpt lat="45.67604" lon="4.50307">
        <ele>889.83740234375</ele>
        <time>2012-04-09T09:23:54Z</time>
      </trkpt>
      <trkpt lat="45.67611" lon="4.50324">
        <ele>891.76000976562</ele>
        <time>2012-04-09T09:24:02Z</time>
      </trkpt>
      <trkpt lat="45.67615" lon="4.50336">
        <ele>893.2021484375</ele>
        <time>2012-04-09T09:24:08Z</time>
      </trkpt>
      <trkpt lat="45.6762" lon="4.50356">
        <ele>895.60546875</ele>
        <time>2012-04-09T09:24:16Z</time>
      </trkpt>
      <trkpt lat="45.67627" lon="4.50378">
        <ele>898.4892578125</ele>
        <time>2012-04-09T09:24:25Z</time>
      </trkpt>
      <trkpt lat="45.67636" lon="4.50395">
        <ele>899.93139648438</ele>
        <time>2012-04-09T09:24:33Z</time>
      </trkpt>
      <trkpt lat="45.67647" lon="4.50414">
        <ele>900.892578125</ele>
        <time>2012-04-09T09:24:42Z</time>
      </trkpt>
      <trkpt lat="45.67657" lon="4.50434">
        <ele>902.33447265625</ele>
        <time>2012-04-09T09:24:51Z</time>
      </trkpt>
      <trkpt lat="45.6767" lon="4.50453">
        <ele>903.77661132812</ele>
        <time>2012-04-09T09:25:00Z</time>
      </trkpt>
      <trkpt lat="45.67685" lon="4.50474">
        <ele>904.25732421875</ele>
        <time>2012-04-09T09:25:10Z</time>
      </trkpt>
      <trkpt lat="45.67699" lon="4.50497">
        <ele>905.21850585938</ele>
        <time>2012-04-09T09:25:20Z</time>
      </trkpt>
      <trkpt lat="45.6771" lon="4.50516">
        <ele>907.14111328125</ele>
        <time>2012-04-09T09:25:29Z</time>
      </trkpt>
      <trkpt lat="45.67712" lon="4.50521">
        <ele>907.14111328125</ele>
        <time>2012-04-09T09:25:32Z</time>
      </trkpt>
      <trkpt lat="45.67712" lon="4.50523">
        <ele>907.62182617188</ele>
        <time>2012-04-09T09:25:39Z</time>
      </trkpt>
      <trkpt lat="45.67712" lon="4.50523">
        <ele>908.10278320312</ele>
        <time>2012-04-09T09:25:49Z</time>
      </trkpt>
      <trkpt lat="45.67712" lon="4.50523">
        <ele>908.58325195312</ele>
        <time>2012-04-09T09:25:58Z</time>
      </trkpt>
      <trkpt lat="45.67713" lon="4.50523">
        <ele>908.10278320312</ele>
        <time>2012-04-09T09:26:06Z</time>
      </trkpt>
      <trkpt lat="45.67714" lon="4.50523">
        <ele>908.58325195312</ele>
        <time>2012-04-09T09:26:14Z</time>
      </trkpt>
      <trkpt lat="45.67713" lon="4.50523">
        <ele>908.10278320312</ele>
        <time>2012-04-09T09:26:19Z</time>
      </trkpt>
      <trkpt lat="45.67714" lon="4.50522">
        <ele>908.10278320312</ele>
        <time>2012-04-09T09:26:25Z</time>
      </trkpt>
      <trkpt lat="45.67713" lon="4.50522">
        <ele>908.10278320312</ele>
        <time>2012-04-09T09:26:30Z</time>
      </trkpt>
      <trkpt lat="45.67713" lon="4.50523">
        <ele>908.10278320312</ele>
        <time>2012-04-09T09:26:36Z</time>
      </trkpt>
      <trkpt lat="45.67713" lon="4.50522">
        <ele>908.58325195312</ele>
        <time>2012-04-09T09:26:47Z</time>
      </trkpt>
      <trkpt lat="45.67713" lon="4.50521">
        <ele>908.58325195312</ele>
        <time>2012-04-09T09:27:00Z</time>
      </trkpt>
      <trkpt lat="45.67713" lon="4.5052">
        <ele>908.58325195312</ele>
        <time>2012-04-09T09:27:09Z</time>
      </trkpt>
      <trkpt lat="45.677" lon="4.50527">
        <ele>905.69921875</ele>
        <time>2012-04-09T09:27:14Z</time>
      </trkpt>
      <trkpt lat="45.67681" lon="4.50543">
        <ele>902.33447265625</ele>
        <time>2012-04-09T09:27:18Z</time>
      </trkpt>
      <trkpt lat="45.67679" lon="4.50573">
        <ele>898.0087890625</ele>
        <time>2012-04-09T09:27:22Z</time>
      </trkpt>
      <trkpt lat="45.67685" lon="4.50592">
        <ele>895.60546875</ele>
        <time>2012-04-09T09:27:24Z</time>
      </trkpt>
      <trkpt lat="45.67714" lon="4.50664">
        <ele>889.35668945312</ele>
        <time>2012-04-09T09:27:31Z</time>
      </trkpt>
      <trkpt lat="45.67719" lon="4.50674">
        <ele>888.3955078125</ele>
        <time>2012-04-09T09:27:32Z</time>
      </trkpt>
      <trkpt lat="45.67744" lon="4.50721">
        <ele>881.18579101562</ele>
        <time>2012-04-09T09:27:37Z</time>
      </trkpt>
      <trkpt lat="45.67763" lon="4.50772">
        <ele>873.4951171875</ele>
        <time>2012-04-09T09:27:42Z</time>
      </trkpt>
      <trkpt lat="45.67763" lon="4.50797">
        <ele>869.64990234375</ele>
        <time>2012-04-09T09:27:46Z</time>
      </trkpt>
      <trkpt lat="45.67764" lon="4.50809">
        <ele>868.20776367188</ele>
        <time>2012-04-09T09:27:50Z</time>
      </trkpt>
      <trkpt lat="45.67765" lon="4.50803">
        <ele>869.16918945312</ele>
        <time>2012-04-09T09:27:53Z</time>
      </trkpt>
      <trkpt lat="45.67765" lon="4.50785">
        <ele>870.13037109375</ele>
        <time>2012-04-09T09:27:57Z</time>
      </trkpt>
      <trkpt lat="45.67754" lon="4.5077">
        <ele>870.61108398438</ele>
        <time>2012-04-09T09:28:02Z</time>
      </trkpt>
      <trkpt lat="45.67724" lon="4.50753">
        <ele>869.64990234375</ele>
        <time>2012-04-09T09:28:08Z</time>
      </trkpt>
      <trkpt lat="45.67674" lon="4.50722">
        <ele>867.72705078125</ele>
        <time>2012-04-09T09:28:16Z</time>
      </trkpt>
      <trkpt lat="45.67635" lon="4.50706">
        <ele>866.76586914062</ele>
        <time>2012-04-09T09:28:22Z</time>
      </trkpt>
      <trkpt lat="45.67606" lon="4.50705">
        <ele>865.8046875</ele>
        <time>2012-04-09T09:28:26Z</time>
      </trkpt>
      <trkpt lat="45.67574" lon="4.50724">
        <ele>865.8046875</ele>
        <time>2012-04-09T09:28:31Z</time>
      </trkpt>
      <trkpt lat="45.67554" lon="4.5075">
        <ele>866.76586914062</ele>
        <time>2012-04-09T09:28:36Z</time>
      </trkpt>
      <trkpt lat="45.67539" lon="4.50788">
        <ele>865.32397460938</ele>
        <time>2012-04-09T09:28:41Z</time>
      </trkpt>
      <trkpt lat="45.67509" lon="4.50861">
        <ele>861.95947265625</ele>
        <time>2012-04-09T09:28:49Z</time>
      </trkpt>
      <trkpt lat="45.6747" lon="4.50958">
        <ele>859.0751953125</ele>
        <time>2012-04-09T09:28:59Z</time>
      </trkpt>
      <trkpt lat="45.67466" lon="4.50966">
        <ele>859.0751953125</ele>
        <time>2012-04-09T09:29:00Z</time>
      </trkpt>
      <trkpt lat="45.67446" lon="4.50989">
        <ele>859.0751953125</ele>
        <time>2012-04-09T09:29:04Z</time>
      </trkpt>
      <trkpt lat="45.67428" lon="4.50992">
        <ele>858.11401367188</ele>
        <time>2012-04-09T09:29:07Z</time>
      </trkpt>
      <trkpt lat="45.67422" lon="4.5099">
        <ele>857.63330078125</ele>
        <time>2012-04-09T09:29:08Z</time>
      </trkpt>
      <trkpt lat="45.67373" lon="4.50969">
        <ele>854.74926757812</ele>
        <time>2012-04-09T09:29:15Z</time>
      </trkpt>
      <trkpt lat="45.67335" lon="4.50962">
        <ele>856.19116210938</ele>
        <time>2012-04-09T09:29:20Z</time>
      </trkpt>
      <trkpt lat="45.67314" lon="4.5096">
        <ele>857.63330078125</ele>
        <time>2012-04-09T09:29:24Z</time>
      </trkpt>
      <trkpt lat="45.67281" lon="4.50956">
        <ele>860.998046875</ele>
        <time>2012-04-09T09:29:32Z</time>
      </trkpt>
      <trkpt lat="45.67251" lon="4.50946">
        <ele>865.8046875</ele>
        <time>2012-04-09T09:29:41Z</time>
      </trkpt>
      <trkpt lat="45.67234" lon="4.50934">
        <ele>867.72705078125</ele>
        <time>2012-04-09T09:29:47Z</time>
      </trkpt>
      <trkpt lat="45.67221" lon="4.50916">
        <ele>870.61108398438</ele>
        <time>2012-04-09T09:29:53Z</time>
      </trkpt>
      <trkpt lat="45.67207" lon="4.50892">
        <ele>869.64990234375</ele>
        <time>2012-04-09T09:29:59Z</time>
      </trkpt>
      <trkpt lat="45.67189" lon="4.50869">
        <ele>867.24658203125</ele>
        <time>2012-04-09T09:30:03Z</time>
      </trkpt>
      <trkpt lat="45.67157" lon="4.5084">
        <ele>863.4013671875</ele>
        <time>2012-04-09T09:30:08Z</time>
      </trkpt>
      <trkpt lat="45.67152" lon="4.50833">
        <ele>862.43994140625</ele>
        <time>2012-04-09T09:30:09Z</time>
      </trkpt>
      <trkpt lat="45.67128" lon="4.50808">
        <ele>858.59448242188</ele>
        <time>2012-04-09T09:30:13Z</time>
      </trkpt>
      <trkpt lat="45.67108" lon="4.50803">
        <ele>856.19116210938</ele>
        <time>2012-04-09T09:30:15Z</time>
      </trkpt>
      <trkpt lat="45.67041" lon="4.50796">
        <ele>853.30737304688</ele>
        <time>2012-04-09T09:30:21Z</time>
      </trkpt>
      <trkpt lat="45.67018" lon="4.50801">
        <ele>852.82666015625</ele>
        <time>2012-04-09T09:30:24Z</time>
      </trkpt>
      <trkpt lat="45.66989" lon="4.50788">
        <ele>853.7880859375</ele>
        <time>2012-04-09T09:30:29Z</time>
      </trkpt>
      <trkpt lat="45.66962" lon="4.50767">
        <ele>852.34594726562</ele>
        <time>2012-04-09T09:30:34Z</time>
      </trkpt>
      <trkpt lat="45.66934" lon="4.50732">
        <ele>852.34594726562</ele>
        <time>2012-04-09T09:30:40Z</time>
      </trkpt>
      <trkpt lat="45.66922" lon="4.5071">
        <ele>851.86547851562</ele>
        <time>2012-04-09T09:30:44Z</time>
      </trkpt>
      <trkpt lat="45.66903" lon="4.50696">
        <ele>851.384765625</ele>
        <time>2012-04-09T09:30:49Z</time>
      </trkpt>
      <trkpt lat="45.66865" lon="4.50682">
        <ele>848.50073242188</ele>
        <time>2012-04-09T09:30:55Z</time>
      </trkpt>
      <trkpt lat="45.66822" lon="4.50673">
        <ele>846.57836914062</ele>
        <time>2012-04-09T09:31:01Z</time>
      </trkpt>
      <trkpt lat="45.66808" lon="4.50649">
        <ele>843.21337890625</ele>
        <time>2012-04-09T09:31:05Z</time>
      </trkpt>
      <trkpt lat="45.66793" lon="4.50619">
        <ele>838.8876953125</ele>
        <time>2012-04-09T09:31:09Z</time>
      </trkpt>
      <trkpt lat="45.66772" lon="4.50589">
        <ele>835.52294921875</ele>
        <time>2012-04-09T09:31:13Z</time>
      </trkpt>
      <trkpt lat="45.66756" lon="4.50557">
        <ele>832.15844726562</ele>
        <time>2012-04-09T09:31:18Z</time>
      </trkpt>
      <trkpt lat="45.6673" lon="4.50518">
        <ele>830.23583984375</ele>
        <time>2012-04-09T09:31:24Z</time>
      </trkpt>
      <trkpt lat="45.66703" lon="4.50482">
        <ele>827.83227539062</ele>
        <time>2012-04-09T09:31:30Z</time>
      </trkpt>
      <trkpt lat="45.6667" lon="4.50447">
        <ele>825.42895507812</ele>
        <time>2012-04-09T09:31:36Z</time>
      </trkpt>
      <trkpt lat="45.66661" lon="4.50435">
        <ele>824.94848632812</ele>
        <time>2012-04-09T09:31:38Z</time>
      </trkpt>
      <trkpt lat="45.66645" lon="4.50392">
        <ele>823.02587890625</ele>
        <time>2012-04-09T09:31:44Z</time>
      </trkpt>
      <trkpt lat="45.66636" lon="4.50368">
        <ele>821.58374023438</ele>
        <time>2012-04-09T09:31:47Z</time>
      </trkpt>
      <trkpt lat="45.66615" lon="4.50345">
        <ele>819.1806640625</ele>
        <time>2012-04-09T09:31:51Z</time>
      </trkpt>
      <trkpt lat="45.6659" lon="4.50347">
        <ele>813.89331054688</ele>
        <time>2012-04-09T09:31:55Z</time>
      </trkpt>
      <trkpt lat="45.66553" lon="4.50363">
        <ele>806.20263671875</ele>
        <time>2012-04-09T09:32:00Z</time>
      </trkpt>
      <trkpt lat="45.66529" lon="4.50368">
        <ele>801.39624023438</ele>
        <time>2012-04-09T09:32:03Z</time>
      </trkpt>
      <trkpt lat="45.665" lon="4.50356">
        <ele>798.51220703125</ele>
        <time>2012-04-09T09:32:07Z</time>
      </trkpt>
      <trkpt lat="45.6649" lon="4.50341">
        <ele>797.0703125</ele>
        <time>2012-04-09T09:32:09Z</time>
      </trkpt>
      <trkpt lat="45.66468" lon="4.50295">
        <ele>790.34106445312</ele>
        <time>2012-04-09T09:32:14Z</time>
      </trkpt>
      <trkpt lat="45.66456" lon="4.50269">
        <ele>786.49584960938</ele>
        <time>2012-04-09T09:32:17Z</time>
      </trkpt>
      <trkpt lat="45.66442" lon="4.50249">
        <ele>783.61181640625</ele>
        <time>2012-04-09T09:32:20Z</time>
      </trkpt>
      <trkpt lat="45.66433" lon="4.50236">
        <ele>781.68920898438</ele>
        <time>2012-04-09T09:32:22Z</time>
      </trkpt>
      <trkpt lat="45.6641" lon="4.50211">
        <ele>778.32446289062</ele>
        <time>2012-04-09T09:32:26Z</time>
      </trkpt>
      <trkpt lat="45.66403" lon="4.50204">
        <ele>777.84375</ele>
        <time>2012-04-09T09:32:27Z</time>
      </trkpt>
      <trkpt lat="45.66358" lon="4.50131">
        <ele>775.92114257812</ele>
        <time>2012-04-09T09:32:35Z</time>
      </trkpt>
      <trkpt lat="45.66338" lon="4.50095">
        <ele>774.47924804688</ele>
        <time>2012-04-09T09:32:39Z</time>
      </trkpt>
      <trkpt lat="45.66308" lon="4.5006">
        <ele>771.11474609375</ele>
        <time>2012-04-09T09:32:44Z</time>
      </trkpt>
      <trkpt lat="45.66281" lon="4.50037">
        <ele>769.6728515625</ele>
        <time>2012-04-09T09:32:48Z</time>
      </trkpt>
      <trkpt lat="45.66243" lon="4.50009">
        <ele>769.6728515625</ele>
        <time>2012-04-09T09:32:54Z</time>
      </trkpt>
      <trkpt lat="45.66232" lon="4.5">
        <ele>769.6728515625</ele>
        <time>2012-04-09T09:32:56Z</time>
      </trkpt>
      <trkpt lat="45.66212" lon="4.49968">
        <ele>770.63403320312</ele>
        <time>2012-04-09T09:33:01Z</time>
      </trkpt>
      <trkpt lat="45.66193" lon="4.49933">
        <ele>769.6728515625</ele>
        <time>2012-04-09T09:33:07Z</time>
      </trkpt>
      <trkpt lat="45.66182" lon="4.49912">
        <ele>768.71142578125</ele>
        <time>2012-04-09T09:33:10Z</time>
      </trkpt>
      <trkpt lat="45.66161" lon="4.49896">
        <ele>768.23071289062</ele>
        <time>2012-04-09T09:33:14Z</time>
      </trkpt>
      <trkpt lat="45.6615" lon="4.49898">
        <ele>768.23071289062</ele>
        <time>2012-04-09T09:33:16Z</time>
      </trkpt>
      <trkpt lat="45.66111" lon="4.49909">
        <ele>769.19213867188</ele>
        <time>2012-04-09T09:33:24Z</time>
      </trkpt>
      <trkpt lat="45.66085" lon="4.49916">
        <ele>769.6728515625</ele>
        <time>2012-04-09T09:33:30Z</time>
      </trkpt>
      <trkpt lat="45.66041" lon="4.49928">
        <ele>769.19213867188</ele>
        <time>2012-04-09T09:33:40Z</time>
      </trkpt>
      <trkpt lat="45.66" lon="4.49939">
        <ele>768.23071289062</ele>
        <time>2012-04-09T09:33:48Z</time>
      </trkpt>
      <trkpt lat="45.65953" lon="4.4995">
        <ele>767.26953125</ele>
        <time>2012-04-09T09:33:56Z</time>
      </trkpt>
      <trkpt lat="45.65897" lon="4.49964">
        <ele>766.30810546875</ele>
        <time>2012-04-09T09:34:05Z</time>
      </trkpt>
      <trkpt lat="45.65845" lon="4.49974">
        <ele>768.71142578125</ele>
        <time>2012-04-09T09:34:14Z</time>
      </trkpt>
      <trkpt lat="45.65795" lon="4.49981">
        <ele>770.63403320312</ele>
        <time>2012-04-09T09:34:24Z</time>
      </trkpt>
      <trkpt lat="45.65734" lon="4.49992">
        <ele>771.59521484375</ele>
        <time>2012-04-09T09:34:37Z</time>
      </trkpt>
      <trkpt lat="45.65702" lon="4.49998">
        <ele>772.556640625</ele>
        <time>2012-04-09T09:34:44Z</time>
      </trkpt>
      <trkpt lat="45.65661" lon="4.5001">
        <ele>773.03735351562</ele>
        <time>2012-04-09T09:34:53Z</time>
      </trkpt>
      <trkpt lat="45.65625" lon="4.50021">
        <ele>773.03735351562</ele>
        <time>2012-04-09T09:35:01Z</time>
      </trkpt>
      <trkpt lat="45.65576" lon="4.50033">
        <ele>773.99853515625</ele>
        <time>2012-04-09T09:35:12Z</time>
      </trkpt>
      <trkpt lat="45.65545" lon="4.5003">
        <ele>774.47924804688</ele>
        <time>2012-04-09T09:35:20Z</time>
      </trkpt>
      <trkpt lat="45.65517" lon="4.50019">
        <ele>776.40185546875</ele>
        <time>2012-04-09T09:35:28Z</time>
      </trkpt>
      <trkpt lat="45.65483" lon="4.49999">
        <ele>777.84375</ele>
        <time>2012-04-09T09:35:38Z</time>
      </trkpt>
      <trkpt lat="45.65469" lon="4.4998">
        <ele>779.76635742188</ele>
        <time>2012-04-09T09:35:43Z</time>
      </trkpt>
      <trkpt lat="45.65468" lon="4.49959">
        <ele>781.20874023438</ele>
        <time>2012-04-09T09:35:47Z</time>
      </trkpt>
      <trkpt lat="45.65466" lon="4.49918">
        <ele>783.13110351562</ele>
        <time>2012-04-09T09:35:56Z</time>
      </trkpt>
      <trkpt lat="45.65471" lon="4.4989">
        <ele>783.61181640625</ele>
        <time>2012-04-09T09:36:02Z</time>
      </trkpt>
      <trkpt lat="45.65483" lon="4.49862">
        <ele>782.65063476562</ele>
        <time>2012-04-09T09:36:08Z</time>
      </trkpt>
      <trkpt lat="45.65487" lon="4.49841">
        <ele>781.20874023438</ele>
        <time>2012-04-09T09:36:11Z</time>
      </trkpt>
      <trkpt lat="45.65496" lon="4.49811">
        <ele>776.88256835938</ele>
        <time>2012-04-09T09:36:15Z</time>
      </trkpt>
      <trkpt lat="45.65499" lon="4.49773">
        <ele>772.556640625</ele>
        <time>2012-04-09T09:36:19Z</time>
      </trkpt>
      <trkpt lat="45.65497" lon="4.49752">
        <ele>770.1533203125</ele>
        <time>2012-04-09T09:36:21Z</time>
      </trkpt>
      <trkpt lat="45.65502" lon="4.49706">
        <ele>763.42407226562</ele>
        <time>2012-04-09T09:36:25Z</time>
      </trkpt>
      <trkpt lat="45.65518" lon="4.49641">
        <ele>754.77221679688</ele>
        <time>2012-04-09T09:36:30Z</time>
      </trkpt>
      <trkpt lat="45.65525" lon="4.49614">
        <ele>750.44653320312</ele>
        <time>2012-04-09T09:36:33Z</time>
      </trkpt>
      <trkpt lat="45.65536" lon="4.49578">
        <ele>744.67822265625</ele>
        <time>2012-04-09T09:36:38Z</time>
      </trkpt>
      <trkpt lat="45.65549" lon="4.49532">
        <ele>737.94921875</ele>
        <time>2012-04-09T09:36:43Z</time>
      </trkpt>
      <trkpt lat="45.65568" lon="4.49478">
        <ele>732.18139648438</ele>
        <time>2012-04-09T09:36:48Z</time>
      </trkpt>
      <trkpt lat="45.65585" lon="4.49423">
        <ele>726.89404296875</ele>
        <time>2012-04-09T09:36:53Z</time>
      </trkpt>
      <trkpt lat="45.65585" lon="4.49403">
        <ele>725.45190429688</ele>
        <time>2012-04-09T09:36:56Z</time>
      </trkpt>
      <trkpt lat="45.65578" lon="4.49398">
        <ele>725.9326171875</ele>
        <time>2012-04-09T09:37:00Z</time>
      </trkpt>
      <trkpt lat="45.65577" lon="4.49398">
        <ele>726.41333007812</ele>
        <time>2012-04-09T09:37:04Z</time>
      </trkpt>
      <trkpt lat="45.65565" lon="4.4939">
        <ele>727.37475585938</ele>
        <time>2012-04-09T09:37:08Z</time>
      </trkpt>
      <trkpt lat="45.6554" lon="4.49371">
        <ele>727.37475585938</ele>
        <time>2012-04-09T09:37:13Z</time>
      </trkpt>
      <trkpt lat="45.65527" lon="4.4936">
        <ele>725.9326171875</ele>
        <time>2012-04-09T09:37:15Z</time>
      </trkpt>
      <trkpt lat="45.65499" lon="4.49322">
        <ele>724.49072265625</ele>
        <time>2012-04-09T09:37:20Z</time>
      </trkpt>
      <trkpt lat="45.65488" lon="4.49305">
        <ele>723.52954101562</ele>
        <time>2012-04-09T09:37:22Z</time>
      </trkpt>
      <trkpt lat="45.6548" lon="4.49272">
        <ele>720.6455078125</ele>
        <time>2012-04-09T09:37:26Z</time>
      </trkpt>
      <trkpt lat="45.65482" lon="4.49265">
        <ele>720.16479492188</ele>
        <time>2012-04-09T09:37:27Z</time>
      </trkpt>
      <trkpt lat="45.65486" lon="4.4924">
        <ele>718.2421875</ele>
        <time>2012-04-09T09:37:31Z</time>
      </trkpt>
      <trkpt lat="45.65487" lon="4.49219">
        <ele>716.31958007812</ele>
        <time>2012-04-09T09:37:35Z</time>
      </trkpt>
      <trkpt lat="45.65487" lon="4.49187">
        <ele>714.87744140625</ele>
        <time>2012-04-09T09:37:40Z</time>
      </trkpt>
      <trkpt lat="45.65485" lon="4.4917">
        <ele>714.39672851562</ele>
        <time>2012-04-09T09:37:43Z</time>
      </trkpt>
      <trkpt lat="45.6548" lon="4.49141">
        <ele>714.87744140625</ele>
        <time>2012-04-09T09:37:49Z</time>
      </trkpt>
      <trkpt lat="45.65476" lon="4.49124">
        <ele>715.8388671875</ele>
        <time>2012-04-09T09:37:55Z</time>
      </trkpt>
      <trkpt lat="45.65473" lon="4.49115">
        <ele>715.8388671875</ele>
        <time>2012-04-09T09:37:59Z</time>
      </trkpt>
      <trkpt lat="45.65464" lon="4.49085">
        <ele>715.8388671875</ele>
        <time>2012-04-09T09:38:06Z</time>
      </trkpt>
      <trkpt lat="45.65452" lon="4.49061">
        <ele>715.35815429688</ele>
        <time>2012-04-09T09:38:12Z</time>
      </trkpt>
      <trkpt lat="45.65438" lon="4.4903">
        <ele>715.8388671875</ele>
        <time>2012-04-09T09:38:18Z</time>
      </trkpt>
      <trkpt lat="45.65414" lon="4.48977">
        <ele>715.35815429688</ele>
        <time>2012-04-09T09:38:27Z</time>
      </trkpt>
      <trkpt lat="45.6539" lon="4.48927">
        <ele>712.47412109375</ele>
        <time>2012-04-09T09:38:35Z</time>
      </trkpt>
      <trkpt lat="45.65373" lon="4.48876">
        <ele>709.59033203125</ele>
        <time>2012-04-09T09:38:41Z</time>
      </trkpt>
      <trkpt lat="45.65361" lon="4.48831">
        <ele>707.18701171875</ele>
        <time>2012-04-09T09:38:46Z</time>
      </trkpt>
      <trkpt lat="45.65353" lon="4.48801">
        <ele>704.30322265625</ele>
        <time>2012-04-09T09:38:49Z</time>
      </trkpt>
      <trkpt lat="45.65342" lon="4.48772">
        <ele>702.86108398438</ele>
        <time>2012-04-09T09:38:53Z</time>
      </trkpt>
      <trkpt lat="45.6533" lon="4.48739">
        <ele>702.86108398438</ele>
        <time>2012-04-09T09:38:59Z</time>
      </trkpt>
      <trkpt lat="45.65327" lon="4.48729">
        <ele>703.341796875</ele>
        <time>2012-04-09T09:39:01Z</time>
      </trkpt>
      <trkpt lat="45.65326" lon="4.48718">
        <ele>703.341796875</ele>
        <time>2012-04-09T09:39:03Z</time>
      </trkpt>
      <trkpt lat="45.65324" lon="4.48695">
        <ele>701.41918945312</ele>
        <time>2012-04-09T09:39:07Z</time>
      </trkpt>
      <trkpt lat="45.65315" lon="4.48655">
        <ele>700.4580078125</ele>
        <time>2012-04-09T09:39:12Z</time>
      </trkpt>
      <trkpt lat="45.65303" lon="4.48622">
        <ele>700.4580078125</ele>
        <time>2012-04-09T09:39:16Z</time>
      </trkpt>
      <trkpt lat="45.65277" lon="4.48565">
        <ele>702.38037109375</ele>
        <time>2012-04-09T09:39:24Z</time>
      </trkpt>
      <trkpt lat="45.6527" lon="4.48539">
        <ele>701.89990234375</ele>
        <time>2012-04-09T09:39:28Z</time>
      </trkpt>
      <trkpt lat="45.65261" lon="4.48483">
        <ele>699.97705078125</ele>
        <time>2012-04-09T09:39:35Z</time>
      </trkpt>
      <trkpt lat="45.65262" lon="4.48427">
        <ele>697.57373046875</ele>
        <time>2012-04-09T09:39:41Z</time>
      </trkpt>
      <trkpt lat="45.65262" lon="4.48388">
        <ele>695.65112304688</ele>
        <time>2012-04-09T09:39:45Z</time>
      </trkpt>
      <trkpt lat="45.65257" lon="4.48345">
        <ele>693.24780273438</ele>
        <time>2012-04-09T09:39:49Z</time>
      </trkpt>
      <trkpt lat="45.65241" lon="4.48284">
        <ele>688.92211914062</ele>
        <time>2012-04-09T09:39:55Z</time>
      </trkpt>
      <trkpt lat="45.65234" lon="4.48256">
        <ele>687.47998046875</ele>
        <time>2012-04-09T09:39:58Z</time>
      </trkpt>
      <trkpt lat="45.65224" lon="4.48207">
        <ele>681.2314453125</ele>
        <time>2012-04-09T09:40:03Z</time>
      </trkpt>
      <trkpt lat="45.65221" lon="4.48171">
        <ele>676.90551757812</ele>
        <time>2012-04-09T09:40:07Z</time>
      </trkpt>
      <trkpt lat="45.65219" lon="4.48135">
        <ele>674.021484375</ele>
        <time>2012-04-09T09:40:11Z</time>
      </trkpt>
      <trkpt lat="45.65214" lon="4.48118">
        <ele>672.57958984375</ele>
        <time>2012-04-09T09:40:13Z</time>
      </trkpt>
      <trkpt lat="45.65204" lon="4.48091">
        <ele>671.6181640625</ele>
        <time>2012-04-09T09:40:18Z</time>
      </trkpt>
      <trkpt lat="45.65202" lon="4.48088">
        <ele>670.65698242188</ele>
        <time>2012-04-09T09:40:22Z</time>
      </trkpt>
      <trkpt lat="45.652" lon="4.48085">
        <ele>670.17626953125</ele>
        <time>2012-04-09T09:40:30Z</time>
      </trkpt>
      <trkpt lat="45.65197" lon="4.48081">
        <ele>667.77270507812</ele>
        <time>2012-04-09T09:40:37Z</time>
      </trkpt>
      <trkpt lat="45.65184" lon="4.48064">
        <ele>667.29223632812</ele>
        <time>2012-04-09T09:40:42Z</time>
      </trkpt>
      <trkpt lat="45.65162" lon="4.48046">
        <ele>664.88891601562</ele>
        <time>2012-04-09T09:40:46Z</time>
      </trkpt>
      <trkpt lat="45.65148" lon="4.48044">
        <ele>663.44702148438</ele>
        <time>2012-04-09T09:40:48Z</time>
      </trkpt>
      <trkpt lat="45.65128" lon="4.48041">
        <ele>660.56298828125</ele>
        <time>2012-04-09T09:40:51Z</time>
      </trkpt>
      <trkpt lat="45.65107" lon="4.48017">
        <ele>660.08227539062</ele>
        <time>2012-04-09T09:40:55Z</time>
      </trkpt>
      <trkpt lat="45.65086" lon="4.47989">
        <ele>658.15991210938</ele>
        <time>2012-04-09T09:41:00Z</time>
      </trkpt>
      <trkpt lat="45.65082" lon="4.47982">
        <ele>657.67919921875</ele>
        <time>2012-04-09T09:41:01Z</time>
      </trkpt>
      <trkpt lat="45.65068" lon="4.4794">
        <ele>657.67919921875</ele>
        <time>2012-04-09T09:41:06Z</time>
      </trkpt>
      <trkpt lat="45.65064" lon="4.47927">
        <ele>656.23706054688</ele>
        <time>2012-04-09T09:41:08Z</time>
      </trkpt>
      <trkpt lat="45.65054" lon="4.47901">
        <ele>655.27587890625</ele>
        <time>2012-04-09T09:41:13Z</time>
      </trkpt>
      <trkpt lat="45.65034" lon="4.47865">
        <ele>653.35327148438</ele>
        <time>2012-04-09T09:41:18Z</time>
      </trkpt>
      <trkpt lat="45.65012" lon="4.4783">
        <ele>655.75659179688</ele>
        <time>2012-04-09T09:41:23Z</time>
      </trkpt>
      <trkpt lat="45.6499" lon="4.4779">
        <ele>658.15991210938</ele>
        <time>2012-04-09T09:41:30Z</time>
      </trkpt>
      <trkpt lat="45.64984" lon="4.47773">
        <ele>658.15991210938</ele>
        <time>2012-04-09T09:41:33Z</time>
      </trkpt>
      <trkpt lat="45.64982" lon="4.4776">
        <ele>657.67919921875</ele>
        <time>2012-04-09T09:41:35Z</time>
      </trkpt>
      <trkpt lat="45.64977" lon="4.47736">
        <ele>655.75659179688</ele>
        <time>2012-04-09T09:41:39Z</time>
      </trkpt>
      <trkpt lat="45.64972" lon="4.47713">
        <ele>652.39184570312</ele>
        <time>2012-04-09T09:41:42Z</time>
      </trkpt>
      <trkpt lat="45.64959" lon="4.47674">
        <ele>649.5078125</ele>
        <time>2012-04-09T09:41:47Z</time>
      </trkpt>
      <trkpt lat="45.64951" lon="4.4765">
        <ele>650.46923828125</ele>
        <time>2012-04-09T09:41:50Z</time>
      </trkpt>
      <trkpt lat="45.64942" lon="4.47622">
        <ele>650.46923828125</ele>
        <time>2012-04-09T09:41:53Z</time>
      </trkpt>
      <trkpt lat="45.6493" lon="4.47577">
        <ele>647.58520507812</ele>
        <time>2012-04-09T09:41:58Z</time>
      </trkpt>
      <trkpt lat="45.64918" lon="4.47542">
        <ele>645.66259765625</ele>
        <time>2012-04-09T09:42:02Z</time>
      </trkpt>
      <trkpt lat="45.64907" lon="4.47511">
        <ele>644.220703125</ele>
        <time>2012-04-09T09:42:06Z</time>
      </trkpt>
      <trkpt lat="45.64901" lon="4.47492">
        <ele>640.37548828125</ele>
        <time>2012-04-09T09:42:11Z</time>
      </trkpt>
      <trkpt lat="45.64899" lon="4.47491">
        <ele>640.37548828125</ele>
        <time>2012-04-09T09:42:12Z</time>
      </trkpt>
      <trkpt lat="45.64894" lon="4.4749">
        <ele>639.89477539062</ele>
        <time>2012-04-09T09:42:16Z</time>
      </trkpt>
      <trkpt lat="45.6488" lon="4.4749">
        <ele>641.8173828125</ele>
        <time>2012-04-09T09:42:22Z</time>
      </trkpt>
      <trkpt lat="45.64865" lon="4.47485">
        <ele>643.73999023438</ele>
        <time>2012-04-09T09:42:28Z</time>
      </trkpt>
      <trkpt lat="45.64856" lon="4.4748">
        <ele>644.220703125</ele>
        <time>2012-04-09T09:42:32Z</time>
      </trkpt>
      <trkpt lat="45.6484" lon="4.47471">
        <ele>642.77880859375</ele>
        <time>2012-04-09T09:42:38Z</time>
      </trkpt>
      <trkpt lat="45.64827" lon="4.47458">
        <ele>642.29809570312</ele>
        <time>2012-04-09T09:42:43Z</time>
      </trkpt>
      <trkpt lat="45.64812" lon="4.47438">
        <ele>642.29809570312</ele>
        <time>2012-04-09T09:42:48Z</time>
      </trkpt>
      <trkpt lat="45.64805" lon="4.47429">
        <ele>642.77880859375</ele>
        <time>2012-04-09T09:42:50Z</time>
      </trkpt>
      <trkpt lat="45.64774" lon="4.4741">
        <ele>640.37548828125</ele>
        <time>2012-04-09T09:42:56Z</time>
      </trkpt>
      <trkpt lat="45.64762" lon="4.47407">
        <ele>638.93359375</ele>
        <time>2012-04-09T09:42:58Z</time>
      </trkpt>
      <trkpt lat="45.64752" lon="4.47406">
        <ele>637.97216796875</ele>
        <time>2012-04-09T09:43:00Z</time>
      </trkpt>
      <trkpt lat="45.64733" lon="4.47404">
        <ele>636.5302734375</ele>
        <time>2012-04-09T09:43:04Z</time>
      </trkpt>
      <trkpt lat="45.64713" lon="4.47399">
        <ele>637.97216796875</ele>
        <time>2012-04-09T09:43:09Z</time>
      </trkpt>
      <trkpt lat="45.64692" lon="4.47405">
        <ele>635.56860351562</ele>
        <time>2012-04-09T09:43:15Z</time>
      </trkpt>
      <trkpt lat="45.64689" lon="4.47407">
        <ele>635.56860351562</ele>
        <time>2012-04-09T09:43:16Z</time>
      </trkpt>
      <trkpt lat="45.64672" lon="4.47418">
        <ele>636.5302734375</ele>
        <time>2012-04-09T09:43:22Z</time>
      </trkpt>
      <trkpt lat="45.64655" lon="4.47433">
        <ele>638.93359375</ele>
        <time>2012-04-09T09:43:30Z</time>
      </trkpt>
      <trkpt lat="45.64638" lon="4.47448">
        <ele>642.29809570312</ele>
        <time>2012-04-09T09:43:36Z</time>
      </trkpt>
      <trkpt lat="45.64613" lon="4.47474">
        <ele>643.25927734375</ele>
        <time>2012-04-09T09:43:44Z</time>
      </trkpt>
      <trkpt lat="45.6459" lon="4.47498">
        <ele>643.73999023438</ele>
        <time>2012-04-09T09:43:51Z</time>
      </trkpt>
      <trkpt lat="45.64571" lon="4.47518">
        <ele>644.701171875</ele>
        <time>2012-04-09T09:43:57Z</time>
      </trkpt>
      <trkpt lat="45.64544" lon="4.47543">
        <ele>647.1044921875</ele>
        <time>2012-04-09T09:44:05Z</time>
      </trkpt>
      <trkpt lat="45.64536" lon="4.47549">
        <ele>647.58520507812</ele>
        <time>2012-04-09T09:44:07Z</time>
      </trkpt>
      <trkpt lat="45.64503" lon="4.4756">
        <ele>649.02709960938</ele>
        <time>2012-04-09T09:44:15Z</time>
      </trkpt>
      <trkpt lat="45.6447" lon="4.47576">
        <ele>649.5078125</ele>
        <time>2012-04-09T09:44:24Z</time>
      </trkpt>
      <trkpt lat="45.64458" lon="4.47588">
        <ele>650.46923828125</ele>
        <time>2012-04-09T09:44:29Z</time>
      </trkpt>
      <trkpt lat="45.6445" lon="4.47595">
        <ele>649.98852539062</ele>
        <time>2012-04-09T09:44:34Z</time>
      </trkpt>
      <trkpt lat="45.64452" lon="4.47593">
        <ele>649.02709960938</ele>
        <time>2012-04-09T09:44:41Z</time>
      </trkpt>
      <trkpt lat="45.64452" lon="4.47593">
        <ele>650.46923828125</ele>
        <time>2012-04-09T09:44:58Z</time>
      </trkpt>
      <trkpt lat="45.64448" lon="4.47594">
        <ele>651.43041992188</ele>
        <time>2012-04-09T09:45:11Z</time>
      </trkpt>
      <trkpt lat="45.6443" lon="4.47589">
        <ele>652.39184570312</ele>
        <time>2012-04-09T09:45:19Z</time>
      </trkpt>
      <trkpt lat="45.64408" lon="4.47578">
        <ele>652.39184570312</ele>
        <time>2012-04-09T09:45:26Z</time>
      </trkpt>
      <trkpt lat="45.64392" lon="4.47567">
        <ele>651.9111328125</ele>
        <time>2012-04-09T09:45:31Z</time>
      </trkpt>
      <trkpt lat="45.64367" lon="4.47548">
        <ele>649.98852539062</ele>
        <time>2012-04-09T09:45:38Z</time>
      </trkpt>
      <trkpt lat="45.64339" lon="4.47536">
        <ele>648.54638671875</ele>
        <time>2012-04-09T09:45:44Z</time>
      </trkpt>
      <trkpt lat="45.64324" lon="4.47533">
        <ele>648.06591796875</ele>
        <time>2012-04-09T09:45:47Z</time>
      </trkpt>
      <trkpt lat="45.64283" lon="4.47538">
        <ele>646.6240234375</ele>
        <time>2012-04-09T09:45:56Z</time>
      </trkpt>
      <trkpt lat="45.64249" lon="4.47542">
        <ele>644.220703125</ele>
        <time>2012-04-09T09:46:02Z</time>
      </trkpt>
      <trkpt lat="45.64213" lon="4.4755">
        <ele>640.85595703125</ele>
        <time>2012-04-09T09:46:07Z</time>
      </trkpt>
      <trkpt lat="45.64169" lon="4.47564">
        <ele>636.04956054688</ele>
        <time>2012-04-09T09:46:12Z</time>
      </trkpt>
      <trkpt lat="45.64117" lon="4.47586">
        <ele>630.76220703125</ele>
        <time>2012-04-09T09:46:17Z</time>
      </trkpt>
      <trkpt lat="45.64037" lon="4.47624">
        <ele>623.55249023438</ele>
        <time>2012-04-09T09:46:25Z</time>
      </trkpt>
      <trkpt lat="45.63999" lon="4.47645">
        <ele>620.18774414062</ele>
        <time>2012-04-09T09:46:30Z</time>
      </trkpt>
      <trkpt lat="45.63988" lon="4.4765">
        <ele>619.22631835938</ele>
        <time>2012-04-09T09:46:33Z</time>
      </trkpt>
      <trkpt lat="45.63984" lon="4.47651">
        <ele>618.74560546875</ele>
        <time>2012-04-09T09:46:34Z</time>
      </trkpt>
      <trkpt lat="45.63956" lon="4.47653">
        <ele>616.82299804688</ele>
        <time>2012-04-09T09:46:39Z</time>
      </trkpt>
      <trkpt lat="45.63919" lon="4.47649">
        <ele>613.93896484375</ele>
        <time>2012-04-09T09:46:44Z</time>
      </trkpt>
      <trkpt lat="45.63855" lon="4.47637">
        <ele>610.57446289062</ele>
        <time>2012-04-09T09:46:52Z</time>
      </trkpt>
      <trkpt lat="45.63793" lon="4.47618">
        <ele>609.13256835938</ele>
        <time>2012-04-09T09:47:00Z</time>
      </trkpt>
      <trkpt lat="45.63747" lon="4.47597">
        <ele>608.65185546875</ele>
        <time>2012-04-09T09:47:07Z</time>
      </trkpt>
      <trkpt lat="45.63708" lon="4.47569">
        <ele>609.61328125</ele>
        <time>2012-04-09T09:47:14Z</time>
      </trkpt>
      <trkpt lat="45.63695" lon="4.4756">
        <ele>610.09375</ele>
        <time>2012-04-09T09:47:17Z</time>
      </trkpt>
      <trkpt lat="45.6369" lon="4.47559">
        <ele>610.09375</ele>
        <time>2012-04-09T09:47:21Z</time>
      </trkpt>
      <trkpt lat="45.63689" lon="4.47558">
        <ele>609.61328125</ele>
        <time>2012-04-09T09:47:27Z</time>
      </trkpt>
      <trkpt lat="45.63676" lon="4.47547">
        <ele>609.13256835938</ele>
        <time>2012-04-09T09:47:33Z</time>
      </trkpt>
      <trkpt lat="45.63654" lon="4.47522">
        <ele>609.13256835938</ele>
        <time>2012-04-09T09:47:39Z</time>
      </trkpt>
      <trkpt lat="45.6365" lon="4.47516">
        <ele>609.13256835938</ele>
        <time>2012-04-09T09:47:40Z</time>
      </trkpt>
      <trkpt lat="45.63636" lon="4.4749">
        <ele>609.13256835938</ele>
        <time>2012-04-09T09:47:44Z</time>
      </trkpt>
      <trkpt lat="45.63613" lon="4.47466">
        <ele>609.13256835938</ele>
        <time>2012-04-09T09:47:49Z</time>
      </trkpt>
      <trkpt lat="45.63568" lon="4.47444">
        <ele>610.09375</ele>
        <time>2012-04-09T09:47:58Z</time>
      </trkpt>
      <trkpt lat="45.63541" lon="4.47431">
        <ele>608.17138671875</ele>
        <time>2012-04-09T09:48:04Z</time>
      </trkpt>
      <trkpt lat="45.63531" lon="4.47426">
        <ele>607.69067382812</ele>
        <time>2012-04-09T09:48:06Z</time>
      </trkpt>
      <trkpt lat="45.63511" lon="4.47435">
        <ele>605.76806640625</ele>
        <time>2012-04-09T09:48:10Z</time>
      </trkpt>
      <trkpt lat="45.63507" lon="4.47442">
        <ele>605.28735351562</ele>
        <time>2012-04-09T09:48:11Z</time>
      </trkpt>
      <trkpt lat="45.63468" lon="4.47498">
        <ele>602.40307617188</ele>
        <time>2012-04-09T09:48:18Z</time>
      </trkpt>
      <trkpt lat="45.63442" lon="4.47531">
        <ele>601.92260742188</ele>
        <time>2012-04-09T09:48:23Z</time>
      </trkpt>
      <trkpt lat="45.63434" lon="4.47543">
        <ele>602.40307617188</ele>
        <time>2012-04-09T09:48:25Z</time>
      </trkpt>
      <trkpt lat="45.63428" lon="4.47555">
        <ele>603.36450195312</ele>
        <time>2012-04-09T09:48:27Z</time>
      </trkpt>
      <trkpt lat="45.63424" lon="4.47577">
        <ele>602.40307617188</ele>
        <time>2012-04-09T09:48:31Z</time>
      </trkpt>
      <trkpt lat="45.63418" lon="4.47604">
        <ele>601.44189453125</ele>
        <time>2012-04-09T09:48:36Z</time>
      </trkpt>
      <trkpt lat="45.63409" lon="4.47638">
        <ele>602.8837890625</ele>
        <time>2012-04-09T09:48:44Z</time>
      </trkpt>
      <trkpt lat="45.63403" lon="4.47662">
        <ele>604.326171875</ele>
        <time>2012-04-09T09:48:51Z</time>
      </trkpt>
      <trkpt lat="45.63395" lon="4.47688">
        <ele>606.72924804688</ele>
        <time>2012-04-09T09:49:00Z</time>
      </trkpt>
      <trkpt lat="45.6339" lon="4.47708">
        <ele>608.65185546875</ele>
        <time>2012-04-09T09:49:08Z</time>
      </trkpt>
      <trkpt lat="45.63383" lon="4.47728">
        <ele>611.05517578125</ele>
        <time>2012-04-09T09:49:16Z</time>
      </trkpt>
      <trkpt lat="45.63378" lon="4.47747">
        <ele>613.45849609375</ele>
        <time>2012-04-09T09:49:24Z</time>
      </trkpt>
      <trkpt lat="45.63371" lon="4.47769">
        <ele>615.38110351562</ele>
        <time>2012-04-09T09:49:34Z</time>
      </trkpt>
      <trkpt lat="45.63365" lon="4.4779">
        <ele>617.3037109375</ele>
        <time>2012-04-09T09:49:43Z</time>
      </trkpt>
      <trkpt lat="45.63356" lon="4.47818">
        <ele>619.22631835938</ele>
        <time>2012-04-09T09:49:54Z</time>
      </trkpt>
      <trkpt lat="45.63348" lon="4.47844">
        <ele>621.14916992188</ele>
        <time>2012-04-09T09:50:04Z</time>
      </trkpt>
      <trkpt lat="45.63342" lon="4.47868">
        <ele>622.1103515625</ele>
        <time>2012-04-09T09:50:13Z</time>
      </trkpt>
      <trkpt lat="45.63336" lon="4.47889">
        <ele>623.07177734375</ele>
        <time>2012-04-09T09:50:21Z</time>
      </trkpt>
      <trkpt lat="45.63331" lon="4.47908">
        <ele>624.03295898438</ele>
        <time>2012-04-09T09:50:28Z</time>
      </trkpt>
      <trkpt lat="45.63326" lon="4.47926">
        <ele>624.99438476562</ele>
        <time>2012-04-09T09:50:35Z</time>
      </trkpt>
      <trkpt lat="45.63319" lon="4.47952">
        <ele>627.39770507812</ele>
        <time>2012-04-09T09:50:44Z</time>
      </trkpt>
      <trkpt lat="45.63314" lon="4.47976">
        <ele>627.39770507812</ele>
        <time>2012-04-09T09:50:53Z</time>
      </trkpt>
      <trkpt lat="45.63314" lon="4.48">
        <ele>627.87817382812</ele>
        <time>2012-04-09T09:50:59Z</time>
      </trkpt>
      <trkpt lat="45.63317" lon="4.48029">
        <ele>627.39770507812</ele>
        <time>2012-04-09T09:51:05Z</time>
      </trkpt>
      <trkpt lat="45.6332" lon="4.48062">
        <ele>627.39770507812</ele>
        <time>2012-04-09T09:51:11Z</time>
      </trkpt>
      <trkpt lat="45.63327" lon="4.48076">
        <ele>627.39770507812</ele>
        <time>2012-04-09T09:51:14Z</time>
      </trkpt>
      <trkpt lat="45.63361" lon="4.481">
        <ele>625.95556640625</ele>
        <time>2012-04-09T09:51:23Z</time>
      </trkpt>
      <trkpt lat="45.63401" lon="4.48128">
        <ele>625.47485351562</ele>
        <time>2012-04-09T09:51:33Z</time>
      </trkpt>
      <trkpt lat="45.63451" lon="4.48163">
        <ele>625.47485351562</ele>
        <time>2012-04-09T09:51:45Z</time>
      </trkpt>
      <trkpt lat="45.63455" lon="4.48165">
        <ele>625.95556640625</ele>
        <time>2012-04-09T09:51:46Z</time>
      </trkpt>
      <trkpt lat="45.63464" lon="4.48163">
        <ele>626.43627929688</ele>
        <time>2012-04-09T09:51:50Z</time>
      </trkpt>
      <trkpt lat="45.63462" lon="4.48161">
        <ele>626.9169921875</ele>
        <time>2012-04-09T09:51:54Z</time>
      </trkpt>
      <trkpt lat="45.63459" lon="4.4816">
        <ele>627.39770507812</ele>
        <time>2012-04-09T09:51:57Z</time>
      </trkpt>
      <trkpt lat="45.63458" lon="4.4816">
        <ele>627.39770507812</ele>
        <time>2012-04-09T09:51:58Z</time>
      </trkpt>
      <trkpt lat="45.63451" lon="4.48162">
        <ele>630.28149414062</ele>
        <time>2012-04-09T10:02:43Z</time>
      </trkpt>
      <trkpt lat="45.63449" lon="4.4816">
        <ele>630.28149414062</ele>
        <time>2012-04-09T10:02:44Z</time>
      </trkpt>
      <trkpt lat="45.63429" lon="4.48146">
        <ele>630.28149414062</ele>
        <time>2012-04-09T10:02:51Z</time>
      </trkpt>
      <trkpt lat="45.63404" lon="4.48129">
        <ele>630.76220703125</ele>
        <time>2012-04-09T10:03:00Z</time>
      </trkpt>
      <trkpt lat="45.63369" lon="4.48105">
        <ele>630.28149414062</ele>
        <time>2012-04-09T10:03:11Z</time>
      </trkpt>
      <trkpt lat="45.63342" lon="4.48087">
        <ele>630.76220703125</ele>
        <time>2012-04-09T10:03:20Z</time>
      </trkpt>
      <trkpt lat="45.63307" lon="4.48063">
        <ele>631.24291992188</ele>
        <time>2012-04-09T10:03:31Z</time>
      </trkpt>
      <trkpt lat="45.63284" lon="4.48064">
        <ele>629.32006835938</ele>
        <time>2012-04-09T10:03:36Z</time>
      </trkpt>
      <trkpt lat="45.63248" lon="4.48071">
        <ele>625.95556640625</ele>
        <time>2012-04-09T10:03:42Z</time>
      </trkpt>
      <trkpt lat="45.63208" lon="4.48097">
        <ele>620.66845703125</ele>
        <time>2012-04-09T10:03:49Z</time>
      </trkpt>
      <trkpt lat="45.63202" lon="4.481">
        <ele>619.70703125</ele>
        <time>2012-04-09T10:03:50Z</time>
      </trkpt>
      <trkpt lat="45.63168" lon="4.48099">
        <ele>615.38110351562</ele>
        <time>2012-04-09T10:03:54Z</time>
      </trkpt>
      <trkpt lat="45.63105" lon="4.48072">
        <ele>605.28735351562</ele>
        <time>2012-04-09T10:04:00Z</time>
      </trkpt>
      <trkpt lat="45.63032" lon="4.48039">
        <ele>593.75146484375</ele>
        <time>2012-04-09T10:04:06Z</time>
      </trkpt>
      <trkpt lat="45.62973" lon="4.48012">
        <ele>585.580078125</ele>
        <time>2012-04-09T10:04:11Z</time>
      </trkpt>
      <trkpt lat="45.62928" lon="4.47981">
        <ele>580.77368164062</ele>
        <time>2012-04-09T10:04:15Z</time>
      </trkpt>
      <trkpt lat="45.62884" lon="4.47929">
        <ele>576.44775390625</ele>
        <time>2012-04-09T10:04:20Z</time>
      </trkpt>
      <trkpt lat="45.62849" lon="4.47886">
        <ele>573.56396484375</ele>
        <time>2012-04-09T10:04:24Z</time>
      </trkpt>
      <trkpt lat="45.6283" lon="4.47832">
        <ele>572.6025390625</ele>
        <time>2012-04-09T10:04:28Z</time>
      </trkpt>
      <trkpt lat="45.62825" lon="4.47808">
        <ele>572.12182617188</ele>
        <time>2012-04-09T10:04:31Z</time>
      </trkpt>
      <trkpt lat="45.62815" lon="4.47811">
        <ele>572.6025390625</ele>
        <time>2012-04-09T10:04:33Z</time>
      </trkpt>
      <trkpt lat="45.62811" lon="4.47817">
        <ele>572.6025390625</ele>
        <time>2012-04-09T10:04:34Z</time>
      </trkpt>
      <trkpt lat="45.62793" lon="4.47842">
        <ele>573.08325195312</ele>
        <time>2012-04-09T10:04:38Z</time>
      </trkpt>
      <trkpt lat="45.62758" lon="4.47869">
        <ele>572.12182617188</ele>
        <time>2012-04-09T10:04:44Z</time>
      </trkpt>
      <trkpt lat="45.62718" lon="4.47894">
        <ele>571.16040039062</ele>
        <time>2012-04-09T10:04:50Z</time>
      </trkpt>
      <trkpt lat="45.62693" lon="4.47916">
        <ele>570.6796875</ele>
        <time>2012-04-09T10:04:54Z</time>
      </trkpt>
      <trkpt lat="45.62661" lon="4.47958">
        <ele>569.23779296875</ele>
        <time>2012-04-09T10:05:00Z</time>
      </trkpt>
      <trkpt lat="45.6264" lon="4.47992">
        <ele>567.31518554688</ele>
        <time>2012-04-09T10:05:04Z</time>
      </trkpt>
      <trkpt lat="45.62619" lon="4.4802">
        <ele>564.43115234375</ele>
        <time>2012-04-09T10:05:08Z</time>
      </trkpt>
      <trkpt lat="45.62619" lon="4.48034">
        <ele>563.95043945312</ele>
        <time>2012-04-09T10:05:11Z</time>
      </trkpt>
      <trkpt lat="45.62628" lon="4.48043">
        <ele>563.95043945312</ele>
        <time>2012-04-09T10:05:14Z</time>
      </trkpt>
      <trkpt lat="45.62634" lon="4.48048">
        <ele>564.43115234375</ele>
        <time>2012-04-09T10:05:16Z</time>
      </trkpt>
      <trkpt lat="45.62644" lon="4.4807">
        <ele>565.392578125</ele>
        <time>2012-04-09T10:05:22Z</time>
      </trkpt>
      <trkpt lat="45.62653" lon="4.48091">
        <ele>565.87329101562</ele>
        <time>2012-04-09T10:05:27Z</time>
      </trkpt>
      <trkpt lat="45.62672" lon="4.48116">
        <ele>570.19897460938</ele>
        <time>2012-04-09T10:05:34Z</time>
      </trkpt>
      <trkpt lat="45.6269" lon="4.48142">
        <ele>574.04443359375</ele>
        <time>2012-04-09T10:05:42Z</time>
      </trkpt>
      <trkpt lat="45.62696" lon="4.48162">
        <ele>576.44775390625</ele>
        <time>2012-04-09T10:05:47Z</time>
      </trkpt>
      <trkpt lat="45.62705" lon="4.48191">
        <ele>577.8896484375</ele>
        <time>2012-04-09T10:05:54Z</time>
      </trkpt>
      <trkpt lat="45.62707" lon="4.48239">
        <ele>577.8896484375</ele>
        <time>2012-04-09T10:06:02Z</time>
      </trkpt>
      <trkpt lat="45.62693" lon="4.4827">
        <ele>577.8896484375</ele>
        <time>2012-04-09T10:06:08Z</time>
      </trkpt>
      <trkpt lat="45.62674" lon="4.48308">
        <ele>579.33154296875</ele>
        <time>2012-04-09T10:06:16Z</time>
      </trkpt>
      <trkpt lat="45.62656" lon="4.48339">
        <ele>581.25439453125</ele>
        <time>2012-04-09T10:06:24Z</time>
      </trkpt>
      <trkpt lat="45.62639" lon="4.48366">
        <ele>583.65747070312</ele>
        <time>2012-04-09T10:06:32Z</time>
      </trkpt>
      <trkpt lat="45.62621" lon="4.48389">
        <ele>587.50268554688</ele>
        <time>2012-04-09T10:06:39Z</time>
      </trkpt>
      <trkpt lat="45.62606" lon="4.48414">
        <ele>588.94506835938</ele>
        <time>2012-04-09T10:06:45Z</time>
      </trkpt>
      <trkpt lat="45.62591" lon="4.48448">
        <ele>587.9833984375</ele>
        <time>2012-04-09T10:06:52Z</time>
      </trkpt>
      <trkpt lat="45.62574" lon="4.48491">
        <ele>587.50268554688</ele>
        <time>2012-04-09T10:07:01Z</time>
      </trkpt>
      <trkpt lat="45.62567" lon="4.48527">
        <ele>586.54150390625</ele>
        <time>2012-04-09T10:07:08Z</time>
      </trkpt>
      <trkpt lat="45.62557" lon="4.48556">
        <ele>586.54150390625</ele>
        <time>2012-04-09T10:07:15Z</time>
      </trkpt>
      <trkpt lat="45.62537" lon="4.48589">
        <ele>586.06079101562</ele>
        <time>2012-04-09T10:07:24Z</time>
      </trkpt>
      <trkpt lat="45.6252" lon="4.48622">
        <ele>586.54150390625</ele>
        <time>2012-04-09T10:07:33Z</time>
      </trkpt>
      <trkpt lat="45.62506" lon="4.4865">
        <ele>587.9833984375</ele>
        <time>2012-04-09T10:07:42Z</time>
      </trkpt>
      <trkpt lat="45.62494" lon="4.48678">
        <ele>590.86743164062</ele>
        <time>2012-04-09T10:07:51Z</time>
      </trkpt>
      <trkpt lat="45.62486" lon="4.48702">
        <ele>591.34814453125</ele>
        <time>2012-04-09T10:07:59Z</time>
      </trkpt>
      <trkpt lat="45.62477" lon="4.48738">
        <ele>593.75146484375</ele>
        <time>2012-04-09T10:08:10Z</time>
      </trkpt>
      <trkpt lat="45.62473" lon="4.48768">
        <ele>595.67407226562</ele>
        <time>2012-04-09T10:08:20Z</time>
      </trkpt>
      <trkpt lat="45.62473" lon="4.48791">
        <ele>596.63549804688</ele>
        <time>2012-04-09T10:08:28Z</time>
      </trkpt>
      <trkpt lat="45.62481" lon="4.48825">
        <ele>599.03857421875</ele>
        <time>2012-04-09T10:08:40Z</time>
      </trkpt>
      <trkpt lat="45.62492" lon="4.48855">
        <ele>600.96118164062</ele>
        <time>2012-04-09T10:08:51Z</time>
      </trkpt>
      <trkpt lat="45.62505" lon="4.48881">
        <ele>601.92260742188</ele>
        <time>2012-04-09T10:09:00Z</time>
      </trkpt>
      <trkpt lat="45.62519" lon="4.48909">
        <ele>602.40307617188</ele>
        <time>2012-04-09T10:09:10Z</time>
      </trkpt>
      <trkpt lat="45.62531" lon="4.4894">
        <ele>602.40307617188</ele>
        <time>2012-04-09T10:09:18Z</time>
      </trkpt>
      <trkpt lat="45.62543" lon="4.48977">
        <ele>602.40307617188</ele>
        <time>2012-04-09T10:09:27Z</time>
      </trkpt>
      <trkpt lat="45.62555" lon="4.49012">
        <ele>602.8837890625</ele>
        <time>2012-04-09T10:09:36Z</time>
      </trkpt>
      <trkpt lat="45.62566" lon="4.49042">
        <ele>603.36450195312</ele>
        <time>2012-04-09T10:09:44Z</time>
      </trkpt>
      <trkpt lat="45.62582" lon="4.49085">
        <ele>603.36450195312</ele>
        <time>2012-04-09T10:09:55Z</time>
      </trkpt>
      <trkpt lat="45.62595" lon="4.49118">
        <ele>603.36450195312</ele>
        <time>2012-04-09T10:10:03Z</time>
      </trkpt>
      <trkpt lat="45.62605" lon="4.49153">
        <ele>602.8837890625</ele>
        <time>2012-04-09T10:10:10Z</time>
      </trkpt>
      <trkpt lat="45.62611" lon="4.49186">
        <ele>602.8837890625</ele>
        <time>2012-04-09T10:10:17Z</time>
      </trkpt>
      <trkpt lat="45.62616" lon="4.49214">
        <ele>601.92260742188</ele>
        <time>2012-04-09T10:10:22Z</time>
      </trkpt>
      <trkpt lat="45.62622" lon="4.49258">
        <ele>600</ele>
        <time>2012-04-09T10:10:27Z</time>
      </trkpt>
      <trkpt lat="45.62629" lon="4.49297">
        <ele>598.55786132812</ele>
        <time>2012-04-09T10:10:31Z</time>
      </trkpt>
      <trkpt lat="45.62624" lon="4.49327">
        <ele>595.193359375</ele>
        <time>2012-04-09T10:10:35Z</time>
      </trkpt>
      <trkpt lat="45.62606" lon="4.49343">
        <ele>591.82885742188</ele>
        <time>2012-04-09T10:10:38Z</time>
      </trkpt>
      <trkpt lat="45.62547" lon="4.49381">
        <ele>584.13818359375</ele>
        <time>2012-04-09T10:10:45Z</time>
      </trkpt>
      <trkpt lat="45.62529" lon="4.49392">
        <ele>581.73486328125</ele>
        <time>2012-04-09T10:10:47Z</time>
      </trkpt>
      <trkpt lat="45.62505" lon="4.4939">
        <ele>578.37036132812</ele>
        <time>2012-04-09T10:10:50Z</time>
      </trkpt>
      <trkpt lat="45.62498" lon="4.49383">
        <ele>577.8896484375</ele>
        <time>2012-04-09T10:10:51Z</time>
      </trkpt>
      <trkpt lat="45.62452" lon="4.4933">
        <ele>571.16040039062</ele>
        <time>2012-04-09T10:10:57Z</time>
      </trkpt>
      <trkpt lat="45.62436" lon="4.49316">
        <ele>568.75708007812</ele>
        <time>2012-04-09T10:10:59Z</time>
      </trkpt>
      <trkpt lat="45.62412" lon="4.49315">
        <ele>565.87329101562</ele>
        <time>2012-04-09T10:11:02Z</time>
      </trkpt>
      <trkpt lat="45.624" lon="4.49334">
        <ele>563.95043945312</ele>
        <time>2012-04-09T10:11:04Z</time>
      </trkpt>
      <trkpt lat="45.62396" lon="4.4936">
        <ele>562.50854492188</ele>
        <time>2012-04-09T10:11:06Z</time>
      </trkpt>
      <trkpt lat="45.62393" lon="4.49442">
        <ele>557.7021484375</ele>
        <time>2012-04-09T10:11:12Z</time>
      </trkpt>
      <trkpt lat="45.62384" lon="4.49455">
        <ele>555.29858398438</ele>
        <time>2012-04-09T10:11:15Z</time>
      </trkpt>
      <trkpt lat="45.62377" lon="4.49442">
        <ele>553.85668945312</ele>
        <time>2012-04-09T10:11:17Z</time>
      </trkpt>
      <trkpt lat="45.62377" lon="4.49424">
        <ele>552.89526367188</ele>
        <time>2012-04-09T10:11:19Z</time>
      </trkpt>
      <trkpt lat="45.62376" lon="4.49387">
        <ele>550.97265625</ele>
        <time>2012-04-09T10:11:23Z</time>
      </trkpt>
      <trkpt lat="45.62369" lon="4.49347">
        <ele>549.53076171875</ele>
        <time>2012-04-09T10:11:27Z</time>
      </trkpt>
      <trkpt lat="45.62367" lon="4.49279">
        <ele>550.01147460938</ele>
        <time>2012-04-09T10:11:34Z</time>
      </trkpt>
      <trkpt lat="45.62367" lon="4.49262">
        <ele>549.53076171875</ele>
        <time>2012-04-09T10:11:36Z</time>
      </trkpt>
      <trkpt lat="45.6236" lon="4.49247">
        <ele>550.01147460938</ele>
        <time>2012-04-09T10:11:39Z</time>
      </trkpt>
      <trkpt lat="45.6235" lon="4.49257">
        <ele>549.53076171875</ele>
        <time>2012-04-09T10:11:42Z</time>
      </trkpt>
      <trkpt lat="45.62348" lon="4.49287">
        <ele>548.0888671875</ele>
        <time>2012-04-09T10:11:45Z</time>
      </trkpt>
      <trkpt lat="45.62351" lon="4.49342">
        <ele>544.24365234375</ele>
        <time>2012-04-09T10:11:50Z</time>
      </trkpt>
      <trkpt lat="45.62341" lon="4.49354">
        <ele>539.91760253906</ele>
        <time>2012-04-09T10:11:54Z</time>
      </trkpt>
      <trkpt lat="45.62333" lon="4.49336">
        <ele>538.95629882812</ele>
        <time>2012-04-09T10:11:56Z</time>
      </trkpt>
      <trkpt lat="45.62326" lon="4.49315">
        <ele>537.51428222656</ele>
        <time>2012-04-09T10:11:58Z</time>
      </trkpt>
      <trkpt lat="45.62309" lon="4.49298">
        <ele>533.6689453125</ele>
        <time>2012-04-09T10:12:01Z</time>
      </trkpt>
      <trkpt lat="45.62291" lon="4.49306">
        <ele>531.74633789062</ele>
        <time>2012-04-09T10:12:04Z</time>
      </trkpt>
      <trkpt lat="45.62276" lon="4.49306">
        <ele>533.6689453125</ele>
        <time>2012-04-09T10:12:07Z</time>
      </trkpt>
      <trkpt lat="45.6226" lon="4.49289">
        <ele>533.6689453125</ele>
        <time>2012-04-09T10:12:12Z</time>
      </trkpt>
      <trkpt lat="45.62253" lon="4.49277">
        <ele>537.51428222656</ele>
        <time>2012-04-09T10:12:16Z</time>
      </trkpt>
      <trkpt lat="45.62236" lon="4.49256">
        <ele>541.84020996094</ele>
        <time>2012-04-09T10:12:23Z</time>
      </trkpt>
      <trkpt lat="45.62223" lon="4.49238">
        <ele>546.16625976562</ele>
        <time>2012-04-09T10:12:29Z</time>
      </trkpt>
      <trkpt lat="45.62211" lon="4.4922">
        <ele>550.01147460938</ele>
        <time>2012-04-09T10:12:36Z</time>
      </trkpt>
      <trkpt lat="45.62196" lon="4.49203">
        <ele>553.85668945312</ele>
        <time>2012-04-09T10:12:45Z</time>
      </trkpt>
      <trkpt lat="45.62179" lon="4.49202">
        <ele>555.29858398438</ele>
        <time>2012-04-09T10:12:52Z</time>
      </trkpt>
      <trkpt lat="45.6216" lon="4.49209">
        <ele>555.779296875</ele>
        <time>2012-04-09T10:13:00Z</time>
      </trkpt>
      <trkpt lat="45.62156" lon="4.49211">
        <ele>556.26000976562</ele>
        <time>2012-04-09T10:13:02Z</time>
      </trkpt>
      <trkpt lat="45.62146" lon="4.49216">
        <ele>556.26000976562</ele>
        <time>2012-04-09T10:13:07Z</time>
      </trkpt>
      <trkpt lat="45.62136" lon="4.49217">
        <ele>556.74072265625</ele>
        <time>2012-04-09T10:13:12Z</time>
      </trkpt>
      <trkpt lat="45.62125" lon="4.49207">
        <ele>559.14404296875</ele>
        <time>2012-04-09T10:13:19Z</time>
      </trkpt>
      <trkpt lat="45.62118" lon="4.49195">
        <ele>560.5859375</ele>
        <time>2012-04-09T10:13:26Z</time>
      </trkpt>
      <trkpt lat="45.6211" lon="4.49179">
        <ele>562.50854492188</ele>
        <time>2012-04-09T10:13:34Z</time>
      </trkpt>
      <trkpt lat="45.62101" lon="4.49163">
        <ele>563.95043945312</ele>
        <time>2012-04-09T10:13:42Z</time>
      </trkpt>
      <trkpt lat="45.62096" lon="4.49155">
        <ele>565.87329101562</ele>
        <time>2012-04-09T10:13:47Z</time>
      </trkpt>
      <trkpt lat="45.6208" lon="4.49131">
        <ele>569.23779296875</ele>
        <time>2012-04-09T10:13:59Z</time>
      </trkpt>
      <trkpt lat="45.62066" lon="4.49113">
        <ele>571.16040039062</ele>
        <time>2012-04-09T10:14:09Z</time>
      </trkpt>
      <trkpt lat="45.62055" lon="4.49101">
        <ele>572.6025390625</ele>
        <time>2012-04-09T10:14:17Z</time>
      </trkpt>
      <trkpt lat="45.62046" lon="4.49094">
        <ele>573.56396484375</ele>
        <time>2012-04-09T10:14:23Z</time>
      </trkpt>
      <trkpt lat="45.62033" lon="4.4909">
        <ele>573.56396484375</ele>
        <time>2012-04-09T10:14:31Z</time>
      </trkpt>
      <trkpt lat="45.62022" lon="4.49094">
        <ele>574.04443359375</ele>
        <time>2012-04-09T10:14:38Z</time>
      </trkpt>
      <trkpt lat="45.62011" lon="4.49105">
        <ele>576.92846679688</ele>
        <time>2012-04-09T10:14:47Z</time>
      </trkpt>
      <trkpt lat="45.62002" lon="4.49118">
        <ele>579.81225585938</ele>
        <time>2012-04-09T10:14:56Z</time>
      </trkpt>
      <trkpt lat="45.61995" lon="4.4913">
        <ele>583.65747070312</ele>
        <time>2012-04-09T10:15:03Z</time>
      </trkpt>
      <trkpt lat="45.61988" lon="4.49141">
        <ele>587.50268554688</ele>
        <time>2012-04-09T10:15:10Z</time>
      </trkpt>
      <trkpt lat="45.61982" lon="4.49152">
        <ele>590.86743164062</ele>
        <time>2012-04-09T10:15:17Z</time>
      </trkpt>
      <trkpt lat="45.61976" lon="4.49162">
        <ele>593.27075195312</ele>
        <time>2012-04-09T10:15:24Z</time>
      </trkpt>
      <trkpt lat="45.61972" lon="4.49171">
        <ele>595.193359375</ele>
        <time>2012-04-09T10:15:30Z</time>
      </trkpt>
      <trkpt lat="45.61963" lon="4.49178">
        <ele>596.63549804688</ele>
        <time>2012-04-09T10:15:37Z</time>
      </trkpt>
      <trkpt lat="45.6195" lon="4.49179">
        <ele>598.07739257812</ele>
        <time>2012-04-09T10:15:45Z</time>
      </trkpt>
      <trkpt lat="45.61937" lon="4.4918">
        <ele>600</ele>
        <time>2012-04-09T10:15:53Z</time>
      </trkpt>
      <trkpt lat="45.61926" lon="4.49184">
        <ele>601.44189453125</ele>
        <time>2012-04-09T10:16:00Z</time>
      </trkpt>
      <trkpt lat="45.61921" lon="4.49188">
        <ele>602.40307617188</ele>
        <time>2012-04-09T10:16:05Z</time>
      </trkpt>
      <trkpt lat="45.61919" lon="4.49186">
        <ele>602.8837890625</ele>
        <time>2012-04-09T10:16:12Z</time>
      </trkpt>
      <trkpt lat="45.61919" lon="4.49187">
        <ele>602.8837890625</ele>
        <time>2012-04-09T10:16:21Z</time>
      </trkpt>
      <trkpt lat="45.6192" lon="4.49187">
        <ele>602.8837890625</ele>
        <time>2012-04-09T10:16:28Z</time>
      </trkpt>
      <trkpt lat="45.6192" lon="4.49183">
        <ele>593.75146484375</ele>
        <time>2012-04-09T10:16:54Z</time>
      </trkpt>
      <trkpt lat="45.61921" lon="4.49184">
        <ele>588.94506835938</ele>
        <time>2012-04-09T10:17:22Z</time>
      </trkpt>
      <trkpt lat="45.61922" lon="4.49184">
        <ele>594.23217773438</ele>
        <time>2012-04-09T10:17:39Z</time>
      </trkpt>
      <trkpt lat="45.61921" lon="4.49185">
        <ele>596.63549804688</ele>
        <time>2012-04-09T10:17:52Z</time>
      </trkpt>
      <trkpt lat="45.61919" lon="4.49187">
        <ele>599.03857421875</ele>
        <time>2012-04-09T10:18:01Z</time>
      </trkpt>
      <trkpt lat="45.61908" lon="4.49192">
        <ele>600.48071289062</ele>
        <time>2012-04-09T10:18:06Z</time>
      </trkpt>
      <trkpt lat="45.61882" lon="4.49193">
        <ele>600</ele>
        <time>2012-04-09T10:18:12Z</time>
      </trkpt>
      <trkpt lat="45.61861" lon="4.49178">
        <ele>598.55786132812</ele>
        <time>2012-04-09T10:18:16Z</time>
      </trkpt>
      <trkpt lat="45.6185" lon="4.49167">
        <ele>599.03857421875</ele>
        <time>2012-04-09T10:18:18Z</time>
      </trkpt>
      <trkpt lat="45.61839" lon="4.49148">
        <ele>600</ele>
        <time>2012-04-09T10:18:22Z</time>
      </trkpt>
      <trkpt lat="45.61824" lon="4.49118">
        <ele>601.44189453125</ele>
        <time>2012-04-09T10:18:31Z</time>
      </trkpt>
      <trkpt lat="45.61809" lon="4.491">
        <ele>603.36450195312</ele>
        <time>2012-04-09T10:18:39Z</time>
      </trkpt>
      <trkpt lat="45.61796" lon="4.4909">
        <ele>604.806640625</ele>
        <time>2012-04-09T10:18:46Z</time>
      </trkpt>
      <trkpt lat="45.61783" lon="4.49076">
        <ele>606.72924804688</ele>
        <time>2012-04-09T10:18:54Z</time>
      </trkpt>
      <trkpt lat="45.61778" lon="4.49055">
        <ele>608.65185546875</ele>
        <time>2012-04-09T10:19:02Z</time>
      </trkpt>
      <trkpt lat="45.61779" lon="4.49024">
        <ele>610.57446289062</ele>
        <time>2012-04-09T10:19:12Z</time>
      </trkpt>
      <trkpt lat="45.61781" lon="4.48987">
        <ele>610.57446289062</ele>
        <time>2012-04-09T10:19:23Z</time>
      </trkpt>
      <trkpt lat="45.61784" lon="4.48943">
        <ele>610.09375</ele>
        <time>2012-04-09T10:19:35Z</time>
      </trkpt>
      <trkpt lat="45.61782" lon="4.48913">
        <ele>609.13256835938</ele>
        <time>2012-04-09T10:19:43Z</time>
      </trkpt>
      <trkpt lat="45.6177" lon="4.48903">
        <ele>609.13256835938</ele>
        <time>2012-04-09T10:19:48Z</time>
      </trkpt>
      <trkpt lat="45.6175" lon="4.48899">
        <ele>608.65185546875</ele>
        <time>2012-04-09T10:19:53Z</time>
      </trkpt>
      <trkpt lat="45.61729" lon="4.489">
        <ele>607.2099609375</ele>
        <time>2012-04-09T10:19:59Z</time>
      </trkpt>
      <trkpt lat="45.61725" lon="4.48915">
        <ele>607.69067382812</ele>
        <time>2012-04-09T10:20:03Z</time>
      </trkpt>
      <trkpt lat="45.61719" lon="4.48946">
        <ele>609.61328125</ele>
        <time>2012-04-09T10:20:12Z</time>
      </trkpt>
      <trkpt lat="45.61712" lon="4.48967">
        <ele>611.53588867188</ele>
        <time>2012-04-09T10:20:19Z</time>
      </trkpt>
      <trkpt lat="45.61703" lon="4.48985">
        <ele>612.97778320312</ele>
        <time>2012-04-09T10:20:26Z</time>
      </trkpt>
      <trkpt lat="45.61687" lon="4.49003">
        <ele>614.41967773438</ele>
        <time>2012-04-09T10:20:35Z</time>
      </trkpt>
      <trkpt lat="45.61678" lon="4.49014">
        <ele>615.86181640625</ele>
        <time>2012-04-09T10:20:41Z</time>
      </trkpt>
      <trkpt lat="45.61664" lon="4.49027">
        <ele>617.3037109375</ele>
        <time>2012-04-09T10:20:49Z</time>
      </trkpt>
      <trkpt lat="45.61651" lon="4.49038">
        <ele>620.18774414062</ele>
        <time>2012-04-09T10:20:58Z</time>
      </trkpt>
      <trkpt lat="45.6164" lon="4.49052">
        <ele>623.07177734375</ele>
        <time>2012-04-09T10:21:07Z</time>
      </trkpt>
      <trkpt lat="45.61634" lon="4.4907">
        <ele>625.47485351562</ele>
        <time>2012-04-09T10:21:15Z</time>
      </trkpt>
      <trkpt lat="45.61631" lon="4.49092">
        <ele>628.35888671875</ele>
        <time>2012-04-09T10:21:24Z</time>
      </trkpt>
      <trkpt lat="45.6163" lon="4.49115">
        <ele>630.76220703125</ele>
        <time>2012-04-09T10:21:33Z</time>
      </trkpt>
      <trkpt lat="45.61628" lon="4.49137">
        <ele>633.16528320312</ele>
        <time>2012-04-09T10:21:42Z</time>
      </trkpt>
      <trkpt lat="45.61625" lon="4.49164">
        <ele>635.08813476562</ele>
        <time>2012-04-09T10:21:53Z</time>
      </trkpt>
      <trkpt lat="45.61621" lon="4.49186">
        <ele>637.0107421875</ele>
        <time>2012-04-09T10:22:02Z</time>
      </trkpt>
      <trkpt lat="45.61618" lon="4.49208">
        <ele>638.45288085938</ele>
        <time>2012-04-09T10:22:11Z</time>
      </trkpt>
      <trkpt lat="45.61615" lon="4.49227">
        <ele>640.37548828125</ele>
        <time>2012-04-09T10:22:19Z</time>
      </trkpt>
      <trkpt lat="45.61612" lon="4.49249">
        <ele>643.25927734375</ele>
        <time>2012-04-09T10:22:29Z</time>
      </trkpt>
      <trkpt lat="45.61607" lon="4.49276">
        <ele>646.14331054688</ele>
        <time>2012-04-09T10:22:41Z</time>
      </trkpt>
      <trkpt lat="45.61604" lon="4.49297">
        <ele>648.06591796875</ele>
        <time>2012-04-09T10:22:51Z</time>
      </trkpt>
      <trkpt lat="45.61602" lon="4.49316">
        <ele>650.46923828125</ele>
        <time>2012-04-09T10:23:00Z</time>
      </trkpt>
      <trkpt lat="45.616" lon="4.49338">
        <ele>653.35327148438</ele>
        <time>2012-04-09T10:23:11Z</time>
      </trkpt>
      <trkpt lat="45.61599" lon="4.49356">
        <ele>655.75659179688</ele>
        <time>2012-04-09T10:23:19Z</time>
      </trkpt>
      <trkpt lat="45.61599" lon="4.49382">
        <ele>659.12109375</ele>
        <time>2012-04-09T10:23:31Z</time>
      </trkpt>
      <trkpt lat="45.61598" lon="4.494">
        <ele>662.00512695312</ele>
        <time>2012-04-09T10:23:39Z</time>
      </trkpt>
      <trkpt lat="45.61599" lon="4.49404">
        <ele>662.96630859375</ele>
        <time>2012-04-09T10:23:41Z</time>
      </trkpt>
      <trkpt lat="45.61607" lon="4.49413">
        <ele>664.408203125</ele>
        <time>2012-04-09T10:23:48Z</time>
      </trkpt>
      <trkpt lat="45.61612" lon="4.49418">
        <ele>664.88891601562</ele>
        <time>2012-04-09T10:23:53Z</time>
      </trkpt>
      <trkpt lat="45.61613" lon="4.49419">
        <ele>664.88891601562</ele>
        <time>2012-04-09T10:23:54Z</time>
      </trkpt>
      <trkpt lat="45.61613" lon="4.49419">
        <ele>664.88891601562</ele>
        <time>2012-04-09T10:24:00Z</time>
      </trkpt>
      <trkpt lat="45.61615" lon="4.4942">
        <ele>667.29223632812</ele>
        <time>2012-04-09T10:24:14Z</time>
      </trkpt>
      <trkpt lat="45.61614" lon="4.4942">
        <ele>668.25366210938</ele>
        <time>2012-04-09T10:24:26Z</time>
      </trkpt>
      <trkpt lat="45.61613" lon="4.4942">
        <ele>667.77270507812</ele>
        <time>2012-04-09T10:24:35Z</time>
      </trkpt>
      <trkpt lat="45.61612" lon="4.4942">
        <ele>667.29223632812</ele>
        <time>2012-04-09T10:24:58Z</time>
      </trkpt>
      <trkpt lat="45.61612" lon="4.4942">
        <ele>667.77270507812</ele>
        <time>2012-04-09T10:25:08Z</time>
      </trkpt>
      <trkpt lat="45.61612" lon="4.4942">
        <ele>668.25366210938</ele>
        <time>2012-04-09T10:25:17Z</time>
      </trkpt>
      <trkpt lat="45.61612" lon="4.4942">
        <ele>668.734375</ele>
        <time>2012-04-09T10:25:33Z</time>
      </trkpt>
      <trkpt lat="45.61613" lon="4.4942">
        <ele>669.21508789062</ele>
        <time>2012-04-09T10:25:48Z</time>
      </trkpt>
      <trkpt lat="45.61613" lon="4.4942">
        <ele>668.734375</ele>
        <time>2012-04-09T10:26:12Z</time>
      </trkpt>
      <trkpt lat="45.61613" lon="4.49421">
        <ele>669.21508789062</ele>
        <time>2012-04-09T10:26:21Z</time>
      </trkpt>
      <trkpt lat="45.61613" lon="4.49419">
        <ele>668.734375</ele>
        <time>2012-04-09T10:26:31Z</time>
      </trkpt>
      <trkpt lat="45.61613" lon="4.49417">
        <ele>670.17626953125</ele>
        <time>2012-04-09T10:26:48Z</time>
      </trkpt>
      <trkpt lat="45.61617" lon="4.49419">
        <ele>670.17626953125</ele>
        <time>2012-04-09T10:26:55Z</time>
      </trkpt>
      <trkpt lat="45.61627" lon="4.49425">
        <ele>670.17626953125</ele>
        <time>2012-04-09T10:27:02Z</time>
      </trkpt>
      <trkpt lat="45.61641" lon="4.49434">
        <ele>669.69580078125</ele>
        <time>2012-04-09T10:27:10Z</time>
      </trkpt>
      <trkpt lat="45.61657" lon="4.49447">
        <ele>669.21508789062</ele>
        <time>2012-04-09T10:27:19Z</time>
      </trkpt>
      <trkpt lat="45.61673" lon="4.49467">
        <ele>669.21508789062</ele>
        <time>2012-04-09T10:27:29Z</time>
      </trkpt>
      <trkpt lat="45.61682" lon="4.49489">
        <ele>670.17626953125</ele>
        <time>2012-04-09T10:27:37Z</time>
      </trkpt>
      <trkpt lat="45.61679" lon="4.4951">
        <ele>671.6181640625</ele>
        <time>2012-04-09T10:27:44Z</time>
      </trkpt>
      <trkpt lat="45.61677" lon="4.49516">
        <ele>672.09887695312</ele>
        <time>2012-04-09T10:27:46Z</time>
      </trkpt>
      <trkpt lat="45.61676" lon="4.49517">
        <ele>672.57958984375</ele>
        <time>2012-04-09T10:27:47Z</time>
      </trkpt>
    </trkseg>
  </trk>
</gpx>